[[{"header":{"parameterUnit":"m.s-1","parameterCategory":1,"la1":30.6,"la2":28.766,"lo1":-90.7593,"lo2":-88.6598,"dy":0.0162,"dx":0.0183,"nx":116,"ny":114,"refTime":"2024-06-03T18:00:00:Z","depth":0,"parameterNumber":2,"parameterNumberName":"U-component_of_WINDS"},"data":[0.0,0.0,0.0,0.0,0.0,0.0,0.0,0.0,0.0,0.0,0.0,0.0,0.0,0.0,0.0,0.0,0.0,0.0,0.0,0.0,0.0,0.0,0.0,0.0,0.0,0.0,0.0,0.0,0.0,0.0,0.0,0.0,0.0,0.0,0.0,0.0,0.0,0.0,0.0,0.0,0.0,0.0,0.0,0.0,0.0,0.0,0.0,0.0,0.0,0.0,0.0,0.0,0.0,0.0,0.0,0.0,0.0,0.0,0.0,0.0,0.0,0.0,0.0,0.0,0.0,0.0,0.0,0.0,0.0,0.0,0.0,0.0,0.0,0.0,0.0,0.0,0.0,0.0,0.0,0.0,0.0,0.0,0.0,0.0,0.0,0.0,0.0,0.0,0.0,0.0,0.0,0.0,0.0,0.0,0.0,0.0,0.0,0.0,0.0,0.0,0.0,0.0,0.0,0.0,0.0,0.0,0.0,0.0,0.0,0.0,0.0,0.0,0.0,0.0,0.0,0.0,0.0,0.0,0.0,0.0,0.0,0.0,0.0,0.0,0.0,0.0,0.0,0.0,0.0,0.0,0.0,0.0,0.0,0.0,0.0,0.0,0.0,0.0,0.0,0.0,0.0,0.0,0.0,0.0,0.0,0.0,0.0,0.0,0.0,0.0,0.0,0.0,0.0,0.0,0.0,0.0,0.0,0.0,0.0,0.0,0.0,0.0,0.0,0.0,0.0,0.0,0.0,0.0,0.0,0.0,0.0,0.0,0.0,0.0,0.0,0.0,0.0,0.0,0.0,0.0,0.0,0.0,0.0,0.0,0.0,0.0,0.0,0.0,0.0,0.0,0.0,0.0,0.0,0.0,0.0,0.0,0.0,0.0,0.0,0.0,0.0,0.0,0.0,0.0,0.0,0.0,0.0,0.0,0.0,0.0,0.0,0.0,0.0,0.0,0.0,0.0,0.0,0.0,0.0,0.0,0.0,0.0,0.0,0.0,0.0,0.0,0.0,0.0,0.0,0.0,0.0,0.0,0.0,0.0,0.0,0.0,0.0,0.0,0.0,0.0,0.0,0.0,0.0,0.0,0.0,0.0,0.0,0.0,0.0,0.0,0.0,0.0,0.0,0.0,0.0,0.0,0.0,0.0,0.0,0.0,0.0,0.0,0.0,0.0,0.0,0.0,0.0,0.0,0.0,0.0,0.0,0.0,0.0,0.0,0.0,0.0,0.0,0.0,0.0,0.0,0.0,0.0,0.0,0.0,0.0,0.0,0.0,0.0,0.0,0.0,0.0,0.0,0.0,0.0,0.0,0.0,0.0,0.0,0.0,0.0,0.0,0.0,0.0,0.0,0.0,0.0,0.0,0.0,0.0,0.0,0.0,0.0,0.0,0.0,0.0,0.0,0.0,0.0,0.0,0.0,0.0,0.0,0.0,0.0,0.0,0.0,0.0,0.0,0.0,0.0,0.0,0.0,0.0,0.0,0.0,0.0,0.0,0.0,0.0,0.0,0.0,0.0,0.0,0.0,0.0,0.0,0.0,0.0,0.0,0.0,0.0,0.0,0.0,0.0,0.0,0.0,0.0,0.0,0.0,0.0,0.0,0.0,0.0,0.0,0.0,0.0,0.0,0.0,0.0,0.0,0.0,0.0,0.0,0.0,0.0,0.0,0.0,0.0,0.0,0.0,0.0,0.0,0.0,0.0,0.0,0.0,0.0,0.0,0.0,0.0,0.0,0.0,0.0,0.0,0.0,0.0,0.0,0.0,0.0,0.0,0.0,0.0,0.0,0.0,0.0,0.0,0.0,0.0,0.0,0.0,0.0,0.0,0.0,0.0,0.0,0.0,0.0,0.0,0.0,0.0,0.0,0.0,0.0,0.0,0.0,0.0,0.0,0.0,0.0,0.0,0.0,0.0,0.0,0.0,0.0,0.0,0.0,0.0,0.0,0.0,0.0,0.0,0.0,0.0,0.0,0.0,0.0,0.0,0.0,0.0,0.0,0.0,0.0,0.0,0.0,0.0,0.0,0.0,0.0,0.0,0.0,0.0,0.0,0.0,0.0,0.0,0.0,0.0,0.0,0.0,0.0,0.0,0.0,0.0,0.0,0.0,0.0,0.0,0.0,0.0,0.0,0.0,0.0,0.0,0.0,0.0,0.0,0.0,0.0,0.0,0.0,0.0,0.0,0.0,0.0,0.0,0.0,0.0,0.0,0.0,0.0,0.0,0.0,0.0,0.0,0.0,0.0,0.0,0.0,0.0,0.0,0.0,0.0,0.0,0.0,0.0,0.0,0.0,0.0,0.0,0.0,0.0,0.0,0.0,0.0,0.0,0.0,0.0,0.0,0.0,0.0,0.0,0.0,0.0,0.0,0.0,0.0,0.0,0.0,0.0,0.0,0.0,0.0,0.0,0.0,0.0,0.0,0.0,0.0,0.0,0.0,0.0,0.0,0.0,0.0,0.0,0.0,0.0,0.0,0.0,0.0,0.0,0.0,0.0,0.0,0.0,0.0,0.0,0.0,0.0,0.0,0.0,0.0,0.0,0.0,0.0,0.0,0.0,0.0,0.0,0.0,0.0,0.0,0.0,0.0,0.0,0.0,0.0,0.0,0.0,0.0,0.0,0.0,0.0,0.0,0.0,0.0,0.0,0.0,0.0,0.0,0.0,0.0,0.0,0.0,0.0,0.0,0.0,0.0,0.0,0.0,0.0,0.0,0.0,0.0,0.0,0.0,0.0,0.0,0.0,0.0,0.0,0.0,0.0,0.0,0.0,0.0,0.0,0.0,0.0,0.0,0.0,0.0,0.0,0.0,0.0,0.0,0.0,0.0,0.0,0.0,0.0,0.0,0.0,0.0,0.0,0.0,0.0,0.0,0.0,0.0,0.0,0.0,0.0,0.0,0.0,0.0,0.0,0.0,0.0,0.0,0.0,0.0,0.0,0.0,0.0,0.0,0.0,0.0,0.0,0.0,0.0,0.0,0.0,0.0,0.0,0.0,0.0,0.0,0.0,0.0,0.0,0.0,0.0,0.0,0.0,0.0,0.0,0.0,0.0,0.0,0.0,0.0,0.0,0.0,0.0,0.0,0.0,0.0,0.0,0.0,0.0,0.0,0.0,0.0,0.0,0.0,0.0,0.0,0.0,0.0,0.0,0.0,0.0,0.0,0.0,0.0,0.0,0.0,0.0,0.0,0.0,0.0,0.0,0.0,0.0,0.0,0.0,0.0,0.0,0.0,0.0,0.0,0.0,0.0,0.0,0.0,0.0,0.0,0.0,0.0,0.0,0.0,0.0,0.0,0.0,0.0,0.0,0.0,0.0,0.0,0.0,0.0,0.0,0.0,0.0,0.0,0.0,0.0,0.0,0.0,0.0,0.0,0.0,0.0,0.0,0.0,0.0,0.0,0.0,0.0,0.0,0.0,0.0,0.0,0.0,0.0,0.0,0.0,0.0,0.0,0.0,0.0,0.0,0.0,0.0,0.0,0.0,0.0,0.0,0.0,0.0,0.0,0.0,0.0,0.0,0.0,0.0,0.0,0.0,0.0,0.0,0.0,0.0,0.0,0.0,0.0,0.0,0.0,0.0,0.0,0.0,0.0,0.0,0.0,0.0,0.0,0.0,0.0,0.0,0.0,0.0,0.0,0.0,0.0,0.0,0.0,0.0,0.0,0.0,0.0,0.0,0.0,0.0,0.0,0.0,0.0,0.0,0.0,0.0,0.0,0.0,0.0,0.0,0.0,0.0,0.0,0.0,0.0,0.0,0.0,0.0,0.0,0.0,0.0,0.0,0.0,0.0,0.0,0.0,0.0,0.0,0.0,0.0,0.0,0.0,0.0,0.0,0.0,0.0,0.0,0.0,0.0,0.0,0.0,0.0,0.0,0.0,0.0,0.0,0.0,0.0,0.0,0.0,0.0,0.0,0.0,0.0,0.0,0.0,0.0,0.0,0.0,0.0,0.0,0.0,0.0,0.0,0.0,0.0,0.0,0.0,0.0,0.0,0.0,0.0,0.0,0.0,0.0,0.0,0.0,0.0,0.0,0.0,0.0,0.0,0.0,0.0,0.0,0.0,0.0,0.0,0.0,0.0,0.0,0.0,0.0,0.0,0.0,0.0,0.0,0.0,0.0,0.0,0.0,0.0,0.0,0.0,0.0,0.0,0.0,0.0,0.0,0.0,0.0,0.0,0.0,0.0,0.0,0.0,0.0,0.0,0.0,0.0,0.0,0.0,0.0,0.0,0.0,0.0,0.0,0.0,0.0,0.0,0.0,0.0,0.0,0.0,0.0,0.0,0.0,0.0,0.0,0.0,0.0,0.0,0.0,0.0,0.0,0.0,0.0,0.0,0.0,0.0,0.0,0.0,0.0,0.0,0.0,0.0,0.0,0.0,0.0,0.0,0.0,0.0,0.0,0.0,0.0,0.0,0.0,0.0,0.0,0.0,0.0,0.0,0.0,0.0,0.0,0.0,0.0,0.0,0.0,0.0,0.0,0.0,0.0,0.0,0.0,0.0,0.0,0.0,0.0,0.0,0.0,0.0,0.0,0.0,0.0,0.0,0.0,0.0,0.0,0.0,0.0,0.0,0.0,0.0,0.0,0.0,0.0,0.0,0.0,0.0,0.0,0.0,0.0,0.0,0.0,0.0,0.0,0.0,0.0,0.0,0.0,0.0,0.0,0.0,0.0,0.0,0.0,0.0,0.0,0.0,0.0,0.0,0.0,0.0,0.0,0.0,0.0,0.0,0.0,0.0,0.0,0.0,0.0,0.0,0.0,0.0,0.0,0.0,0.0,0.0,0.0,0.0,0.0,0.0,0.0,0.0,0.0,0.0,0.0,0.0,0.0,0.0,0.0,0.0,0.0,0.0,0.0,0.0,0.0,0.0,0.0,0.0,0.0,0.0,0.0,0.0,0.0,0.0,0.0,0.0,0.0,0.0,0.0,0.0,0.0,0.0,0.0,0.0,0.0,0.0,0.0,0.0,0.0,0.0,0.0,0.0,0.0,0.0,0.0,0.0,0.0,0.0,0.0,0.0,0.0,0.0,0.0,0.0,0.0,0.0,0.0,0.0,0.0,0.0,0.0,0.0,0.0,0.0,0.0,0.0,0.0,0.0,0.0,0.0,0.0,0.0,0.0,0.0,0.0,0.0,0.0,0.0,0.0,0.0,0.0,0.0,0.0,0.0,0.0,0.0,0.0,0.0,0.0,0.0,0.0,0.0,0.0,0.0,0.0,0.0,0.0,0.0,0.0,0.0,0.0,0.0,0.0,0.0,0.0,0.0,0.0,0.0,0.0,0.0,0.0,0.0,0.0,0.0,0.0,0.0,0.0,0.0,0.0,0.0,0.0,0.0,0.0,0.0,0.0,0.0,0.0,0.0,0.0,0.0,0.0,0.0,0.0,0.0,0.0,0.0,0.0,0.0,0.0,0.0,0.0,0.0,0.0,0.0,0.0,0.0,0.0,0.0,0.0,0.0,0.0,0.0,0.0,0.0,0.0,0.0,0.0,0.0,0.0,0.0,0.0,0.0,0.0,0.0,0.0,0.0,0.0,0.0,0.0,0.0,0.0,0.0,0.0,0.0,0.0,0.0,0.0,0.0,0.0,0.0,0.0,0.0,0.0,0.0,0.0,0.0,0.0,0.0,0.0,0.0,0.0,0.0,0.0,0.0,0.0,0.0,0.0,0.0,0.0,0.0,0.0,0.0,0.0,0.0,0.0,0.0,0.0,0.0,0.0,0.0,0.0,0.0,0.0,0.0,0.0,0.0,0.0,0.0,0.0,0.0,0.0,0.0,0.0,0.0,0.0,0.0,0.0,0.0,0.0,0.0,0.0,0.0,0.0,0.0,0.0,0.0,0.0,0.0,0.0,0.0,0.0,0.0,0.0,0.0,0.0,0.0,0.0,0.0,0.0,0.0,0.0,0.0,0.0,0.0,0.0,0.0,0.0,0.0,0.0,0.0,0.0,0.0,0.0,0.0,0.0,0.0,0.0,0.0,0.0,0.0,0.0,0.0,0.0,0.0,0.0,0.0,0.0,0.0,0.0,0.0,0.0,0.0,0.0,0.0,0.0,0.0,0.0,0.0,0.0,0.0,0.0,0.0,-3.4258,-3.2344,0.0,0.0,0.0,0.0,0.0,0.0,0.0,0.0,0.0,0.0,0.0,0.0,0.0,0.0,0.0,0.0,0.0,0.0,0.0,0.0,0.0,0.0,0.0,-2.2859,-2.3597,-2.5298,-2.5487,-2.5508,-2.5508,0.0,0.0,0.0,0.0,0.0,-2.4092,-2.4079,-2.4679,-2.597,-2.6417,-2.7509,-2.9191,-2.8359,-2.712,-2.5547,0.0,0.0,0.0,0.0,0.0,0.0,0.0,0.0,0.0,0.0,0.0,0.0,0.0,0.0,0.0,0.0,0.0,0.0,0.0,0.0,0.0,0.0,0.0,0.0,0.0,0.0,0.0,0.0,0.0,0.0,0.0,0.0,0.0,0.0,0.0,0.0,0.0,0.0,0.0,0.0,0.0,0.0,0.0,0.0,0.0,0.0,0.0,0.0,0.0,0.0,0.0,0.0,0.0,0.0,0.0,0.0,0.0,0.0,0.0,0.0,0.0,0.0,0.0,0.0,0.0,0.0,0.0,0.0,0.0,0.0,-3.9141,-3.6992,0.0,0.0,0.0,0.0,0.0,0.0,0.0,0.0,0.0,0.0,0.0,0.0,0.0,0.0,0.0,0.0,0.0,0.0,0.0,0.0,0.0,-2.0123,-2.2547,-2.2983,-2.3821,-2.5554,-2.5592,-2.5571,-2.5718,-2.5586,0.0,0.0,0.0,-2.5403,-2.5412,-2.5491,-2.6757,-2.9287,-3.0031,-3.212,-3.5485,-3.4613,-3.2812,-3.0194,-2.8008,0.0,0.0,0.0,0.0,0.0,0.0,0.0,0.0,0.0,0.0,0.0,0.0,0.0,0.0,0.0,0.0,0.0,0.0,0.0,0.0,0.0,0.0,0.0,0.0,0.0,0.0,0.0,0.0,0.0,0.0,0.0,0.0,0.0,0.0,0.0,0.0,0.0,0.0,0.0,0.0,0.0,0.0,0.0,0.0,0.0,0.0,0.0,0.0,0.0,0.0,0.0,0.0,0.0,0.0,0.0,0.0,0.0,0.0,0.0,0.0,0.0,0.0,0.0,-4.7261,-4.8084,-4.8125,-4.8828,-4.957,-4.9961,-4.4961,-4.3007,-4.3004,-3.9176,0.0,0.0,0.0,0.0,0.0,0.0,0.0,0.0,0.0,0.0,0.0,0.0,0.0,0.0,0.0,0.0,0.0,0.0,0.0,-2.0812,-2.2586,-2.3532,-2.4723,-2.6498,-2.5976,-2.5878,-2.6584,-2.59,0.0,-2.5501,-2.5412,-2.5387,-2.5398,-2.6077,-2.7361,-2.931,-3.3137,-3.643,-3.9081,-3.8178,-3.7944,-3.8102,-3.4138,-3.2305,-3.2031,0.0,0.0,0.0,0.0,0.0,0.0,0.0,0.0,0.0,0.0,0.0,0.0,0.0,0.0,0.0,0.0,0.0,0.0,0.0,0.0,0.0,0.0,0.0,0.0,0.0,0.0,0.0,0.0,0.0,0.0,0.0,0.0,0.0,0.0,0.0,0.0,0.0,0.0,0.0,0.0,0.0,-3.082,-3.3398,0.0,0.0,0.0,0.0,0.0,0.0,0.0,0.0,0.0,0.0,0.0,0.0,0.0,-4.6114,-4.7434,-5.0791,-5.2514,-5.2641,-5.4397,-5.5225,-5.5233,-5.535,-5.5468,-5.5547,-5.4726,0.0,-4.6758,-4.4687,0.0,0.0,0.0,0.0,0.0,0.0,0.0,0.0,0.0,0.0,0.0,0.0,0.0,0.0,0.0,0.0,0.0,0.0,0.0,0.0,0.0,-2.5026,-2.6281,-2.81,-2.8841,-2.8751,-2.7642,-2.7679,-2.7062,-2.556,-2.5476,-2.5669,-2.6056,-2.7379,-3.0124,-3.4342,-3.8251,-4.1042,-4.2638,-4.1722,-4.1796,-4.2549,-4.018,-3.7481,-3.4571,-3.2184,0.0,0.0,0.0,0.0,0.0,0.0,0.0,0.0,0.0,0.0,0.0,0.0,0.0,0.0,0.0,0.0,0.0,0.0,0.0,0.0,0.0,0.0,0.0,0.0,0.0,0.0,0.0,0.0,0.0,0.0,0.0,0.0,0.0,0.0,0.0,0.0,0.0,0.0,0.0,-3.0508,-3.3984,-3.4648,-3.5351,-3.5234,0.0,0.0,0.0,0.0,0.0,0.0,0.0,0.0,0.0,-4.7375,-4.9513,-5.1222,-5.2429,-5.4888,-5.6144,-5.6152,-5.791,-5.8463,-5.8002,-5.851,-5.8471,-5.8004,-5.8004,-5.6247,-5.3122,-4.992,-4.6599,-4.3311,0.0,0.0,0.0,0.0,-4.0027,-3.9873,0.0,0.0,0.0,0.0,0.0,0.0,0.0,0.0,0.0,0.0,0.0,0.0,-2.5385,-2.681,-2.8336,-3.0153,-3.132,-3.1273,-2.956,-2.9262,-2.8264,-2.6243,-2.5758,-2.5952,-2.6975,-2.9756,-3.3878,-3.9356,-4.2387,-4.4378,-4.5222,-4.459,-4.4623,-4.5205,-4.453,-4.1964,-3.7933,-3.5636,-3.3066,-3.0186,0.0,0.0,0.0,0.0,0.0,0.0,0.0,0.0,0.0,0.0,0.0,0.0,0.0,0.0,0.0,0.0,0.0,0.0,0.0,0.0,0.0,0.0,0.0,0.0,0.0,0.0,0.0,0.0,0.0,0.0,0.0,0.0,0.0,0.0,0.0,0.0,0.0,-3.4023,-3.6992,-3.6992,-3.8906,-3.9297,0.0,0.0,0.0,0.0,0.0,0.0,-4.7148,-4.8748,-5.0658,-5.3,-5.4512,-5.5714,-5.6606,-5.805,-5.8796,-5.8804,-6.0093,-6.0409,-5.9792,-6.0456,-6.0379,-5.9755,-5.9755,-5.9287,-5.8232,-5.4332,-5.0971,-4.8111,-4.6588,-4.5061,-4.3886,-4.5176,-4.5254,-4.506,0.0,0.0,0.0,0.0,0.0,0.0,0.0,0.0,0.0,0.0,0.0,-2.4625,-2.6351,-2.8777,-3.097,-3.2672,-3.2248,-3.2163,-3.2796,-2.9904,-2.8098,-2.7965,-2.6363,-2.6272,-2.7977,-3.3724,-3.8497,-4.2208,-4.402,-4.5351,-4.6211,-4.6119,-4.6105,-4.6142,-4.6017,-4.5361,-4.4065,-3.989,-3.7589,-3.6147,-3.0342,0.0,0.0,0.0,0.0,0.0,0.0,0.0,0.0,0.0,0.0,0.0,0.0,0.0,0.0,0.0,0.0,0.0,0.0,0.0,0.0,0.0,0.0,0.0,0.0,0.0,0.0,0.0,0.0,0.0,0.0,0.0,0.0,0.0,0.0,0.0,0.0,0.0,0.0,-4.2969,-4.4101,0.0,0.0,0.0,0.0,-4.5703,-4.8242,-5.082,-5.3398,-5.4414,-5.5741,-5.753,-5.8388,-5.928,-6.0119,-6.1056,-6.1486,-6.1486,-6.1603,-6.161,-6.1582,-6.1621,-6.1624,-6.1553,-6.1553,-6.1083,-6.0068,-5.7412,-5.526,-5.3536,-5.2599,-5.1696,-5.0906,-5.0984,-5.099,-5.0956,0.0,0.0,0.0,0.0,0.0,-1.5769,-1.743,-1.8164,-1.9431,-2.2004,-2.4312,-2.6544,-2.8808,-3.1343,-3.3572,-3.5377,-3.5771,-3.5396,-3.4093,-3.1825,-3.0526,-3.049,-2.8846,-3.0067,-3.4583,-3.7942,-4.1106,-4.4004,-4.5232,-4.6016,-4.6289,-4.6237,-4.6169,-4.6134,-4.606,-4.5823,-4.5254,-4.214,-3.9696,-3.754,-3.3751,-3.0236,0.0,0.0,0.0,0.0,0.0,0.0,0.0,0.0,0.0,0.0,0.0,0.0,0.0,0.0,0.0,0.0,0.0,0.0,0.0,0.0,0.0,0.0,0.0,0.0,0.0,0.0,0.0,0.0,0.0,0.0,0.0,0.0,0.0,0.0,0.0,0.0,0.0,-4.6797,-4.8789,0.0,-4.832,-4.8984,-4.9961,-5.1172,-5.3164,-5.5195,-5.7226,-5.8125,-5.9138,-6.0303,-6.061,-6.0915,-6.1213,-6.1522,-6.1718,-6.1718,-6.1718,-6.1681,-6.1688,-6.1688,-6.1688,-6.1692,-6.1692,-6.1536,-6.1184,-6.0247,-5.8531,-5.6426,-5.6113,-5.5132,-5.3912,-5.3912,-5.3563,-5.3057,0.0,0.0,0.0,0.0,-1.5192,-1.5769,-1.743,-1.8434,-2.0012,-2.2855,-2.5466,-2.8121,-3.0923,-3.3506,-3.5746,-3.7552,-3.7968,-3.7434,-3.5809,-3.3553,-3.2299,-3.2226,-3.174,-3.3792,-3.8715,-4.0859,-4.3228,-4.581,-4.6444,-4.6874,-4.7105,-4.6779,-4.6589,-4.6484,-4.6163,-4.5958,-4.577,-4.4122,-4.2097,-3.973,-3.6906,-3.4065,-3.1281,0.0,0.0,0.0,0.0,0.0,0.0,0.0,0.0,0.0,0.0,0.0,0.0,0.0,0.0,0.0,0.0,0.0,0.0,0.0,0.0,0.0,0.0,0.0,0.0,0.0,0.0,0.0,0.0,0.0,0.0,0.0,0.0,0.0,0.0,0.0,-4.8164,-4.957,-5.2266,-5.3555,-5.2383,-5.3594,-5.4805,-5.5703,-5.707,-5.8515,-5.9961,-6.0546,-6.1091,-6.1673,-6.1708,-6.1701,-6.1686,-6.1686,-6.1683,-6.1718,-6.1718,-6.1718,-6.1718,-6.1718,-6.1718,-6.1718,-6.1718,-6.1718,-6.1718,-6.1718,-6.067,-5.9076,-5.8802,-5.7822,-5.6567,-5.6567,-5.602,-5.524,0.0,0.0,0.0,-1.5186,-1.5192,-1.5769,-1.743,-1.8472,-2.0242,-2.3667,-2.6356,-2.9236,-3.2583,-3.5199,-3.743,-3.9169,-3.8498,-3.798,-3.7942,-3.4913,-3.3132,-3.3238,-3.5002,-3.724,-3.991,-4.2367,-4.4952,-4.7617,-4.7617,-4.7965,-4.8677,-4.7899,-4.7445,-4.7252,-4.6431,-4.6035,-4.5986,-4.5867,-4.4871,-4.3099,-3.9769,-3.8404,-3.7686,0.0,0.0,0.0,0.0,0.0,0.0,0.0,0.0,0.0,0.0,0.0,0.0,0.0,0.0,0.0,0.0,0.0,0.0,0.0,0.0,0.0,0.0,0.0,0.0,0.0,0.0,0.0,0.0,0.0,0.0,0.0,0.0,0.0,-4.3906,-4.7617,-5.0664,-5.1523,-5.4648,-5.6055,-5.4414,-5.6523,-5.8359,-5.9219,-6.0,-6.082,-6.164,-6.1719,-6.1758,-6.1756,-6.1756,-6.1791,-6.1777,-6.1777,-6.1772,-6.1759,-6.1759,-6.172,-6.1681,-6.172,-6.172,-6.172,-6.1718,-6.1718,-6.1718,-6.1718,-6.1718,-6.1601,-6.0783,-5.9924,-5.9141,-5.9141,-5.8558,-5.7701,0.0,0.0,-1.5171,-1.5216,-1.5186,-1.5769,-1.743,-1.8965,-2.0927,-2.3744,-2.739,-3.0775,-3.3551,-3.6122,-3.8084,-3.9207,-3.8515,-3.776,-3.7171,-3.4545,-3.3909,-3.5836,-3.8766,-4.1353,-4.3456,-4.4195,-4.5535,-4.7617,-4.7617,-4.7965,-4.8677,-4.841,-4.7918,-4.7198,-4.6926,-4.6442,-4.5861,-4.5821,-4.5536,-4.4917,-4.2808,-4.0488,-3.8064,0.0,0.0,0.0,0.0,0.0,0.0,0.0,0.0,0.0,0.0,0.0,0.0,0.0,0.0,0.0,0.0,0.0,0.0,0.0,0.0,0.0,0.0,0.0,0.0,0.0,0.0,0.0,0.0,0.0,0.0,0.0,0.0,-4.8398,-4.8398,-5.1562,-5.4687,-5.6797,-5.8437,-5.9414,-5.957,-6.0234,-6.0742,-6.0976,-6.1211,-6.1445,-6.168,-6.2305,-6.2656,-6.2654,-6.3279,-6.3589,-6.3581,-6.3581,-6.3268,-6.264,-6.264,-6.2327,-6.1702,-6.1696,-6.1694,-6.1694,-6.1683,-6.1718,-6.1718,-6.1718,-6.1718,-6.1679,-6.1444,-6.0822,-6.0041,-6.0041,-5.907,-5.7791,0.0,-1.5065,-1.5143,-1.5177,-1.5497,-1.6195,-1.7507,-1.9465,-2.1735,-2.4274,-2.8,-3.1385,-3.3936,-3.6161,-3.7661,-3.8161,-3.7738,-3.6976,-3.5803,-3.5027,-3.5797,-3.8485,-4.1207,-4.3396,-4.4857,-4.5651,-4.6715,-4.8125,-4.8516,-4.9055,-4.9739,-4.9315,-4.8642,-4.7695,-4.7273,-4.6619,-4.5807,-4.5867,-4.5854,-4.5708,-4.4763,-4.3188,-4.1251,-3.9314,-3.792,-3.6674,-3.4782,-3.3943,-3.3566,-3.2678,0.0,0.0,0.0,0.0,0.0,0.0,0.0,0.0,0.0,0.0,0.0,0.0,0.0,0.0,0.0,0.0,0.0,0.0,0.0,0.0,0.0,0.0,0.0,0.0,-4.918,-5.2734,-5.3828,-5.5664,-5.7617,-5.9492,-6.043,-6.1133,-6.164,-6.1719,-6.1719,-6.1719,-6.2031,-6.2226,-6.2226,-6.3086,-6.3555,-6.3554,-6.4023,-6.4295,-6.4291,-6.4291,-6.4056,-6.3545,-6.3154,-6.2725,-6.2217,-6.1862,-6.1702,-6.1702,-6.1692,-6.1688,-6.1688,-6.1681,-6.1718,-6.1718,0.0,0.0,0.0,0.0,-5.9743,-5.8775,0.0,-1.4969,-1.5058,-1.5168,-1.592,-1.6776,-1.7584,-1.9773,-2.2269,-2.4846,-2.8077,-3.1077,-3.3628,-3.5391,-3.6462,-3.6577,-3.6577,-3.6007,-3.4719,-3.6164,-3.8284,-4.099,-4.2735,-4.4061,-4.5049,-4.6712,-4.8007,-4.8867,-4.9725,-5.0523,-5.1187,-5.0412,-4.9498,-4.8508,-4.7657,-4.6767,-4.5969,-4.5968,-4.5899,-4.5795,-4.5848,-4.5783,-4.5324,-4.235,-4.1585,-4.1723,-3.8661,-3.7168,-3.6511,-3.5663,0.0,0.0,0.0,0.0,0.0,0.0,0.0,0.0,0.0,0.0,0.0,0.0,0.0,0.0,0.0,0.0,0.0,0.0,0.0,0.0,0.0,0.0,0.0,0.0,-5.3008,-5.6562,-5.8984,-5.9414,-5.9765,-6.0469,-6.1211,-6.1719,-6.1719,-6.1719,-6.1758,-6.1836,-6.2578,-6.3047,-6.3125,0.0,0.0,0.0,0.0,-6.4609,-6.4608,-6.4608,-6.4528,-6.4445,-6.3547,-6.3117,-6.2961,-6.2101,-6.171,-6.1709,-6.1702,-6.1699,-6.1699,-6.1688,-6.1681,-6.1718,-6.1718,-6.1718,-6.1603,-6.0835,-6.0492,-6.0185,0.0,-1.5019,-1.5051,-1.5058,-1.5846,-1.6776,-1.7584,-1.9311,-2.1466,-2.4009,-2.6703,-2.9352,-3.1929,-3.366,-3.4968,-3.5654,-3.5731,-3.6181,-3.725,-3.8311,-4.0075,-4.2767,-4.3918,-4.4943,-4.5947,-4.6855,-4.7796,-4.8729,-4.955,-5.0377,-5.112,-5.0964,-5.0338,-4.9397,-4.8546,-4.7657,-4.6806,-4.6116,-4.5824,-4.5788,-4.5749,-4.5295,-4.4608,-4.3928,-4.3447,-4.2854,-4.1531,-4.1456,-4.1863,-4.0935,-3.9097,-3.7139,-3.683,0.0,0.0,0.0,0.0,0.0,0.0,0.0,0.0,0.0,0.0,0.0,0.0,0.0,0.0,0.0,0.0,0.0,0.0,0.0,0.0,-5.2461,-5.6055,-5.8867,-6.0,-6.0781,-6.1289,-6.1445,-6.1601,-6.1719,-6.1719,-6.1719,-6.1992,-6.2695,-6.289,-6.332,-6.4023,-6.4883,-6.5351,-6.5351,-6.6015,-6.6406,-6.6406,-6.6406,-6.6054,-6.5351,-6.4453,0.0,-6.2968,-6.2107,-6.1716,-6.1716,-6.171,-6.1707,-6.1707,-6.1699,-6.169,-6.1718,-6.1718,-6.1718,-6.1681,-6.1499,-6.0996,-6.0336,-1.478,-1.49,-1.5007,-1.504,-1.6188,-1.7237,-1.7622,-1.9504,-2.1658,-2.3821,-2.5933,-2.8044,-3.016,-3.1545,-3.2314,-3.2314,-3.3083,-3.4693,-3.7315,-3.9096,-4.1248,-4.3883,-4.4882,-4.5584,-4.6098,-4.7306,-4.8178,-4.8641,-4.9932,-5.0724,-5.108,-5.108,-5.0352,-4.9049,-4.8585,-4.7688,-4.6436,-4.6028,-4.5793,-4.5735,-4.5749,-4.5441,-4.4999,-4.5024,-4.4831,-4.4453,-4.3996,-4.3673,-4.3379,-4.3358,-4.1694,-3.9556,-3.9165,-3.7013,-3.412,0.0,0.0,0.0,0.0,0.0,0.0,0.0,0.0,0.0,0.0,0.0,0.0,0.0,0.0,-4.3359,0.0,0.0,-5.3086,-5.6094,-5.8398,-6.0078,-6.0937,-6.1445,-6.1719,-6.1719,-6.1719,-6.1719,-6.1719,-6.2109,-6.2539,-6.2969,-6.3828,-6.4492,-6.4922,-6.5781,-6.625,-6.625,-6.668,-6.6914,-6.6914,-6.6914,-6.668,-6.625,-6.5351,-6.4492,-6.3633,-6.2734,-6.2109,-6.1718,-6.1715,-6.1711,-6.1708,-6.1701,-6.1697,-6.1696,-6.1696,-6.169,-6.1681,-6.1694,-6.1427,-6.1002,-1.4696,-1.494,-1.5165,-1.5289,-1.6638,-1.7724,-1.793,-1.985,-2.1889,-2.3624,-2.5164,-2.6736,-2.8434,-2.939,-2.9698,-2.9165,-3.0876,-3.3453,-3.689,-3.9393,-4.1931,-4.4703,-4.558,-4.6002,-4.6002,-4.7518,-4.8413,-4.8565,-4.9954,-5.0719,-5.081,-5.0661,-4.9789,-4.8392,-4.8229,-4.7364,-4.6027,-4.5938,-4.58,-4.5709,-4.5718,-4.5712,-4.5594,-4.5684,-4.5687,-4.5688,-4.5542,-4.4544,-4.3401,-4.4091,-4.2762,-4.0708,-4.0252,-3.8944,-3.6985,-3.3964,-3.3284,0.0,0.0,0.0,0.0,0.0,0.0,0.0,0.0,0.0,-4.0664,-4.2773,-4.5625,-4.8672,-5.1601,-5.4297,-5.6797,-5.9062,-6.0117,-6.0898,-6.1601,-6.1719,-6.1719,-6.1719,-6.1719,-6.1719,-6.1719,-6.25,-6.3086,-6.3242,-6.4726,-6.5664,-6.5859,-6.6523,-6.6914,-6.6914,-6.6914,-6.6914,-6.6914,-6.6914,-6.6914,-6.6875,-6.6015,-6.5234,-6.4531,-6.3476,-6.2617,-6.1953,-6.1757,-6.1716,-6.171,-6.1705,-6.1705,-6.1709,-6.1709,-6.1701,-6.1688,-6.1697,-6.1704,-6.1592,0.0,-1.5331,-1.5937,-1.6054,-1.6911,-1.7907,-1.8734,-1.9735,-2.1043,-2.274,-2.3778,-2.501,-2.6697,-2.7659,-2.8434,-2.905,-3.146,-3.4384,-3.7745,-3.9727,-4.2234,-4.5525,-4.5885,-4.6002,-4.6002,-4.6901,-4.7761,-4.8494,-4.8658,-4.9093,-4.9845,-4.9079,-4.86,-4.8353,-4.7588,-4.714,-4.6901,-4.6074,-4.5726,-4.5701,-4.5637,-4.5612,-4.5594,-4.5684,-4.5687,-4.5611,-4.4908,-4.4056,-4.3324,-4.3401,-4.2286,-4.093,-4.1606,-4.067,-3.8939,-3.7105,0.0,-3.4386,-3.4117,-3.4916,-3.6601,-3.9687,-3.9375,-4.0078,0.0,0.0,-4.6367,-4.9609,-5.1797,-5.3476,-5.4648,-5.6992,-5.9101,-6.0117,-6.0976,-6.1601,-6.168,-6.1719,-6.1719,-6.1719,-6.1719,-6.1719,-6.1719,-6.2499,-6.3319,-6.4101,-6.5038,-6.5936,-6.6719,-6.6836,-6.6914,-6.6914,-6.6914,-6.6914,-6.6914,-6.6914,-6.6914,-6.6875,-6.6015,-6.5547,-6.539,-6.375,-6.2969,-6.2812,-6.2031,-6.1718,-6.1716,-6.1716,-6.1713,-6.1709,-6.1709,-6.1708,-6.1707,-6.1708,-6.1708,-6.1671,0.0,-1.5673,-1.6271,-1.7331,-1.7947,-1.8438,-1.8815,-1.9703,-2.0731,-2.1889,-2.235,-2.324,-2.4971,-2.589,-2.6505,-2.6851,-3.0245,-3.3354,-3.5781,-3.9447,-4.2607,-4.5047,-4.5635,-4.5874,-4.5893,-4.6735,-4.7356,-4.7708,-4.8193,-4.8625,-4.8933,-4.8585,-4.8152,-4.7627,-4.7264,-4.68,-4.6251,-4.5872,-4.5684,-4.5659,-4.5603,-4.5594,-4.5565,-4.5123,-4.4662,-4.4214,-4.3866,-4.2942,0.0,-4.1854,-4.139,-4.0784,-4.0643,-4.0144,-3.9267,-3.7605,-3.7362,0.0,-4.011,-4.0585,-4.1211,0.0,-4.5156,-4.6211,-4.9453,-5.0117,-5.0586,-5.25,-5.3906,-5.5312,-5.7226,-5.8476,-5.9648,0.0,-6.1445,-6.1719,-6.1719,-6.1719,-6.1523,-6.1015,-6.1406,-6.1719,-6.1719,-6.25,-6.3359,-6.4219,-6.5117,-6.5976,-6.6836,-6.6914,-6.6914,-6.6914,-6.6914,-6.6914,-6.6914,-6.6914,-6.6914,-6.6914,-6.6523,-6.6094,-6.5586,-6.4844,-6.3945,-6.2969,-6.207,-6.1718,-6.1718,-6.1717,-6.1717,-6.1717,-6.1717,-6.1717,-6.1716,-6.1711,-6.1711,-6.1714,0.0,-1.6075,-1.6704,-1.8179,-1.8806,-1.9106,-1.9138,-1.9794,-2.0577,-2.1389,-2.1696,-2.2504,-2.424,-2.4966,-2.5308,-2.5308,-2.8859,-3.1946,-3.3906,-3.8412,-4.2,-4.4256,-4.5085,-4.5628,-4.5848,-4.6529,-4.6944,-4.7115,-4.7527,-4.7837,-4.8043,-4.7804,-4.7356,-4.6754,-4.6731,-4.6336,-4.5701,-4.5684,-4.562,-4.5594,-4.5594,-4.5479,-4.5188,-4.436,-4.3242,-4.2145,-4.2188,-4.1139,-3.9649,-3.9191,-3.9036,-3.8926,-3.8291,-3.8461,-3.8727,-3.804,-3.928,-4.135,-4.3671,0.0,0.0,-4.7734,-4.9609,-5.1016,-5.1484,-5.2539,-5.3672,-5.4531,-5.539,-5.6601,-5.8476,-5.9219,-5.9922,-6.1133,-6.1523,-6.1719,-6.1719,-6.1484,-6.1211,-6.082,-6.1094,-6.1445,-6.168,-6.25,-6.3359,-6.4219,-6.5117,-6.5976,-6.6836,-6.6914,-6.6914,-6.6914,-6.6914,-6.6914,-6.6914,-6.6914,-6.6914,-6.6914,-6.6914,-6.6562,-6.5937,-6.5469,-6.4414,-6.2969,-6.207,-6.1718,-6.1719,-6.1718,-6.1718,-6.1719,-6.1719,-6.1719,-6.1719,-6.1716,-6.1716,-6.1718,0.0,0.0,-1.7337,-1.816,-1.9168,-1.9893,-2.0041,-2.0212,-2.0577,-2.1389,-2.2235,-2.3389,-2.5077,-2.5308,-2.5308,-2.5308,-2.7816,-3.0466,-3.2967,-3.6462,-3.9932,-4.3301,-4.4319,-4.5196,-4.5991,-4.6025,-4.6407,-4.7115,-4.6271,-4.631,-4.7115,-4.6266,-4.5865,-4.5819,-4.578,-4.574,-4.5701,-4.5612,-4.5594,-4.5594,-4.5594,-4.5111,-4.4336,-4.3458,-4.1615,-3.9522,-3.9605,-3.8489,-3.6787,-3.5129,-3.4587,-3.4603,-3.4645,-3.5767,0.0,-3.9137,-4.1466,-4.3343,0.0,0.0,-4.7891,-4.9687,-5.1367,-5.3086,-5.4765,-5.5195,-5.5469,-5.6328,-5.7226,-5.7851,-5.793,-5.9258,-6.039,-6.043,-6.1133,-6.1719,-6.1719,-6.0976,-6.0742,-6.1562,-6.0937,-6.0781,0.0,-6.2499,-6.3358,-6.4219,-6.5116,-6.5975,-6.6836,-6.6914,-6.6914,-6.6914,-6.6914,-6.6914,-6.6914,-6.6914,-6.6914,-6.6914,-6.6914,-6.6875,-6.6797,-6.5117,-6.3867,-6.2969,-6.207,-6.1719,-6.1719,-6.1719,-6.1719,-6.1719,-6.1719,-6.1719,-6.1719,-6.1719,-6.1719,-6.1719,0.0,0.0,0.0,-1.9076,-1.9556,-1.9877,-1.9992,-2.0195,-2.0577,-2.1389,-2.2778,0.0,0.0,0.0,0.0,0.0,-2.7241,-2.9274,-3.1254,-3.5176,-3.8486,-4.0792,-4.3368,-4.4856,-4.5132,-4.5765,-4.6118,-4.6232,-4.6015,-4.6041,-4.6228,-4.595,-4.5796,-4.5742,-4.5717,-4.5684,-4.5612,-4.5603,-4.5594,-4.5556,-4.4979,-4.4594,-4.4188,-4.2834,-4.0391,-3.7527,0.0,-3.5317,-3.4212,-3.3053,-3.3053,-3.3538,-3.3641,0.0,0.0,-3.8961,-4.2064,-4.4842,-4.6328,0.0,-5.0547,-5.2305,-5.3594,-5.4726,-5.5898,-5.6172,-5.6094,-5.5781,-5.5508,-5.5508,-5.6055,-5.664,-5.7578,-5.9336,-6.0312,-6.1055,-6.1601,-6.1445,-6.1172,-6.0859,-6.1094,0.0,0.0,0.0,0.0,-6.3359,-6.4258,-6.5117,-6.5976,-6.6601,-6.6914,-6.6914,-6.6914,-6.6914,-6.6914,-6.6914,-6.6914,-6.6914,-6.6914,-6.6914,-6.6836,-6.5078,-6.414,-6.3789,-6.2344,-6.1719,-6.1719,-6.1719,-6.1719,-6.1719,-6.1719,-6.1719,-6.1719,-6.1719,-6.1719,-6.1719,0.0,0.0,0.0,0.0,0.0,0.0,0.0,0.0,0.0,0.0,0.0,0.0,0.0,0.0,0.0,0.0,0.0,-2.8118,-2.9515,-3.2783,-3.5636,-3.7721,-3.9901,-4.1505,-4.2408,-4.2715,-4.3253,-4.3993,-4.4053,-4.4383,-4.4877,-4.4862,-4.4824,-4.4776,-4.476,-4.4735,-4.471,-4.471,-4.471,-4.4594,-4.3431,-4.2786,-4.2263,-4.0007,-3.7448,0.0,-3.2727,-3.167,-3.1162,-3.0588,-3.1177,-3.2256,-3.2629,0.0,-3.7396,-4.0038,-4.3242,-4.6445,-4.875,-5.0586,-5.2266,-5.4023,-5.5117,-5.5898,-5.6484,-5.6367,-5.5898,-5.5039,-5.4141,-5.3594,-5.3867,-5.4141,-5.5234,-5.7851,-5.8984,-6.0039,-6.1484,-6.1445,-6.1133,-6.0898,-6.1094,-6.1133,0.0,0.0,0.0,-6.293,-6.3828,-6.4687,-6.5547,-6.6445,-6.6914,-6.6914,-6.6914,-6.6914,-6.6914,-6.6914,-6.6914,-6.6914,-6.6914,-6.6914,-6.6836,-6.5078,-6.4297,-6.4219,-6.2461,-6.1719,-6.1719,-6.1719,-6.1719,-6.1719,-6.1719,-6.1719,-6.1719,-6.1719,-6.1719,-6.1719,0.0,0.0,0.0,0.0,0.0,0.0,0.0,0.0,0.0,0.0,0.0,0.0,0.0,0.0,0.0,0.0,0.0,0.0,-2.7868,-2.9515,-3.1615,-3.4262,-3.4556,-3.5744,-3.8109,-3.7502,-3.8277,-4.057,-4.057,-4.1374,-4.2941,-4.2865,-4.2842,-4.2842,-4.2832,-4.2854,-4.2854,-4.2854,-4.2854,-4.2701,-4.0939,-3.98,-3.8751,-3.5412,-3.3088,-3.1323,-2.8841,-2.7916,-2.7865,-2.7967,0.0,0.0,0.0,0.0,0.0,-4.2383,-4.5117,-4.8164,-4.9961,-5.168,-5.3359,-5.5039,-5.6055,-5.664,-5.6562,-5.5859,-5.4961,-5.3984,-5.3086,-5.2148,0.0,0.0,-5.3359,-5.5976,-5.7226,-5.8789,-6.1328,-6.0976,-6.0781,0.0,0.0,0.0,0.0,0.0,0.0,-6.3008,0.0,-6.4687,-6.5547,-6.6445,-6.6914,-6.6914,-6.6914,-6.6914,-6.6914,-6.6914,-6.6914,-6.6914,-6.6914,-6.6914,-6.6836,-6.5078,-6.4297,-6.4219,-6.2461,-6.1719,-6.1719,-6.1719,-6.1719,-6.1719,-6.1719,-6.1719,-6.1719,-6.1719,-6.1719,-6.1719,0.0,0.0,0.0,0.0,0.0,0.0,0.0,0.0,0.0,0.0,0.0,0.0,0.0,0.0,0.0,0.0,0.0,0.0,-2.6901,-2.8625,-3.0207,-3.1491,-3.4082,-3.5751,-3.6362,-3.7375,-3.8208,-3.8756,-3.8756,-3.8974,-3.9403,-3.9389,-3.9367,-3.9292,-3.9284,-3.9315,-3.9315,-3.9315,-3.9315,-3.9161,-3.7469,-3.6661,-3.6245,-3.4052,-3.1788,-2.9688,-2.9017,-2.7978,0.0,0.0,0.0,0.0,0.0,0.0,-4.2656,0.0,0.0,-5.0937,-5.3359,-5.5273,-5.668,-5.7148,-5.7383,-5.7226,-5.5937,-5.4961,-5.3711,-5.1601,-4.9961,-4.8437,0.0,0.0,0.0,-5.3281,-5.6055,0.0,-6.1328,-6.1523,0.0,-6.168,0.0,-6.2422,-6.2656,-6.3242,0.0,0.0,-6.418,-6.4687,-6.5547,-6.6445,-6.6914,-6.6914,-6.6914,-6.6914,-6.6914,-6.6914,-6.6914,-6.6914,-6.6914,-6.6914,-6.6836,-6.5078,-6.4297,-6.4219,-6.2461,-6.1719,-6.1719,-6.1719,-6.1719,-6.1719,-6.1719,-6.1719,-6.1719,-6.1719,-6.1719,-6.1719,0.0,0.0,0.0,0.0,0.0,0.0,0.0,0.0,0.0,0.0,0.0,0.0,0.0,0.0,0.0,0.0,0.0,0.0,0.0,-2.6968,-2.7924,-2.8775,-3.0382,-3.1592,-3.2318,-3.3587,-3.4383,-3.4731,-3.5464,-3.5804,-3.5817,-3.5817,-3.5803,-3.5776,-3.5776,-3.5776,-3.5776,-3.5776,-3.5776,0.0,0.0,-3.3269,-3.3038,-3.0929,-2.9236,-2.8005,0.0,0.0,0.0,0.0,0.0,-3.9231,-4.1893,-4.3892,-4.5781,-4.8476,0.0,-5.3516,-5.5351,-5.7148,-5.8398,-5.8008,-5.7617,-5.6758,-5.4648,-5.293,-5.0937,-4.7969,-4.625,0.0,0.0,0.0,0.0,0.0,0.0,0.0,-6.0703,-6.1445,-6.1836,0.0,-6.2695,0.0,-6.3515,-6.4023,-6.4453,0.0,-6.4883,-6.5078,-6.5586,-6.6445,-6.6914,-6.6914,-6.6914,-6.6914,-6.6914,-6.6914,-6.6914,-6.6914,-6.6914,-6.6914,-6.6836,-6.5078,-6.4297,-6.4219,-6.2461,-6.1719,-6.1719,-6.1719,-6.1719,-6.1719,-6.1719,-6.1719,-6.1719,-6.1719,-6.1719,-6.1719,0.0,0.0,0.0,0.0,0.0,0.0,0.0,0.0,0.0,0.0,0.0,0.0,0.0,0.0,0.0,0.0,0.0,0.0,0.0,0.0,-2.5663,-2.6493,-2.5905,-2.6288,-2.7774,-2.8603,-2.9366,-3.0077,-3.1506,-3.2237,-3.2237,-3.2237,-3.2237,-3.2237,-3.2237,-3.2237,-3.2237,-3.2237,-3.2237,-3.2122,-3.0654,-3.0077,-2.9846,0.0,0.0,0.0,0.0,0.0,0.0,0.0,-4.0903,-4.2029,-4.4653,-4.7196,-4.957,-5.125,-5.3516,-5.5703,-5.668,-5.8125,-5.914,-5.8281,-5.7344,-5.5898,-5.3164,-5.0391,-4.7422,-4.4062,0.0,-4.1016,-3.8672,-4.168,-4.543,-4.8281,0.0,-5.6211,-5.9883,-6.1055,-6.1875,-6.289,-6.3086,-6.3515,-6.4375,-6.457,-6.4961,-6.5703,-6.5781,-6.5781,-6.5781,-6.6484,-6.6914,-6.6914,-6.6914,-6.6914,-6.6914,-6.6914,-6.6914,-6.6914,-6.6914,-6.6914,-6.6836,-6.5078,-6.4297,-6.4219,-6.2461,-6.1719,-6.1719,-6.1719,-6.1719,-6.1719,-6.1719,-6.1719,-6.1719,-6.1719,-6.1719,-6.1719,0.0,0.0,0.0,0.0,0.0,0.0,0.0,0.0,0.0,0.0,-2.4543,-2.4548,0.0,0.0,0.0,0.0,0.0,0.0,0.0,0.0,0.0,-2.5529,-2.6107,-2.653,-2.6843,-2.7691,0.0,0.0,0.0,-2.878,-2.878,-2.878,-2.878,-2.878,-2.878,-2.878,-2.878,-2.878,-2.878,-2.8736,-2.8467,-2.8313,-2.8275,-2.7852,0.0,0.0,0.0,0.0,0.0,0.0,-4.1496,-4.5566,-4.8245,-4.9944,-5.1328,-5.3047,-5.4883,-5.6719,-5.832,-5.9453,-6.0,-5.918,-5.7773,-5.5742,-5.2383,-4.8555,0.0,0.0,0.0,-3.7812,-3.668,-3.9414,0.0,-4.7187,0.0,0.0,0.0,0.0,-6.1211,0.0,0.0,0.0,0.0,0.0,0.0,0.0,-6.668,-6.668,-6.668,-6.6836,-6.6914,-6.6914,-6.6914,-6.6914,-6.6914,-6.6914,-6.6914,-6.6914,-6.6914,-6.6914,-6.6836,-6.5078,-6.4297,-6.4219,-6.2461,-6.1719,-6.1719,-6.1719,-6.1719,-6.1719,-6.1719,-6.1719,-6.1719,-6.1719,-6.1719,-6.1719,0.0,0.0,0.0,0.0,0.0,0.0,0.0,-2.3884,-2.5139,-2.7355,-2.7032,-2.6431,-2.6033,-2.5577,-2.5308,0.0,0.0,0.0,0.0,0.0,0.0,0.0,-2.5692,-2.5923,0.0,0.0,0.0,0.0,0.0,0.0,0.0,0.0,0.0,0.0,0.0,0.0,0.0,0.0,-2.6813,0.0,0.0,0.0,0.0,0.0,0.0,0.0,0.0,0.0,0.0,0.0,-4.0924,-4.5808,-4.8954,-5.0639,-5.1836,-5.4023,-5.5898,-5.7578,-5.8867,-6.0117,-6.0781,-5.9492,-5.7539,-5.4765,-5.043,0.0,0.0,0.0,0.0,-3.4995,-3.4136,0.0,0.0,0.0,0.0,0.0,0.0,0.0,0.0,0.0,0.0,0.0,0.0,0.0,0.0,0.0,-6.6914,-6.6914,-6.6914,-6.6914,-6.6914,-6.6914,-6.6914,-6.6914,-6.6914,-6.6914,-6.6914,-6.6914,-6.6914,-6.6914,-6.6836,-6.5078,-6.4297,-6.4219,-6.2461,-6.1719,-6.1719,-6.1719,-6.1719,-6.1719,-6.1719,-6.1719,-6.1719,-6.1719,-6.1719,-6.1718,0.0,0.0,0.0,0.0,0.0,0.0,0.0,-2.5,-2.6443,-2.9406,-2.9399,-2.856,-2.7209,-2.6326,-2.5692,0.0,0.0,0.0,0.0,0.0,0.0,0.0,0.0,0.0,0.0,0.0,0.0,0.0,0.0,0.0,0.0,0.0,0.0,0.0,0.0,0.0,0.0,0.0,0.0,0.0,0.0,0.0,0.0,0.0,0.0,0.0,0.0,0.0,0.0,0.0,-3.9262,-4.3335,-4.706,-4.9562,-5.1561,-5.4022,-5.6093,-5.7851,-5.8906,-6.043,-6.1289,-5.9609,-5.7109,-5.3711,-4.871,-4.3939,0.0,0.0,-3.3689,-3.2755,-3.2442,0.0,0.0,0.0,0.0,0.0,0.0,0.0,0.0,0.0,0.0,0.0,0.0,0.0,0.0,0.0,-6.6914,-6.6914,-6.6914,-6.6914,-6.6914,-6.6914,-6.6914,-6.6914,-6.6914,-6.6914,-6.6914,-6.6914,-6.6914,-6.6914,-6.6836,-6.5078,-6.4297,-6.4219,-6.2461,-6.1719,-6.1719,-6.1719,-6.1719,-6.1719,-6.1719,-6.1719,-6.1719,-6.1679,-6.1678,-6.1676,0.0,0.0,0.0,0.0,0.0,0.0,0.0,-2.5536,-2.7612,-2.9536,-2.9742,-2.942,-2.8679,-2.8036,-2.7005,0.0,0.0,0.0,0.0,0.0,0.0,0.0,0.0,0.0,0.0,0.0,0.0,0.0,0.0,0.0,0.0,0.0,0.0,0.0,0.0,0.0,0.0,0.0,0.0,0.0,0.0,0.0,0.0,0.0,0.0,0.0,0.0,0.0,0.0,0.0,0.0,-3.726,-4.1565,-4.6238,-5.0487,-5.2324,0.0,0.0,-5.875,-6.043,-6.1289,-5.9609,-5.664,-5.2968,-4.8505,0.0,0.0,-3.5175,-3.2695,-3.1504,-3.2989,-3.4254,0.0,0.0,0.0,0.0,0.0,0.0,0.0,0.0,0.0,0.0,0.0,0.0,0.0,0.0,-6.6914,-6.6914,-6.6914,-6.6914,-6.6914,-6.6914,-6.6914,-6.6914,-6.6914,-6.6914,-6.6914,-6.6914,-6.6914,-6.6914,-6.6836,-6.5078,-6.4297,-6.4219,-6.2461,-6.1719,-6.1719,-6.1719,-6.1719,-6.1719,-6.1719,-6.1719,-6.1679,-6.1624,-6.1612,-6.1605,0.0,0.0,0.0,0.0,0.0,0.0,-2.4599,-2.5718,-2.7339,-2.9926,-3.0406,-3.0391,-3.0219,-2.9615,-2.8171,-2.5529,0.0,0.0,0.0,0.0,0.0,0.0,0.0,0.0,0.0,0.0,0.0,0.0,0.0,0.0,0.0,0.0,0.0,0.0,0.0,0.0,0.0,0.0,0.0,0.0,0.0,0.0,0.0,0.0,0.0,0.0,0.0,0.0,0.0,0.0,0.0,0.0,-3.7161,-4.0425,0.0,0.0,-5.2182,-5.4765,-5.7031,-5.8906,-5.9765,-5.8047,-5.539,-5.1953,-4.7058,0.0,-3.7568,-3.4419,-3.2119,-3.121,-3.3,-3.3653,-3.5423,-4.0069,-4.1014,-4.3554,0.0,0.0,0.0,0.0,0.0,0.0,0.0,0.0,0.0,-6.6914,-6.6914,-6.6914,-6.6914,-6.6914,-6.6914,-6.6914,-6.6914,-6.6914,-6.6914,-6.6914,-6.6914,-6.6914,-6.6914,-6.664,-6.6094,-6.4844,-6.4023,-6.3437,-6.2226,-6.1719,-6.1719,-6.1719,-6.1719,-6.1719,-6.1719,-6.1719,-6.1679,-6.1619,-6.1605,-6.1593,0.0,0.0,0.0,0.0,0.0,-2.3206,-2.5107,-2.5893,-2.7229,-2.9936,-3.04,-3.0612,-3.0958,-2.9983,-2.838,-2.6151,-2.5552,0.0,0.0,0.0,0.0,0.0,0.0,0.0,0.0,0.0,0.0,0.0,0.0,0.0,0.0,0.0,0.0,0.0,0.0,0.0,0.0,0.0,0.0,0.0,0.0,0.0,0.0,0.0,0.0,0.0,0.0,0.0,0.0,0.0,0.0,0.0,0.0,0.0,0.0,0.0,-4.9525,-5.2187,-5.5078,-5.7109,-5.8008,-5.6289,-5.4023,-5.0931,0.0,0.0,-3.7384,-3.3907,-3.1802,-3.1138,-3.2948,-3.3343,-3.4615,-3.8401,-3.9206,-4.144,-4.756,0.0,0.0,0.0,0.0,0.0,0.0,0.0,0.0,-6.6914,-6.6914,-6.6914,-6.6914,-6.6914,-6.6914,-6.6914,-6.6914,-6.6914,-6.6914,-6.6914,-6.6914,-6.6914,-6.664,-6.6172,-6.5547,-6.4414,-6.3594,-6.2969,-6.207,-6.1719,-6.1719,-6.1719,-6.1719,-6.1719,-6.1678,-6.1677,-6.1673,-6.1543,-6.151,-6.1491,0.0,0.0,0.0,0.0,0.0,0.0,-2.4579,-2.6072,-2.7705,-2.9383,-2.9509,-2.9766,-3.0702,-2.8717,-2.7387,-2.7566,-2.6184,0.0,0.0,0.0,0.0,0.0,0.0,0.0,0.0,0.0,-3.0808,-3.1698,-3.2468,0.0,0.0,0.0,0.0,0.0,0.0,0.0,0.0,0.0,0.0,0.0,0.0,0.0,0.0,0.0,0.0,0.0,0.0,0.0,0.0,0.0,0.0,0.0,0.0,0.0,0.0,0.0,-4.6829,-4.9687,-5.3086,-5.5312,-5.6211,-5.4453,-5.2647,-4.9957,0.0,-4.0878,-3.7293,-3.3829,-3.1754,-3.1121,-3.2877,-3.3242,-3.4138,-3.6713,-3.9334,-4.2597,-4.6897,0.0,0.0,0.0,0.0,0.0,0.0,0.0,0.0,-6.6914,-6.6914,0.0,-6.6914,-6.6914,-6.6914,-6.6914,-6.6914,-6.6914,-6.6914,-6.6914,-6.6914,-6.6875,-6.6015,-6.5625,-6.5547,-6.3789,-6.3008,-6.2969,-6.207,-6.1719,-6.1719,-6.1719,-6.1719,-6.1679,-6.1621,-6.1605,-6.1593,-6.1373,-6.131,-6.1289,0.0,0.0,0.0,0.0,0.0,0.0,0.0,-2.5078,-2.5814,-2.6823,-2.7391,-2.8072,-2.9063,-2.8034,-2.763,-2.8421,-2.6546,0.0,0.0,0.0,0.0,0.0,0.0,0.0,0.0,0.0,-3.1968,-3.3391,-3.4276,-3.4962,-3.5468,0.0,0.0,0.0,0.0,0.0,0.0,0.0,0.0,0.0,0.0,0.0,0.0,0.0,0.0,0.0,0.0,0.0,0.0,0.0,0.0,0.0,0.0,0.0,0.0,-3.6834,0.0,0.0,-4.7381,-4.9569,-5.0777,-4.8384,-4.7352,-4.5877,-4.1777,-3.9073,-3.6604,-3.3713,-3.2203,-3.1788,-3.2979,-3.3708,-3.5313,-3.9034,-4.039,0.0,0.0,0.0,0.0,0.0,0.0,0.0,0.0,0.0,-6.6914,-6.6914,-6.6914,-6.6914,-6.6914,-6.6914,-6.6914,-6.6914,-6.6914,-6.6914,-6.6914,-6.6914,-6.6601,-6.6015,-6.5742,-6.4961,-6.3789,-6.3242,-6.2656,-6.2109,-6.1836,-6.1719,-6.1719,-6.1719,-6.1719,-6.1679,-6.1621,-6.1605,-6.1593,-6.1367,-6.131,-6.1281,0.0,0.0,0.0,0.0,0.0,0.0,0.0,-2.4645,-2.4968,-2.5683,-2.5911,-2.6627,-2.8199,-2.7212,-2.7068,-2.872,-2.6968,0.0,0.0,0.0,0.0,0.0,0.0,0.0,-2.9583,-3.1275,-3.3006,-3.4699,-3.5892,-3.6892,-3.7661,-3.6815,-3.5538,0.0,0.0,0.0,0.0,0.0,0.0,0.0,0.0,0.0,0.0,0.0,0.0,0.0,0.0,0.0,0.0,0.0,0.0,0.0,0.0,0.0,0.0,0.0,-3.676,0.0,0.0,-4.5193,-4.6437,-4.4421,-4.3885,-4.2948,-3.9427,-3.7496,-3.5733,-3.3156,-3.1947,-3.1739,-3.2926,-3.3598,-3.5145,-3.8743,-4.0192,0.0,0.0,0.0,0.0,0.0,0.0,0.0,0.0,0.0,-6.6914,-6.6914,-6.6914,-6.6914,-6.6914,-6.6601,-6.6406,-6.6406,-6.6719,-6.6758,-6.6406,-6.6406,-6.5976,-6.5073,-6.4722,-6.3974,-6.2871,-6.2609,-6.2182,-6.1675,-6.1679,-6.1719,0.0,-6.1719,-6.1719,-6.1679,-6.1564,-6.153,-6.1513,-6.1291,-6.1213,-6.1197,0.0,0.0,0.0,0.0,0.0,0.0,0.0,-2.4684,-2.4947,-2.5689,-2.504,-2.5416,-2.7884,-2.6186,-2.5936,-2.8481,0.0,0.0,0.0,0.0,0.0,0.0,0.0,0.0,-3.0346,-3.2045,-3.3737,-3.55,-3.7238,-3.8584,-3.9477,-3.8661,-3.7353,-3.5615,-3.3853,0.0,0.0,0.0,0.0,0.0,0.0,0.0,0.0,0.0,0.0,0.0,0.0,0.0,0.0,0.0,0.0,0.0,0.0,0.0,0.0,0.0,0.0,0.0,0.0,-4.1755,0.0,0.0,-4.1665,-4.0774,-3.7493,-3.6061,0.0,-3.229,-3.1255,-3.1294,-3.2991,-3.3339,-3.4267,-3.7019,0.0,0.0,0.0,0.0,0.0,0.0,0.0,0.0,0.0,-6.5898,-6.6914,-6.6914,-6.6836,-6.6797,-6.6797,-6.5976,-6.5508,-6.5508,-6.6289,-6.6328,-6.5508,-6.5508,-6.5035,-6.4106,-6.3286,-6.2785,-6.2591,-6.1885,-6.1601,-6.1607,-6.1675,-6.1719,-6.1719,-6.1719,-6.1719,-6.1679,-6.1481,-6.1412,-6.1388,-6.1181,-6.1118,-6.1118,0.0,0.0,0.0,0.0,0.0,0.0,0.0,0.0,0.0,0.0,-2.4637,-2.4783,-2.5501,-2.5181,-2.5721,0.0,0.0,0.0,0.0,0.0,0.0,0.0,0.0,0.0,-3.0385,-3.2045,-3.3737,-3.55,-3.7853,-3.9777,-4.12,-4.1008,-3.9662,-3.7353,-3.5654,-3.3346,0.0,0.0,0.0,0.0,0.0,0.0,0.0,0.0,0.0,0.0,0.0,0.0,0.0,0.0,0.0,0.0,0.0,0.0,0.0,0.0,-3.1785,-3.2829,-3.3867,0.0,-3.7408,-3.573,-3.5843,-3.592,0.0,-3.3865,-3.3341,-3.2058,0.0,0.0,-3.4775,-3.5588,0.0,0.0,0.0,0.0,0.0,0.0,0.0,0.0,0.0,0.0,0.0,-6.6289,-6.6914,-6.6914,-6.6289,-6.5898,-6.5898,-6.5078,-6.4609,-6.4609,-6.4805,-6.4805,-6.4609,-6.4609,-6.4137,-6.3208,-6.3011,-6.2473,-6.1685,-6.1513,-6.1481,-6.1605,-6.1616,-6.1632,-6.1719,-6.1719,-6.1719,-6.1679,-6.1481,-6.1412,-6.1388,-6.1181,-6.1118,-6.1118,0.0,0.0,0.0,0.0,0.0,0.0,0.0,0.0,0.0,0.0,0.0,0.0,0.0,0.0,0.0,0.0,0.0,0.0,0.0,0.0,0.0,0.0,0.0,-2.9506,-3.0385,-3.2045,-3.4122,-3.6654,-3.8815,-4.0893,-4.2931,-4.2585,-4.1046,-3.8469,-3.5584,-3.3077,0.0,0.0,0.0,0.0,0.0,0.0,0.0,0.0,0.0,0.0,-3.0392,-3.0414,0.0,-3.1372,-3.1664,-3.1686,0.0,0.0,0.0,0.0,-3.0947,-3.1346,-3.1346,-3.3884,-3.6278,-3.5174,-3.5573,-3.587,-3.4533,0.0,0.0,0.0,0.0,0.0,0.0,0.0,0.0,0.0,0.0,0.0,0.0,0.0,0.0,0.0,0.0,0.0,0.0,-6.543,-6.5703,-6.5703,-6.5273,-6.5,-6.5,-6.418,-6.3711,-6.3711,-6.332,-6.3281,-6.3711,-6.3711,-6.3195,-6.2226,-6.2226,-6.1889,-6.1285,-6.1367,-6.1439,-6.1527,-6.1618,-6.1676,-6.1719,-6.1719,-6.1719,-6.1679,-6.1554,-6.1452,-6.1393,-6.1228,-6.1152,-6.1118,0.0,0.0,0.0,0.0,0.0,0.0,0.0,0.0,0.0,0.0,0.0,0.0,0.0,0.0,0.0,0.0,0.0,0.0,0.0,0.0,0.0,0.0,-2.9698,-2.9775,-3.0769,-3.216,-3.4584,-3.8007,-3.9669,-4.1747,-4.4124,-4.3662,-4.197,-3.913,-3.5238,-3.2891,0.0,0.0,0.0,0.0,0.0,0.0,0.0,0.0,0.0,0.0,0.0,0.0,0.0,-3.2122,-3.2309,-3.1977,-3.2434,0.0,0.0,0.0,0.0,0.0,-3.1072,-3.4195,-3.7212,-3.6498,-3.7225,-3.7662,-3.6008,0.0,0.0,0.0,0.0,0.0,0.0,0.0,0.0,0.0,0.0,0.0,0.0,0.0,0.0,0.0,0.0,0.0,-6.4023,-6.4219,-6.4297,-6.4297,-6.418,-6.4101,-6.4101,-6.3281,-6.2812,-6.2812,-6.2109,-6.2031,-6.2773,-6.2812,-6.2327,-6.1412,-6.1412,-6.1285,-6.1127,-6.1259,-6.1373,-6.1398,-6.1575,-6.1677,-6.1679,-6.1719,-6.1719,-6.1679,-6.1621,-6.1527,-6.1398,-6.1318,-6.1205,-6.1118,0.0,0.0,0.0,0.0,0.0,0.0,0.0,0.0,0.0,0.0,0.0,0.0,0.0,0.0,0.0,0.0,0.0,0.0,0.0,0.0,0.0,-3.0385,-3.0269,-3.0923,-3.2468,-3.2776,-3.4584,-3.8007,-3.9669,-4.1477,-4.3316,-4.4624,-4.3094,-3.9207,-3.7084,-3.4853,-3.2776,-3.3622,0.0,0.0,0.0,0.0,0.0,0.0,0.0,0.0,0.0,0.0,0.0,-3.0716,-3.169,-3.2555,-3.121,0.0,0.0,0.0,0.0,0.0,-3.3261,-3.5912,-3.7414,-3.4429,-3.546,-3.6939,-3.5919,0.0,0.0,0.0,0.0,0.0,0.0,0.0,0.0,0.0,0.0,0.0,0.0,0.0,0.0,0.0,0.0,-6.3047,-6.3203,-6.3867,-6.4297,-6.4297,-6.3633,-6.3203,-6.3203,-6.2383,-6.1914,-6.1914,-6.1758,-6.1758,-6.1914,-6.1914,-6.1741,-6.1412,-6.1412,-6.1285,-6.1118,-6.1143,-6.1213,-6.1311,-6.1408,-6.1491,-6.1618,-6.1678,-6.1719,-6.1679,-6.1621,-6.1527,-6.1398,-6.1318,-6.1205,-6.1118,0.0,0.0,0.0,0.0,0.0,0.0,0.0,0.0,0.0,0.0,0.0,0.0,0.0,0.0,0.0,0.0,0.0,0.0,0.0,0.0,-3.0808,-3.1692,-3.1737,-3.2122,-3.2891,-3.4237,-3.6392,-3.9361,-4.1085,-4.2777,-4.4432,-4.3363,-4.1324,-3.8507,-3.6315,-3.4699,-3.3622,-3.4013,0.0,0.0,0.0,0.0,0.0,0.0,0.0,0.0,0.0,0.0,0.0,0.0,-3.1935,-3.2717,-3.1506,0.0,0.0,0.0,0.0,0.0,-3.1916,-3.4494,-3.6577,-3.5449,-3.7793,-4.0167,-3.9313,-3.8417,0.0,0.0,0.0,0.0,0.0,0.0,0.0,0.0,0.0,0.0,0.0,0.0,0.0,0.0,0.0,-6.2145,-6.2145,-6.2558,-6.2841,-6.2841,-6.2499,-6.2305,-6.2305,-6.1914,-6.1719,-6.1719,-6.1719,-6.1719,-6.1719,-6.1719,-6.1584,-6.1412,-6.1412,-6.1285,-6.1079,-6.1186,-6.1237,-6.1317,-6.1367,-6.1439,-6.1481,-6.1616,-6.1669,-6.1669,-6.1632,-6.1557,-6.1393,-6.1228,-6.1152,-6.1118,0.0,0.0,0.0,0.0,0.0,0.0,0.0,0.0,0.0,0.0,0.0,0.0,0.0,0.0,0.0,0.0,0.0,0.0,0.0,-3.0308,-3.1077,-3.2545,-3.3006,-3.3583,-3.4391,-3.6122,-3.8354,-4.1131,-4.2431,-4.397,-4.5518,-4.2516,-4.0208,-3.8469,-3.6129,-3.4853,-3.4507,-3.4507,-3.4507,0.0,0.0,0.0,0.0,0.0,0.0,0.0,0.0,0.0,0.0,0.0,0.0,0.0,0.0,0.0,0.0,-3.1397,-3.0843,-3.0833,-3.146,-3.3589,-3.5941,-3.7177,-3.9979,-4.2473,-4.2821,-4.1583,-4.0429,0.0,0.0,0.0,0.0,0.0,0.0,0.0,0.0,0.0,0.0,0.0,-6.0643,-6.133,-6.1412,-6.1412,-6.1412,-6.1474,-6.1546,-6.1546,-6.1619,-6.1634,-6.1677,-6.1678,-6.1679,-6.1719,-6.1719,-6.1719,-6.1719,-6.1719,-6.1627,-6.1448,-6.1422,-6.1304,-6.1152,-6.1213,-6.1252,-6.1259,-6.1322,-6.1378,-6.1388,-6.1537,-6.1605,-6.161,-6.1677,-6.1577,-6.1388,-6.1181,-6.1118,-6.1118,0.0,0.0,0.0,0.0,0.0,0.0,0.0,0.0,0.0,0.0,0.0,0.0,0.0,0.0,0.0,0.0,0.0,0.0,0.0,-2.9967,-3.0808,-3.1737,-3.3276,-3.5591,-3.8784,-3.8238,-3.9546,-4.2893,-4.3047,-4.397,-4.5556,-4.3739,-4.197,-4.0246,-3.8507,-3.6853,-3.5423,-3.5423,-3.5423,-3.5269,0.0,0.0,0.0,0.0,0.0,0.0,0.0,0.0,0.0,0.0,0.0,0.0,0.0,0.0,-3.2897,-3.2813,-3.222,-3.2133,-3.4565,-3.545,-3.6284,-3.8721,-3.9539,-4.0777,-4.4646,-4.4214,0.0,-4.7038,0.0,0.0,0.0,0.0,0.0,0.0,0.0,0.0,0.0,0.0,-6.1253,-6.1403,-6.1412,-6.1412,-6.1412,-6.1417,-6.1422,-6.1422,-6.1431,-6.1467,-6.1607,-6.161,-6.1626,-6.1719,-6.1719,-6.1719,-6.1719,-6.1719,-6.1675,-6.1598,-6.1456,-6.1351,-6.1289,-6.1178,-6.1098,-6.1107,-6.1252,-6.1324,-6.1305,-6.1517,-6.1605,-6.161,-6.1677,-6.1577,-6.1388,-6.1181,-6.1118,-6.1118,0.0,0.0,0.0,0.0,0.0,0.0,0.0,0.0,0.0,0.0,0.0,0.0,0.0,0.0,0.0,0.0,0.0,0.0,0.0,-2.9929,-3.1,-3.2391,-3.3583,-3.5276,-3.7623,-3.9431,-4.1508,-4.3855,-4.4393,-4.4701,-4.4739,-4.2516,-4.0862,-3.9669,-3.743,-3.6385,-3.6192,-3.5692,-3.5808,-3.6038,-3.3814,0.0,0.0,0.0,0.0,0.0,0.0,0.0,0.0,0.0,-3.0814,-3.166,-3.1423,-3.2429,-3.3519,-3.2511,-3.1956,-3.1901,-3.2949,-3.4798,-3.6826,-3.8334,-3.9881,0.0,0.0,-4.6573,-4.7927,-5.0287,-5.048,0.0,0.0,0.0,0.0,0.0,0.0,0.0,0.0,-6.1186,-6.1173,-6.1198,-6.1205,-6.1205,-6.1205,-6.1291,-6.1343,-6.1343,-6.1378,-6.1431,-6.1463,-6.1463,-6.1478,-6.1504,-6.1575,-6.1627,-6.1627,-6.1678,-6.1679,-6.1674,-6.1562,-6.1452,-6.1345,-6.1289,-6.1213,-6.1213,-6.1212,-6.1186,-6.1212,-6.1349,-6.1417,-6.1422,-6.1461,-6.1388,-6.1324,-6.1178,-6.1118,-6.1118,0.0,0.0,0.0,0.0,0.0,0.0,0.0,0.0,0.0,0.0,0.0,0.0,0.0,0.0,0.0,0.0,0.0,0.0,-2.905,-2.9929,-3.1038,-3.2468,-3.3353,-3.4699,-3.6654,-3.9546,-4.1816,-4.3508,-4.4624,-4.4739,-4.3855,-4.1554,-4.0362,-3.9969,-3.743,-3.6731,-3.7469,-3.6346,-3.6192,-3.65,-3.4237,-3.316,0.0,0.0,0.0,0.0,0.0,0.0,0.0,0.0,-2.9896,-3.0852,-3.0808,-3.2006,-3.325,-3.2368,-3.2507,-3.2954,-3.2998,-3.5113,-3.7599,-3.8721,0.0,0.0,-4.638,-4.843,-5.048,-5.3227,-5.3382,0.0,0.0,0.0,0.0,0.0,0.0,0.0,-6.1041,-6.1118,-6.1118,-6.1118,-6.1118,-6.1118,-6.1118,-6.1195,-6.1229,-6.1229,-6.1291,-6.1322,-6.1362,-6.1362,-6.1378,-6.1412,-6.1474,-6.1537,-6.1537,-6.1626,-6.1676,-6.1676,-6.1619,-6.1546,-6.1452,-6.1349,-6.131,-6.1296,-6.1161,-6.1118,-6.1098,-6.1244,-6.1298,-6.1331,-6.1324,-6.131,-6.1289,-6.1152,-6.1118,-6.1118,0.0,0.0,0.0,0.0,0.0,0.0,0.0,0.0,0.0,0.0,0.0,0.0,0.0,0.0,0.0,0.0,0.0,0.0,-2.9088,-2.9929,-3.0808,-3.166,-3.2468,-3.4083,-3.6615,-3.8392,-4.0085,-4.1808,-4.347,-4.3855,-4.3047,-4.1324,-4.0931,-4.1654,-3.9123,-3.8469,-3.9169,-3.743,-3.6692,-3.6538,-3.4853,-3.366,0.0,0.0,0.0,0.0,0.0,0.0,0.0,0.0,-2.9088,-2.9396,-3.1121,-3.1698,-3.1903,-3.2739,-3.4228,-3.559,-3.5654,-3.6942,-3.8644,0.0,0.0,0.0,-4.8972,-4.9745,-5.1215,-5.6274,-5.6012,-5.4813,-5.4813,0.0,0.0,-5.7164,-5.9455,-6.1079,-6.1118,-6.1118,-6.1118,-6.1118,-6.1118,-6.1118,-6.1118,-6.1118,-6.1118,-6.1118,-6.1118,-6.1161,-6.1296,-6.1303,-6.1331,-6.1408,-6.1412,-6.1412,-6.1412,-6.1534,-6.1603,-6.1603,-6.1603,-6.1605,-6.1601,-6.139,-6.131,-6.1296,-6.1161,-6.1118,-6.1089,-6.1237,-6.1349,-6.1398,-6.1318,-6.1303,-6.1289,-6.1152,-6.1118,-6.1118,0.0,0.0,0.0,0.0,0.0,0.0,0.0,0.0,0.0,0.0,0.0,0.0,0.0,0.0,0.0,0.0,0.0,0.0,-2.9088,-2.9929,-3.0538,-3.0769,-3.216,-3.3006,-3.3199,-3.6007,-3.8892,-4.1808,-4.2893,-4.2701,-4.1247,-4.0746,-4.0015,-3.9123,-3.8969,-3.8392,-3.743,-3.6923,-3.6692,-3.6538,-3.4853,-3.366,0.0,0.0,0.0,0.0,0.0,0.0,0.0,0.0,0.0,0.0,-2.955,-3.1512,-3.3288,-3.2368,-3.3741,-3.5462,-3.4892,-3.7317,0.0,0.0,0.0,0.0,0.0,-5.373,0.0,0.0,-5.8255,-5.7288,-5.667,0.0,0.0,-5.8062,-5.9377,-6.046,-6.1041,-6.1118,-6.1118,-6.1118,-6.1118,-6.1118,-6.1118,-6.1118,-6.1118,-6.1118,-6.1118,-6.1107,-6.1161,-6.1169,-6.1148,-6.1205,-6.1278,-6.1331,-6.1331,-6.1408,-6.1456,-6.1456,-6.1456,-6.1524,-6.1601,-6.139,-6.131,-6.1296,-6.1161,-6.1118,-6.1079,-6.1143,-6.1156,-6.1197,-6.1186,-6.1169,-6.1161,-6.1098,-6.1118,-6.1118,0.0,0.0,0.0,0.0,0.0,0.0,0.0,0.0,0.0,0.0,-2.6813,-2.7895,0.0,0.0,0.0,0.0,0.0,0.0,0.0,-3.0115,-3.0538,-3.0885,-3.1891,-3.266,-3.3192,-3.6199,-3.8238,-3.9308,-4.0854,-4.0893,-3.9515,-4.0208,-4.0323,-4.0046,-4.0585,-4.0046,-3.8692,-3.8007,-3.7546,-3.7084,-3.5738,-3.4468,-3.3353,0.0,0.0,0.0,0.0,0.0,0.0,0.0,0.0,0.0,-2.8044,-2.9781,-3.1711,-3.1719,-3.3554,-3.5777,-3.6636,0.0,0.0,0.0,0.0,0.0,0.0,0.0,0.0,0.0,0.0,-5.8565,-5.8372,-5.8062,0.0,-5.8952,-5.9841,-6.0538,-6.1041,-6.1118,-6.1118,-6.1118,-6.1118,-6.1118,-6.1118,-6.1118,-6.1118,-6.1118,-6.1118,-6.1118,-6.1118,-6.1118,-6.1118,-6.1118,-6.1195,-6.1213,-6.1213,-6.1324,-6.1345,-6.1345,-6.1345,-6.1383,-6.1478,-6.1343,-6.131,-6.1296,-6.1161,-6.1118,-6.1118,-6.1118,-6.1118,-6.1118,-6.1118,-6.1118,-6.1118,-6.1118,-6.1118,-6.1118,0.0,0.0,0.0,0.0,0.0,0.0,0.0,0.0,0.0,0.0,-2.6967,-2.8011,0.0,0.0,0.0,0.0,0.0,0.0,0.0,-3.0385,-3.0808,-3.166,-3.1929,-3.3192,-3.5654,-3.7853,-3.7815,-3.55,-3.7969,-3.8738,-3.793,-3.9669,-4.1362,-4.2854,-4.2931,-4.2354,-4.1231,-3.9623,-3.8392,-3.7469,-3.6661,-3.5391,-3.3975,-3.3898,0.0,0.0,0.0,0.0,0.0,0.0,0.0,0.0,-2.6928,-2.7313,-2.8483,-3.0849,-3.35,-3.6297,-3.956,0.0,0.0,0.0,0.0,0.0,0.0,0.0,0.0,0.0,0.0,-5.9068,-5.9841,-5.9339,-5.9068,-5.988,-6.0615,-6.1118,-6.1118,-6.1118,-6.1118,-6.1118,-6.1118,-6.1118,-6.1118,-6.1118,-6.1118,-6.1118,-6.1118,-6.1118,-6.1118,-6.1118,-6.1118,-6.1118,-6.1118,-6.1118,-6.1118,-6.1213,-6.1289,-6.1289,-6.1289,-6.1289,-6.1289,-6.1289,-6.1289,-6.1281,-6.1152,-6.1118,-6.1118,-6.1118,-6.1118,-6.1118,-6.1118,-6.1118,-6.1118,-6.1118,-6.1118,-6.1118,0.0,0.0,0.0,0.0,0.0,0.0,0.0,0.0,0.0,0.0,0.0,0.0,0.0,0.0,0.0,0.0,0.0,0.0,0.0,-3.0385,-3.0808,-3.166,-3.3615,-3.5538,-3.743,-3.6699,-3.6038,-3.55,-3.7353,-3.7815,-3.7038,-3.94,-4.0708,-4.1093,-4.1777,-4.0462,-3.7731,-3.6731,-3.543,-3.3968,-3.3776,-3.3122,-3.216,-3.1462,-3.0885,0.0,0.0,0.0,0.0,0.0,0.0,0.0,-2.7467,-2.8165,-2.8978,-2.9589,-3.2513,-3.5899,0.0,-4.0597,0.0,0.0,0.0,0.0,0.0,0.0,0.0,0.0,0.0,0.0,-6.0809,-6.0692,-6.0615,-6.0809,-6.1002,-6.1118,-6.1118,-6.1118,-6.1118,-6.1118,-6.1118,-6.1118,-6.1118,-6.1118,-6.1118,-6.1118,-6.1118,-6.1118,-6.1118,-6.1118,-6.1118,-6.1118,-6.1118,-6.1118,-6.1118,-6.1125,-6.1143,-6.1143,-6.1143,-6.1143,-6.1143,-6.1143,-6.1143,-6.1143,-6.1098,-6.1118,-6.1118,-6.1118,-6.1118,-6.1118,-6.1118,-6.1118,-6.1118,-6.1118,-6.1118,-6.1118,0.0,0.0,0.0,0.0,0.0,0.0,0.0,0.0,0.0,0.0,0.0,0.0,0.0,0.0,0.0,0.0,0.0,0.0,0.0,-3.0385,-3.0962,-3.2237,-3.4731,-3.6122,-3.6161,-3.5731,-3.5077,-3.4269,-3.5545,-3.6584,-3.7392,-3.9931,-4.1546,-4.2324,-4.2393,-4.0777,-3.7853,-3.6615,-3.5084,-3.3506,-3.3506,-3.3006,-3.2199,-3.1346,-3.05,-2.966,-2.883,0.0,0.0,0.0,0.0,0.0,0.0,0.0,-2.8055,-2.8944,-3.1361,-3.4438,0.0,0.0,0.0,0.0,0.0,0.0,0.0,0.0,0.0,0.0,0.0,0.0,0.0,-6.0847,-6.1118,-6.1118,-6.1118,-6.1118,-6.1118,-6.1118,-6.1118,-6.1118,-6.1118,-6.1118,-6.1118,-6.1118,-6.1118,-6.1118,-6.1118,-6.1118,-6.1118,-6.1118,-6.1118,-6.1118,-6.1118,-6.1118,-6.1118,-6.1118,-6.1118,-6.1118,-6.1118,-6.1118,-6.1118,-6.1118,-6.1118,-6.1118,-6.1118,-6.1118,-6.1118,-6.1118,-6.1118,-6.1118,-6.1118,-6.1118,-6.1118,-6.1118,-6.1118,-6.1118,0.0,0.0,0.0,0.0,0.0,0.0,0.0,0.0,0.0,0.0,0.0,0.0,0.0,0.0,0.0,0.0,0.0,0.0,0.0,-3.0538,-3.1385,-3.3045,-3.5161,-3.5738,-3.4667,-3.493,-3.45,-3.3353,-3.393,-3.5821,-3.8931,-4.0739,-4.2547,-4.4239,-4.3316,-4.147,-3.8938,-3.7084,-3.5199,-3.3551,-3.3397,-3.2897,-3.2122,-3.1166,-3.0012,-2.8791,-2.7965,-2.7768,-2.7906,-2.8076,0.0,0.0,0.0,0.0,-2.6905,-2.8348,-3.0109,-3.2524,0.0,0.0,0.0,0.0,0.0,0.0,0.0,0.0,0.0,0.0,0.0,0.0,0.0,-6.0228,-6.0654,-6.0654,-6.0809,-6.0886,-6.0886,-6.1002,-6.1118,-6.1118,-6.1118,-6.1118,-6.1118,-6.1118,-6.1118,-6.1118,-6.1118,-6.1118,-6.1118,-6.1118,-6.1118,-6.1118,-6.1118,-6.1118,-6.1118,-6.1118,-6.1118,-6.1118,-6.1118,-6.1118,-6.1118,-6.1118,-6.1118,-6.1118,-6.1118,-6.1118,-6.1118,-6.1118,-6.1118,-6.1118,-6.1118,-6.1118,-6.1118,-6.1118,-6.1118,-6.1118,0.0,0.0,0.0,0.0,0.0,0.0,0.0,0.0,0.0,0.0,-3.0154,-3.0231,-3.0231,-3.0346,0.0,0.0,0.0,0.0,-3.0385,0.0,0.0,-3.3936,-3.4359,-3.5122,-3.6353,-3.4314,-3.3891,-3.5154,-3.4507,-3.7007,-4.2393,-4.12,-4.1978,-4.4239,-4.2662,-4.0546,-3.8007,-3.5584,-3.3122,-3.0846,-3.0083,-2.9704,-2.9434,-2.7873,-2.7613,-2.7965,-2.7147,-2.7306,-2.8024,-2.8779,-2.8505,0.0,0.0,0.0,0.0,-2.6964,-2.8768,-3.0994,0.0,0.0,0.0,0.0,0.0,0.0,0.0,0.0,0.0,0.0,0.0,0.0,0.0,-5.8874,-5.8913,-5.8913,-5.9571,-6.0074,-6.0074,-6.0654,-6.1118,-6.1118,-6.1118,-6.1118,-6.1118,-6.1118,-6.1118,-6.1118,-6.1118,-6.1118,-6.1118,-6.1118,-6.1118,-6.1118,-6.1118,-6.1118,-6.1118,-6.1118,-6.1118,-6.1118,-6.1118,-6.1118,-6.1118,-6.1118,-6.1118,-6.1118,-6.1118,-6.1118,-6.1118,-6.1118,-6.1118,-6.1118,-6.1118,-6.1118,-6.1118,-6.1118,-6.1118,-6.1118,0.0,0.0,0.0,0.0,0.0,0.0,0.0,0.0,0.0,0.0,0.0,-3.0385,-3.0385,-3.0385,0.0,0.0,0.0,0.0,-3.0385,-3.1231,0.0,-3.2776,-3.3237,-3.3622,-3.3891,-3.2308,-3.2115,-3.3385,-3.2506,-3.5353,-4.1623,-4.1354,-4.3355,-4.7048,-4.4393,-4.1777,-3.9169,-3.5668,-3.2737,-3.0308,-2.9429,-3.0242,-3.1551,-2.7955,-2.8345,-3.0353,-2.7127,-2.6201,-2.6713,-2.8024,-2.824,-2.7906,-2.7895,0.0,0.0,0.0,0.0,0.0,0.0,0.0,0.0,0.0,0.0,0.0,0.0,0.0,0.0,0.0,0.0,0.0,0.0,-5.8255,-5.8613,-5.8613,-5.8913,-5.9184,-5.9184,-5.9493,-5.9687,-5.9687,-5.9687,-5.9687,-5.9687,-5.9687,-5.9687,-5.9687,-5.9687,-5.9687,-5.9687,-5.9687,-5.9687,-5.9687,-5.9687,-5.9687,-5.9687,-5.9687,-5.9687,-5.9687,-5.9687,-5.9687,-5.9687,-5.9687,-6.0228,-6.1118,-6.1118,-6.1118,-6.1118,-6.1118,-6.1118,-6.1118,-6.1118,-6.1118,-6.1118,-6.1118,-6.1118,-6.1118,0.0,0.0,0.0,0.0,0.0,0.0,0.0,0.0,0.0,0.0,0.0,0.0,-3.0385,0.0,0.0,0.0,0.0,0.0,-3.0385,0.0,0.0,0.0,-3.2045,-3.2083,-3.1698,-3.0615,-3.0621,-3.1698,-3.1038,-3.4314,-4.117,-4.2047,-4.5278,-5.0202,-4.6778,-4.347,-4.0285,-3.6937,-3.4045,-3.1654,-3.1006,-3.2128,-3.3859,-3.0683,-3.1465,-3.3666,-2.9013,-2.7316,-2.7402,-2.8029,-2.8086,-2.7901,0.0,0.0,0.0,0.0,0.0,0.0,0.0,0.0,0.0,0.0,0.0,0.0,0.0,0.0,0.0,0.0,0.0,0.0,0.0,-5.7482,-5.7946,-5.7946,-5.8139,-5.8255,-5.8255,-5.8449,-5.8613,-5.8613,-5.8613,-5.8613,-5.8613,-5.8613,-5.8613,-5.8613,-5.8613,-5.8613,-5.8613,-5.8613,-5.8613,-5.8613,-5.8613,-5.8613,-5.8613,-5.8613,-5.8613,-5.8613,-5.8613,-5.8613,-5.8613,-5.8613,-5.9261,-6.046,-6.046,-6.046,-6.046,-6.046,-6.0615,-6.0809,-6.0809,-6.0925,-6.1118,-6.1118,-6.1118,-6.1118,0.0,0.0,0.0,0.0,0.0,0.0,0.0,0.0,0.0,0.0,0.0,0.0,-3.0385,-3.0385,-3.0385,-3.0385,-3.0385,0.0,0.0,0.0,0.0,0.0,0.0,0.0,-3.1698,-3.0044,-3.0006,-3.1698,-3.166,-3.5507,-4.297,-4.3778,-4.7317,-5.2856,-4.9433,-4.5163,-4.0439,-3.9438,-3.7546,-3.5231,-3.5192,-3.4776,-3.4436,-3.6573,-3.7543,-3.7273,-3.3839,-3.2617,-3.2264,-2.9941,-2.8582,-2.7883,-2.7901,-2.7329,-2.6502,0.0,0.0,0.0,0.0,0.0,0.0,0.0,0.0,0.0,0.0,0.0,0.0,0.0,0.0,0.0,0.0,0.0,-5.6128,-5.6128,-5.6815,-5.7357,-5.7357,-5.8062,-5.8613,-5.8613,-5.8613,-5.8613,-5.8613,-5.8613,-5.8613,-5.8613,-5.8613,-5.8613,-5.8613,-5.8613,-5.8613,-5.8613,-5.8613,-5.8613,-5.8613,-5.8613,-5.8613,-5.8613,-5.8613,-5.8613,-5.8613,-5.8613,-5.8651,-5.8729,-5.8729,-5.8729,-5.8729,-5.8729,-5.9223,-5.9957,-5.9957,-6.0422,-6.1118,-6.1118,-6.1118,-6.1118,0.0,0.0,0.0,0.0,0.0,0.0,0.0,0.0,0.0,0.0,0.0,0.0,0.0,-3.0385,-3.0385,-3.0385,-3.0385,0.0,0.0,0.0,0.0,0.0,0.0,0.0,-3.0846,-2.9198,-2.8896,-3.0044,-2.9506,-3.2352,-3.8269,-4.07,-4.3316,-4.5932,-4.6894,-4.6317,-4.4355,-4.02,-3.793,-3.7046,-3.65,-3.7738,-3.9785,-3.8498,-3.9699,-4.1586,-3.7686,-3.5567,0.0,-3.3551,-3.1959,-3.0133,-2.9011,-2.8093,-2.718,-2.5813,-2.6149,0.0,0.0,0.0,0.0,0.0,0.0,0.0,0.0,0.0,0.0,0.0,0.0,0.0,0.0,0.0,-5.6012,-5.6012,-5.6274,-5.6467,-5.6467,-5.6747,-5.694,-5.694,-5.694,-5.694,-5.694,-5.694,-5.694,-5.694,-5.694,-5.694,-5.694,-5.694,-5.694,-5.694,-5.694,-5.694,-5.694,-5.694,-5.694,-5.694,-5.694,-5.694,-5.694,-5.694,-5.694,-5.694,-5.694,-5.7559,-5.8613,-5.8613,-5.8767,-5.9068,-5.9068,-5.9223,-5.9571,-6.0112,-6.0344,-6.0422,0.0,0.0,0.0,0.0,0.0,0.0,0.0,0.0,-3.05,-3.0808,0.0,0.0,0.0,0.0,-3.1115,-3.0846,-3.0846,-3.0692,-3.0423,-3.0385,0.0,0.0,0.0,0.0,-3.0385,-2.9313,-2.8852,-2.9088,-2.8852,-3.0929,-3.5122,-3.793,-4.0315,-4.2316,-4.3739,-4.497,-4.5778,-4.1816,-3.9969,-3.97,-3.97,-4.1239,-4.347,-4.3217,-4.4534,-4.6074,-4.2664,-4.0354,0.0,0.0,0.0,-3.2968,-3.0698,-2.8621,-2.6818,-2.5736,-2.6371,0.0,-2.8883,0.0,0.0,0.0,0.0,0.0,0.0,0.0,0.0,0.0,0.0,0.0,0.0,0.0,0.0,-5.5548,-5.5818,-5.6012,-5.6012,-5.6012,-5.6012,-5.6012,-5.6012,-5.6012,-5.6012,-5.6012,-5.6012,-5.6012,-5.6012,-5.6012,-5.6012,-5.6012,-5.6012,-5.6012,-5.6012,-5.6012,-5.6012,-5.6012,-5.6012,-5.6012,-5.6012,-5.6012,-5.6012,-5.6012,-5.6012,-5.6012,-5.6012,-5.667,-5.7714,-5.7714,-5.7907,-5.8178,-5.813,-5.8315,-5.8624,-5.9186,-5.9408,-5.9485,0.0,0.0,0.0,0.0,0.0,0.0,0.0,0.0,-3.0769,-3.1621,0.0,0.0,0.0,0.0,0.0,-3.1891,-3.1775,-3.1385,-3.05,-3.0423,0.0,0.0,0.0,0.0,-3.0385,-3.0385,-2.9967,-2.9088,-2.9967,-3.166,-3.4129,-3.5815,-3.8854,-4.2777,-4.0354,-4.1085,-4.4124,-4.4047,-4.3701,-4.3355,-4.4863,-4.5133,-4.5201,-5.0933,-5.2164,-5.0635,-4.8894,-4.7201,0.0,-4.1016,0.0,-3.6269,-3.2814,-2.8846,-2.5428,-2.5423,-2.6044,0.0,0.0,0.0,0.0,0.0,0.0,0.0,0.0,0.0,0.0,0.0,0.0,0.0,0.0,0.0,0.0,0.0,-5.5393,-5.5935,-5.5935,-5.5935,-5.5935,-5.5973,-5.5973,-5.5973,-5.6012,-5.6012,-5.6012,-5.6012,-5.6012,-5.6012,-5.6012,-5.6003,-5.6003,-5.6012,-5.6003,-5.6003,-5.6012,-5.6012,-5.6012,-5.6012,-5.6012,-5.6012,-5.6012,-5.6012,-5.6003,-5.6003,-5.6003,-5.6003,-5.6003,-5.6003,-5.6506,-5.7232,-5.7196,-5.768,-5.8414,-5.8365,-5.8345,-5.8384,0.0,0.0,0.0,0.0,0.0,-3.2199,-3.2199,-3.2199,-3.2275,0.0,0.0,0.0,-3.2929,-3.4045,-3.4692,-3.4462,-3.3853,-3.2891,-3.1429,-3.0731,-3.0385,-3.0385,-3.0385,-3.0385,-3.0385,-2.9775,-2.9357,-2.9088,-2.9357,-3.0121,-3.15,-3.3814,-3.5853,-3.7615,-3.8123,-3.8854,-3.9662,-3.8469,0.0,-4.5663,-4.3662,-4.6009,0.0,0.0,-5.2587,0.0,0.0,-5.1625,-4.9779,0.0,-4.4278,-4.0315,-3.443,-3.0506,-2.7818,-2.6631,-2.7747,-2.894,-2.7123,0.0,0.0,0.0,0.0,0.0,0.0,0.0,0.0,0.0,0.0,0.0,0.0,0.0,0.0,0.0,-5.321,-5.4194,-5.4194,-5.4194,-5.4426,-5.5045,-5.5122,-5.5354,-5.5935,-5.6012,-5.6012,0.0,-5.6012,-5.6012,-5.6012,-5.6016,-5.6007,-5.6003,-5.6016,-5.6016,-5.6003,-5.6012,-5.6012,-5.6012,-5.6012,-5.6012,-5.6012,-5.6012,-5.5986,-5.5998,-5.5998,-5.5971,-5.5943,-5.598,-5.6125,-5.629,-5.6271,-5.6425,-5.6696,-5.7303,-5.7535,-5.7602,0.0,0.0,0.0,-3.3346,-3.3737,-3.4083,-3.443,-3.4507,-3.4622,0.0,0.0,0.0,-3.5545,-3.7084,-3.7692,-3.6654,-3.5738,-3.4391,-3.2314,-3.1423,-3.0769,-3.0423,-3.0731,-3.0923,-3.0923,-3.0775,-3.0352,-2.9621,-2.9621,-2.9737,-2.989,-3.1737,-3.2891,-3.3423,-3.4385,-3.543,-3.6276,-3.3853,-3.7469,0.0,-4.5316,0.0,0.0,-5.3433,-5.4626,0.0,0.0,0.0,-5.3241,-5.1548,-4.7471,0.0,0.0,0.0,-3.1314,-2.8885,-3.0,-3.1506,-2.933,-2.9803,0.0,0.0,0.0,0.0,0.0,-3.6549,0.0,0.0,0.0,0.0,0.0,0.0,0.0,0.0,0.0,-5.2211,-5.3293,-5.3447,-5.364,-5.4143,-5.422,-5.4413,-5.4856,-5.4933,-5.4942,-5.4967,-5.4967,-5.4967,-5.4967,-5.529,-5.5513,-5.5509,-5.5831,-5.6016,-5.6003,-5.6012,-5.6012,-5.6012,-5.6012,-5.6012,-5.6012,-5.6012,-5.5986,-5.6018,-5.6018,-5.5933,-5.5875,-5.5905,-5.5905,-5.5895,-5.5875,-5.5865,-5.5904,-5.6395,-5.6578,-5.6655,0.0,0.0,-3.3271,-3.441,-3.5276,-3.6077,-3.6962,-3.7115,-3.7392,0.0,-3.77,-3.8007,-3.9931,-4.1316,-4.1162,-3.8892,-3.7661,-3.593,-3.3353,-3.2237,-3.1308,-3.0423,-3.1231,-3.166,-3.1545,-3.2429,-3.2083,-3.0385,-3.05,-3.0121,-2.928,-3.0038,-3.0346,-3.0269,-3.0346,-3.1621,-3.3474,-3.1089,-3.4545,-4.2124,-4.7548,-5.0327,0.0,0.0,-5.728,-5.6472,-5.7896,-5.7434,-5.5818,-5.3972,-4.9163,0.0,0.0,0.0,0.0,-3.2115,-3.2852,-3.4398,-3.2699,-3.2403,0.0,0.0,0.0,0.0,-3.7133,-3.6267,-3.5781,0.0,0.0,0.0,0.0,0.0,0.0,0.0,0.0,-5.0002,-5.2596,-5.3059,-5.3136,-5.3252,-5.3252,-5.3308,-5.3383,-5.3383,-5.3409,-5.3489,-5.3498,-5.3498,-5.3498,-5.4233,-5.465,-5.4658,-5.5346,-5.5694,-5.5741,-5.5818,-5.5857,-5.5857,-5.5973,-5.6012,-5.6012,-5.6003,-5.6016,-5.6009,-5.5961,-5.5905,-5.5787,-5.5787,-5.5807,-5.5875,-5.5797,-5.5787,-5.5776,-5.5724,-5.5703,-5.5703,0.0,-3.448,-3.5434,-3.7,-3.7392,-3.8007,-3.9515,-3.9746,-3.9823,-3.9977,-4.0469,-4.1962,-4.5086,-4.447,-4.3624,-4.3124,-4.0431,-3.77,-3.5154,-3.2929,-3.1308,-3.0423,-3.1231,-3.1391,-3.0654,-3.2122,-3.2083,-3.0385,-3.1115,-3.1,-3.0154,-3.0308,-3.0038,-2.939,-3.0077,-3.0275,-3.0358,-3.4507,0.0,-4.0939,-4.2777,-4.8048,-5.4818,-5.5818,-5.7703,-5.9742,-5.9396,-5.905,-5.8319,-5.528,-5.201,-4.8519,0.0,0.0,0.0,-3.6462,-3.6815,-3.7938,-3.6199,-3.6738,0.0,0.0,0.0,0.0,-3.2706,-3.2833,-3.3887,0.0,0.0,0.0,0.0,0.0,0.0,0.0,0.0,0.0,-4.9886,-5.0859,-5.1554,-5.2287,-5.2364,-5.2634,-5.3338,-5.3412,-5.3391,-5.34,-5.3481,-5.3498,-5.3498,-5.3619,-5.3688,-5.3768,-5.3851,-5.392,-5.4,-5.4697,-5.5045,-5.5045,-5.5702,-5.6012,-5.6003,-5.6007,-5.5961,-5.5914,-5.5875,-5.5787,-5.5724,-5.5724,-5.5724,-5.5735,-5.5724,-5.5724,-5.5724,-5.5714,-5.5703,-5.5703,-3.4724,-3.5444,-3.6527,-3.8346,-3.9354,-4.0469,-4.2124,-4.2401,-4.2701,-4.3585,-4.4816,-4.5932,-4.6808,-4.6471,-4.5855,-4.5009,-4.2239,-3.9469,-3.693,-3.4353,-3.2391,-3.1115,-3.1468,-3.1698,-3.1654,-3.2083,-3.2083,-3.1654,-3.1231,-3.0615,-2.9775,-3.0192,-3.0385,-3.039,-3.0385,-3.1346,-3.3006,0.0,-3.7661,-4.1508,-4.5778,0.0,-5.5895,-5.7588,-5.9319,-6.0742,-6.0319,-5.9858,-5.8973,-5.5626,-5.3356,0.0,-4.6932,-4.5316,-4.4278,0.0,-4.0777,-4.1431,-3.97,0.0,0.0,-3.776,0.0,0.0,0.0,-3.3346,-3.3837,-3.6372,0.0,0.0,0.0,0.0,0.0,0.0,0.0,0.0,-4.6125,-4.8129,-4.9631,-5.0055,-5.0132,-5.0305,-5.0812,-5.1224,-5.1636,-5.2103,-5.2166,-5.2221,-5.2221,-5.2583,-5.2815,-5.284,-5.3249,-5.3473,-5.3498,-5.3923,-5.4155,-5.4155,-5.4981,-5.5358,-5.535,-5.5768,-5.5914,-5.5865,-5.5807,-5.5756,-5.5703,-5.5703,-5.5703,-5.5703,-5.5703,-5.5703,-5.5703,-5.5703,-5.5703,-5.5703,-3.5325,-3.6021,-3.7017,-3.8762,-4.0585,-4.2316,-4.3855,-4.4355,-4.524,-4.7124,-4.8702,-4.9317,-4.8471,-4.8779,-4.8586,-4.7441,-4.4393,-4.1585,-3.9354,-3.6353,-3.4083,-3.2737,-3.2352,-3.2506,-3.3122,-3.2506,-3.2275,-3.2429,-3.1077,-2.9967,-2.9127,-2.9813,-3.0615,-3.1429,-3.1231,-3.3192,-3.6615,0.0,0.0,-4.3816,0.0,-5.3587,-5.4895,-5.8627,-6.005,-6.0127,-6.0627,-6.0358,-5.9242,-5.6049,-5.4511,-5.3203,-4.8971,-4.8086,0.0,0.0,0.0,0.0,0.0,0.0,0.0,0.0,0.0,-3.7235,0.0,0.0,0.0,-3.7578,0.0,0.0,0.0,0.0,0.0,0.0,0.0,0.0,0.0,0.0,0.0,-4.7317,-4.7663,-4.793,-4.8017,-4.8351,-4.9048,-5.0318,-4.997,-4.997,-5.0627,-5.1331,-5.1796,-5.195,-5.2647,-5.2995,-5.2995,-5.3149,-5.3227,-5.3257,-5.4066,-5.4541,-5.4687,-5.5326,-5.5673,-5.5797,-5.5776,-5.5745,-5.5703,-5.5703,-5.5703,-5.5703,-5.5703,-5.5703,-5.5703,-5.5703,-5.5703,-5.5703,-3.55,-3.614,-3.6986,-3.7969,-4.0162,-4.2124,-4.3085,-4.4509,-4.6326,-4.8779,-4.9933,-5.1318,-5.3395,-5.3049,-5.2856,-5.3433,-4.8394,-4.471,-4.3662,-3.9084,-3.6346,-3.6154,-3.4699,-3.3975,-3.4052,-3.3975,-3.2852,-3.0692,-3.05,-2.9967,-2.9088,-2.9204,-2.9698,-3.0654,-3.2814,-3.4853,0.0,0.0,-4.3085,0.0,-5.1077,-5.1279,0.0,-5.556,-5.7445,-5.7715,-5.9973,-6.0742,-6.0242,0.0,-5.6637,-5.5829,0.0,-5.0327,-5.001,-4.8086,0.0,0.0,0.0,0.0,0.0,0.0,-4.3047,0.0,0.0,0.0,-3.5881,-3.4094,0.0,0.0,0.0,0.0,0.0,0.0,0.0,0.0,0.0,0.0,0.0,-4.447,-4.6086,-4.7027,-4.708,-4.5843,-4.6058,-4.85,-4.6612,-4.6644,-4.9668,-4.9939,-5.0326,-5.1014,-5.113,-5.1207,-5.1207,-5.195,-5.2321,-5.2279,-5.3121,-5.3905,-5.4602,-5.4632,-5.5065,-5.5787,-5.5735,-5.5714,-5.5703,-5.5703,-5.5703,-5.5703,-5.5703,-5.5703,-5.5703,-5.5703,-5.5703,-5.5703,-3.55,-3.6154,-3.6962,-3.7853,-3.97,-4.1508,-4.2893,-4.6586,-4.9625,-5.0702,-5.2472,-5.4203,-5.5791,-5.4318,-5.3741,-5.5088,-5.1135,-4.7778,-4.5932,-4.2431,-3.9738,-3.8277,-3.6584,-3.543,-3.4968,-3.3968,-3.2699,-3.1154,-3.0654,-2.9967,-2.9127,-3.0121,-3.1852,-3.4115,-3.5699,0.0,-4.2577,0.0,-4.4008,0.0,0.0,0.0,0.0,-5.6511,-5.9204,-5.9369,-6.0435,-6.0781,-6.0396,-5.7857,-5.6665,0.0,0.0,0.0,0.0,0.0,0.0,0.0,0.0,0.0,0.0,0.0,0.0,0.0,-3.7599,0.0,-3.6029,0.0,0.0,0.0,0.0,0.0,0.0,0.0,-3.5167,0.0,0.0,0.0,0.0,0.0,0.0,0.0,-4.4608,-4.416,-4.4636,-4.6728,-4.549,-4.5645,-4.8043,-4.9165,-4.9846,-5.0132,-5.0658,-5.0874,-5.0833,-5.1244,-5.1391,-5.1348,-5.2201,-5.2761,-5.3128,-5.4072,-5.4706,-5.5091,-5.5521,-5.5703,-5.5703,-5.5703,-5.5703,-5.5703,-5.5703,-5.5703,-5.5703,-5.5703,-5.5703,-5.5703,-3.5808,0.0,-3.6885,-3.7546,-3.9238,-4.1324,-4.3778,-4.7962,-5.1269,-5.2462,-5.4395,-5.6395,-5.8215,-5.6511,-5.6049,-5.7973,-5.4636,-5.1625,-4.9769,-4.6201,-4.3624,-4.2478,-3.9431,-3.77,-3.7577,-3.5199,-3.3314,-3.2045,-3.0923,-3.0192,-2.9858,-3.0852,-3.3154,-3.6423,-3.8007,-4.1739,-4.6808,0.0,-4.6471,-4.9163,-4.9894,-5.0741,-5.2164,-5.7665,-6.0204,-6.0781,-6.0781,-6.0781,-6.0435,-5.8127,-5.6934,-5.6203,-5.4895,-5.3241,-5.1741,0.0,0.0,0.0,-4.8125,0.0,0.0,0.0,0.0,0.0,0.0,0.0,0.0,0.0,0.0,0.0,0.0,0.0,0.0,-3.4552,0.0,-3.4353,0.0,0.0,0.0,0.0,0.0,0.0,0.0,-4.1672,-4.2131,-4.4562,-4.3363,-4.375,-4.6573,-4.8159,-4.9189,-4.9605,-5.0449,-5.085,-5.0782,-5.0846,-5.0846,-5.0794,-5.1375,-5.177,-5.2021,-5.3223,-5.4049,-5.4511,-5.5126,-5.5511,-5.5703,-5.5703,-5.5703,-5.5703,-5.5703,-5.5703,-5.5703,-5.5703,-5.5703,-5.5703,-3.65,-3.6692,0.0,-3.6731,-3.8815,-4.1939,-4.6163,-4.7586,-4.9702,-5.3857,-5.5164,-5.728,-6.1485,-6.11,-6.155,0.0,0.0,-5.6742,-5.6692,-5.0462,-4.7855,-5.025,-4.394,-4.117,-4.2816,-3.8738,-3.5353,-3.2852,-3.1192,-3.0808,-3.1583,-3.0808,-3.2269,-3.5692,-3.8969,-4.2816,-4.7,-4.8548,-5.2549,-5.7742,-5.6126,-5.7434,-6.0165,0.0,-5.8638,-6.0781,-6.0781,-6.0781,-6.055,-5.8819,-5.8242,-5.778,-5.528,-5.4434,0.0,0.0,0.0,0.0,0.0,-5.0548,0.0,-4.35,0.0,0.0,0.0,0.0,-3.8938,0.0,0.0,0.0,0.0,-3.9669,-3.8322,-3.5846,-3.6115,0.0,0.0,0.0,0.0,0.0,0.0,0.0,0.0,-3.7796,-3.7677,0.0,-3.903,-3.9688,-4.5536,-4.6689,-4.7913,-4.9528,-5.0455,-5.0863,-5.0782,-5.0782,-5.0756,-5.0701,-5.074,-5.1135,-5.1923,-5.1962,-5.2895,-5.4511,-5.4511,-5.4972,-5.5703,-5.5703,-5.5703,-5.5703,-5.5703,-5.5703,-5.5703,-5.5703,-5.5703,-5.5703,0.0,0.0,0.0,0.0,0.0,-4.1508,-4.6894,-4.9856,-5.2899,-5.6881,-5.8395,-6.0594,0.0,-6.4014,-6.3897,0.0,0.0,-6.0435,-5.8781,-5.4934,-5.2856,-5.3203,-4.8817,-4.5893,-4.4786,-4.2239,-3.9123,-3.543,-3.4308,-3.3923,-3.4192,-3.3314,-3.4737,-3.8123,-4.0354,-4.4355,0.0,0.0,0.0,0.0,0.0,-5.7742,-6.0704,0.0,-6.005,-6.0781,-6.0781,-6.0781,-6.0704,-6.0165,-5.9204,-5.8242,-5.7896,-5.628,-5.4472,-5.4434,-5.3857,-5.2895,-5.1471,-5.2318,-5.2125,-4.5855,-4.4547,-4.3431,0.0,0.0,0.0,0.0,0.0,0.0,0.0,-3.9823,-3.8623,-3.6615,-3.5584,-3.3853,0.0,0.0,0.0,0.0,0.0,0.0,0.0,0.0,0.0,-3.8528,-3.8605,-4.023,-4.3943,-4.601,-4.7596,-4.8707,-4.9525,-5.0224,-5.0721,-5.071,-5.0701,-5.0693,-5.0693,-5.0837,-5.1125,-5.1654,-5.2538,-5.3664,-5.4241,-5.4972,-5.5703,-5.5703,-5.5703,-5.5703,-5.5703,-5.5703,-5.5703,-5.5703,-5.5703,-5.5703,-3.9354,-3.9315,-3.9207,0.0,0.0,-4.3124,-4.7855,-5.1972,-5.5753,0.0,-6.0955,0.0,-6.6801,0.0,-6.5818,0.0,-6.5667,-6.3589,-6.1012,-5.8742,0.0,-5.5895,-5.2856,-5.0279,-4.8355,-4.6047,-4.2777,-3.85,-3.7392,-3.6699,-3.6346,-3.5199,-3.6315,-3.9361,0.0,-4.4778,-4.9894,0.0,-5.3703,0.0,0.0,-5.8819,0.0,0.0,-6.0781,-6.0781,-6.0781,-6.0781,-6.0781,-6.0781,-6.0089,-5.9242,-5.9435,-5.8011,-5.6203,-5.5818,-5.5164,-5.4164,-5.2385,-5.2972,-5.2818,-4.774,-4.6471,-4.5316,-4.0816,-4.0931,-4.1662,0.0,0.0,0.0,0.0,-4.1816,-3.9969,-3.7969,-3.5968,-3.3276,0.0,-2.8472,0.0,0.0,0.0,0.0,0.0,0.0,-3.5289,-3.6781,-3.7411,0.0,0.0,-4.4952,-4.6839,-4.8257,-4.9097,-4.9901,-5.0673,-5.0702,-5.0702,-5.0712,-5.0712,-5.0712,-5.0712,-5.1241,-5.1933,-5.2779,-5.3664,-5.4511,-5.528,-5.5588,-5.5703,-5.5703,-5.5703,-5.5703,-5.5703,-5.5703,-5.5703,-5.5703,-4.1508,-4.0662,-3.9938,-4.0746,-4.3517,-4.6518,0.0,0.0,-5.7896,0.0,-6.2793,-6.525,-6.8191,-6.7429,-6.7523,-6.9525,-6.8167,-6.6167,-6.3692,-6.1923,0.0,0.0,-5.6143,-5.4297,-5.3451,-5.0038,-4.6278,-4.2115,-4.0315,-3.8969,-3.8084,-3.6423,-3.693,-3.9323,-4.1046,0.0,-4.8394,-5.2626,-5.6434,-5.9627,-6.0473,-6.0781,-6.0781,-6.0781,-6.0781,-6.0781,-6.0781,-6.0781,-6.0781,-6.0781,-6.0781,-6.0666,-5.9819,-5.955,-5.9011,-5.6588,-5.6406,-5.6291,-5.3049,-5.2731,-5.251,-4.9202,-4.8279,-4.7355,-4.4085,-4.524,-4.6547,0.0,0.0,0.0,0.0,-4.5355,-4.2354,-3.9746,-3.7084,-3.3654,0.0,0.0,0.0,0.0,0.0,0.0,0.0,0.0,-3.2377,-3.6361,-3.5317,0.0,0.0,-4.3477,-4.5557,-4.8141,-4.9024,-4.9826,-5.0673,-5.0712,-5.0712,-5.0712,-5.0712,-5.0712,-5.0712,-5.0712,-5.1125,-5.1962,-5.2818,-5.3703,-5.4549,-5.5357,-5.5703,-5.5703,-5.5703,-5.5703,-5.5703,-5.5703,-5.5703,-5.5703,-4.197,-4.3508,-4.5201,-4.6009,-4.5855,-4.7095,-5.1548,-5.4395,0.0,0.0,-6.4611,-6.7198,-6.9567,-6.9802,-6.9739,-6.9692,-6.9283,0.0,0.0,0.0,0.0,-6.3489,-5.9879,-5.7455,-5.6575,-5.2867,-4.9462,-4.6471,-4.2931,-4.07,-3.9823,-3.8123,-3.77,-3.843,0.0,0.0,-4.8355,-5.201,-5.6203,-6.0473,-6.0704,-6.0781,-6.0781,-6.0781,-6.0781,-6.0781,-6.0781,-6.0781,-6.0781,-6.0781,-6.0781,-6.0742,-6.055,-6.0012,-5.9358,-5.8704,-5.778,-5.683,-5.5934,-5.5395,-5.4549,-5.2433,-5.0933,-4.9471,-4.7317,-4.7817,-4.8279,-4.6586,-4.8086,-4.9009,-4.6663,-4.5556,-4.3709,-3.9938,-3.6084,0.0,0.0,0.0,0.0,0.0,0.0,0.0,0.0,0.0,-3.2643,-3.3068,-3.5085,0.0,-4.0849,-4.2005,-4.4006,-4.7165,-4.8046,-4.9173,-5.0712,-5.0712,-5.0712,-5.0712,-5.0712,-5.0712,-5.0712,-5.0712,-5.1125,-5.1962,-5.2818,-5.3703,-5.4549,-5.5357,-5.5703,-5.5703,-5.5703,-5.5703,-5.5703,-5.5703,-5.5703,-5.5703,-4.4586,-4.7317,0.0,-5.0741,0.0,-5.1548,-5.4434,-5.628,-5.8688,-6.2309,-6.514,0.0,-6.8556,-6.9842,-7.0527,-7.0231,-7.0206,0.0,-6.7936,0.0,0.0,-6.4454,-6.25,-6.0686,-5.909,-5.6203,0.0,-4.924,-4.5355,-4.2431,-4.0477,-3.8392,0.0,0.0,0.0,-4.3162,0.0,-5.2049,-5.6588,-6.0242,-6.0666,-6.0781,0.0,-6.0781,-6.0781,-6.0781,-6.0781,-6.0781,-6.0781,-6.0781,-6.0781,-6.0781,-6.0781,-6.0473,-5.9973,-5.9627,-5.8819,-5.7934,-5.7214,-5.6637,-5.5934,-5.4626,-5.3587,-5.2433,-5.0741,-5.0702,-5.0702,-4.9346,-4.9547,-4.9632,-4.8529,-4.6128,-4.2829,0.0,0.0,0.0,0.0,0.0,0.0,0.0,0.0,0.0,0.0,0.0,-3.1792,-3.1279,-3.371,0.0,0.0,-4.0658,-4.3088,-4.5731,-4.7296,-4.874,-5.0125,-5.0519,-5.0712,-5.0712,-5.0712,-5.0712,-5.0712,-5.0712,-5.0933,-5.1433,-5.2664,-5.3472,-5.401,-5.5203,-5.5703,-5.5703,-5.5703,-5.5703,-5.5703,-5.5703,-5.5703,-5.5703,-4.8471,0.0,0.0,0.0,0.0,0.0,-5.8115,-5.9246,-6.0929,-6.3288,-6.5551,-6.6994,-6.7217,-6.9075,-7.0432,-7.0777,-7.0871,-6.9923,-6.7653,-6.8073,-6.7034,-6.3871,-6.4295,-6.3476,-6.1057,-5.9131,-5.5742,0.0,0.0,0.0,-4.0285,0.0,0.0,0.0,0.0,0.0,0.0,-5.2779,-5.7242,-5.9742,-6.0512,-6.0781,-6.0781,-6.0781,-6.0781,-6.0781,-6.0781,-6.0781,-6.0781,-6.0781,-6.0781,-6.0781,-6.0781,-6.0781,-6.0666,-5.9896,-5.9588,-5.9165,-5.7599,-5.7099,-5.6791,-5.5934,-5.5703,-5.5318,-5.3857,-5.3549,-5.3231,-5.2239,-5.0659,-4.987,-5.108,-4.6518,-4.1208,0.0,0.0,0.0,0.0,0.0,0.0,0.0,0.0,0.0,0.0,0.0,0.0,0.0,0.0,0.0,0.0,0.0,-4.2187,-4.4306,-4.6796,-4.8509,-4.9394,-5.025,-5.0712,-5.0712,-5.0712,-5.0712,-5.0712,-5.0712,-5.0712,-5.0789,-5.2472,-5.3203,-5.3318,-5.5011,-5.5703,-5.5703,-5.5703,-5.5703,-5.5703,-5.5703,-5.5703,-5.5703,-5.2125,0.0,0.0,0.0,0.0,-6.1908,-6.4012,-6.3691,-6.4245,-6.7074,-6.8428,-6.9543,-7.0593,-7.0473,-7.0337,-7.04,-7.0719,0.0,0.0,0.0,0.0,-6.6182,-6.5192,-6.3828,-6.2005,-5.8847,-5.5395,0.0,0.0,-4.2816,-3.9477,-3.8315,0.0,0.0,0.0,0.0,-5.1818,-5.4549,0.0,-6.0589,-6.0742,-6.0781,-6.0781,-6.0781,-6.0781,-6.0781,-6.0781,-6.0781,-6.0781,-6.0781,-6.0781,-6.0781,-6.0781,-6.0781,-6.0781,-6.0627,-6.005,-5.9281,-5.8319,-5.755,-5.6791,-5.5934,-5.5703,-5.5626,-5.5318,-5.5241,-5.4776,-5.3012,-5.2356,-5.1317,-4.8593,-4.5087,-4.1944,0.0,0.0,0.0,0.0,0.0,0.0,0.0,0.0,0.0,0.0,0.0,0.0,0.0,0.0,0.0,0.0,0.0,-3.9738,-4.4179,-4.6778,-4.8509,-4.9394,-5.025,-5.0712,-5.0712,-5.0712,-5.0712,-5.0712,-5.0712,-5.0712,-5.0789,-5.2472,-5.3203,-5.3318,-5.5011,-5.5703,-5.5703,-5.5703,-5.5703,-5.5703,-5.5703,-5.5703,-5.5703,-5.5555,0.0,0.0,0.0,0.0,-6.5397,-6.7552,-6.8286,-6.8648,-6.8805,-6.9109,-6.95,-6.9936,-7.0375,-7.0624,-7.0624,-7.04,-7.0205,-6.9995,-6.8999,-6.8206,-6.7597,-6.6163,-6.4865,-6.3834,-6.087,-5.7323,-5.3241,0.0,-4.3998,-3.99,-3.8492,0.0,0.0,0.0,-4.7048,0.0,0.0,-5.7396,-6.0165,-6.0627,-6.0781,-6.0781,-6.0781,-6.0781,-6.0781,-6.0781,-6.0781,-6.0781,-6.0781,-6.0781,-6.0781,-6.0781,-6.0781,-6.0781,-6.0781,-6.0512,-5.9973,-5.9165,-5.8319,-5.7473,-5.6599,-5.6011,-5.5703,-5.5703,-5.5703,-5.5264,-5.3731,-5.2946,-5.1418,-4.773,-4.5354,-4.3433,-4.1866,0.0,0.0,0.0,0.0,0.0,0.0,0.0,0.0,0.0,0.0,0.0,0.0,0.0,0.0,-3.3962,-3.5803,-3.8676,-4.2854,-4.5932,-4.7894,-4.8702,-5.0048,-5.0712,-5.0712,-5.0712,-5.0712,-5.0712,-5.0712,-5.0712,-5.0789,-5.2472,-5.3091,-5.3046,-5.46,-5.5237,-5.525,-5.5425,-5.5401,-5.525,-5.5437,-5.5485,-5.5508,0.0,-5.9977,0.0,0.0,-6.6359,-6.8629,-7.0014,-7.2118,-7.2783,-7.0647,-6.9895,-6.9579,-6.9677,-7.0555,-7.1162,-7.1048,-7.046,-6.9985,-6.9702,-6.9001,-6.845,-6.8163,-6.6995,-6.597,-6.5068,-6.2902,-5.9393,0.0,0.0,-4.5774,-4.1165,-3.9231,-3.8758,0.0,0.0,-4.874,-5.2846,-5.5049,-5.7434,-5.9858,-6.0512,-6.0781,-6.0781,-6.0781,-6.0781,-6.0781,-6.0781,-6.0781,-6.0781,-6.0781,-6.0781,-6.0781,-6.0781,-6.0781,-6.0781,-6.0781,-6.0781,-6.0589,-5.9742,-5.8896,-5.8088,-5.7214,-5.6329,-5.5703,-5.5703,-5.5703,-5.533,-5.3925,-5.2517,-5.0613,-4.7498,-4.6367,-4.5268,-4.3262,0.0,0.0,0.0,0.0,0.0,0.0,0.0,0.0,0.0,0.0,0.0,0.0,0.0,0.0,-3.3006,-3.5238,-3.8192,-4.197,-4.5192,-4.7192,-4.7855,-4.974,-5.0712,-5.0712,-5.0712,-5.0712,-5.0712,-5.0712,-5.0712,-5.0789,-5.2472,-5.3218,-5.3353,-5.4462,-5.4866,-5.4821,-5.5078,-5.5023,-5.4836,-5.5078,-5.521,-5.5236,0.0,0.0,0.0,0.0,0.0,-7.1783,-7.1937,-7.4115,-7.5355,-7.4317,-7.2528,-7.1907,-7.3427,-7.268,-7.194,-7.1557,-7.1477,-7.092,-6.9797,-6.9272,-6.8547,-6.7459,-6.7545,-6.6579,-6.4269,-6.3166,-6.0006,0.0,0.0,-4.7309,-4.3528,-4.1285,-4.1885,-4.5017,-4.7778,-5.1395,-5.5395,-5.6434,-5.8357,-6.0704,-6.0781,-6.0781,-6.0781,-6.0781,-6.0781,-6.0781,-6.0781,-6.0781,-6.0781,-6.0781,-6.0781,-6.0781,-6.0781,-6.0781,-6.0781,-6.0781,-6.0781,-6.0589,-5.9742,-5.8896,-5.8088,-5.7214,-5.6329,-5.5703,-5.5703,-5.5703,-5.5094,-5.2916,-5.0717,-4.8824,-4.7494,-4.7755,-4.7312,-4.4574,-4.4038,0.0,0.0,0.0,0.0,0.0,0.0,0.0,0.0,-3.0512,0.0,0.0,-2.8819,0.0,-3.3859,-3.5045,-3.7885,-4.2816,-4.5547,-4.6923,-4.7,-4.9471,-5.0712,-5.0712,-5.0712,-5.0712,-5.0712,-5.0712,-5.0712,-5.0789,-5.2472,-5.392,-5.5072,-5.5186,-5.5064,-5.4806,-5.4836,-5.4821,-5.4806,-5.4836,-5.4851,-5.4851,-6.5458,-6.5756,-6.6667,-6.964,-7.086,-7.2091,-7.4168,-7.5361,-7.5861,-7.5515,-7.449,-7.4068,-7.4757,-7.3725,-7.2926,-7.2756,-7.1823,-7.0934,-7.016,-6.9461,-6.8758,-6.8023,-6.7668,-6.6889,-6.5632,-6.4238,-6.1379,0.0,0.0,-5.035,-4.6569,-4.552,-4.6449,-4.9209,-5.1949,-5.4395,-5.656,-5.7934,-5.9396,-6.0781,-6.0781,-6.0697,-6.052,-6.0722,-6.0685,-6.0533,-6.0734,-6.0781,-6.0781,-6.0781,-6.0781,-6.0757,-6.0559,-6.0622,-6.0757,-6.0559,-6.0622,-6.0704,-6.0358,-5.9665,-5.8819,-5.7973,-5.7126,-5.6329,-5.5818,-5.5703,-5.5127,-5.3022,-5.0899,-4.9317,-4.8878,-4.8365,-4.7659,-4.6518,-4.562,0.0,0.0,0.0,0.0,0.0,0.0,0.0,0.0,0.0,0.0,0.0,0.0,0.0,-3.2468,-3.3968,-3.6584,-4.07,-4.4778,-4.6885,-4.6885,-4.9433,-5.0712,-5.0712,-5.0712,-5.0712,-5.0712,-5.0712,-5.1241,-5.2231,-5.2459,-5.3516,-5.4966,-5.4576,-5.4313,-5.4193,-5.4413,-5.4364,-5.421,-5.443,-5.4495,-5.4463,-6.8417,-6.8416,-6.9244,-7.2717,-7.2822,-7.3206,-7.563,-7.6015,-7.6015,-7.6015,-7.5702,-7.5501,-7.5501,-7.4615,-7.3973,-7.3856,-7.2339,-7.112,-7.0588,-6.9535,-6.8809,-6.8506,-6.7986,0.0,-6.6827,-6.5249,-6.2839,-5.9567,-5.6836,-5.3747,-5.0463,-4.9965,-5.0737,-5.2615,-5.5285,-5.6934,-5.7819,-5.9281,-6.0242,-6.0781,-6.0697,-6.052,-6.0307,-6.0468,-6.0349,-6.0194,-6.0403,-6.0572,-6.0634,-6.0634,-6.0634,-6.061,-6.0494,-6.0546,-6.0597,-6.0362,-6.039,-6.052,-6.052,-5.9958,-5.9163,-5.8318,-5.757,-5.6791,-5.5895,-5.5703,-5.5149,-5.3183,-5.1205,-4.983,-4.991,-4.9122,-4.8208,-4.7455,-4.68,-4.603,0.0,-4.3936,0.0,0.0,-3.88,-3.6549,-3.5488,-3.2901,0.0,0.0,0.0,0.0,-3.3273,-3.4403,-3.6563,-4.0205,-4.4598,-4.6885,-4.6885,-4.9433,-5.0712,-5.0712,-5.0712,-5.0712,-5.0712,-5.0933,-5.1856,-5.3182,-5.2857,-5.35,-5.4761,-5.4196,-5.3889,-5.3813,-5.4054,-5.3999,-5.3832,-5.4072,-5.4161,-5.4125,-7.0441,-7.1593,-7.2937,-7.5515,-7.5938,-7.5938,-7.5976,-7.6015,-7.6015,-7.6015,-7.6015,-7.5976,-7.5976,-7.5567,-7.5102,-7.4702,-7.3143,-7.1863,-7.1048,-6.9439,-6.8506,-6.8481,-6.8481,-6.8134,-6.7317,-6.5976,-6.4316,-6.2339,0.0,-5.7297,-5.5298,-5.4287,-5.4282,-5.5262,-5.7359,-5.8704,-5.9511,-6.0396,-6.0781,-6.0757,-6.0455,-6.0307,-6.0265,-5.9953,-5.9826,-5.9826,-5.9826,-6.0045,-6.0307,-6.0307,-6.0307,-6.0349,-6.0697,-6.0572,-6.0307,-6.0293,-6.0076,-5.9826,-5.9826,-5.9414,-5.879,-5.7911,-5.7364,-5.6791,-5.5895,-5.5703,-5.5149,-5.3183,-5.1205,-4.9897,-5.0147,-5.0195,-4.9366,-4.6893,-4.7386,-4.7098,0.0,-4.3463,0.0,0.0,-3.7806,-3.5467,-3.6017,-3.2996,0.0,0.0,0.0,0.0,0.0,-3.7026,-3.85,-4.2508,-4.5419,-4.6885,-4.6885,-4.9433,-5.0712,-5.0712,-5.0712,-5.0712,-5.075,-5.151,-5.2385,-5.322,-5.3755,-5.4278,-5.4776,-5.443,-5.4107,-5.3794,-5.3794,-5.3794,-5.3794,-5.3794,-5.3794,-5.3794,-7.2837,-7.3229,-7.3779,-7.4904,-7.5365,-7.5518,-7.5518,-7.5803,-7.6015,-7.6015,-7.6015,-7.6015,-7.6015,-7.5887,-7.5718,-7.5577,-7.4566,-7.3301,-7.1902,-7.0811,-6.9669,-6.8567,-6.8481,-6.8134,-6.7317,-6.6877,-6.5523,-6.323,-6.1794,-6.0214,-5.849,-5.8424,-5.8937,-6.0007,-6.0943,-6.1633,-6.2077,-6.2157,-6.2153,-6.2087,-6.1157,-6.066,-6.0382,-5.995,-5.9622,-5.9432,-5.9689,-5.989,-5.9969,-5.9969,-5.9969,-6.0,-6.0091,-6.0208,-6.0208,-5.9685,-5.9836,-6.0106,-5.9874,-5.9662,-5.9361,-5.8471,-5.7867,-5.7277,-5.6435,-5.5543,-5.4528,-5.3311,-5.2083,-5.1036,-5.0333,-5.0195,-4.9499,-4.7388,-4.7348,-4.6839,-4.4805,0.0,-4.2368,0.0,-3.9637,-3.7958,-3.7578,-3.6032,0.0,0.0,0.0,0.0,-3.5848,-3.7882,-3.9691,-4.1157,-4.5444,-4.774,-4.774,-4.9702,-5.0712,-5.0712,-5.0712,-5.0971,-5.1548,-5.1769,-5.2692,-5.4066,-5.3785,-5.4097,-5.4761,-5.4213,-5.3907,-5.3794,-5.3794,-5.3794,-5.3794,-5.3794,-5.3794,-5.3794,-7.3963,-7.4132,-7.4353,-7.4664,-7.4923,-7.5055,-7.5055,-7.531,-7.5523,-7.5523,-7.5638,-7.5756,-7.5756,-7.5902,-7.6015,-7.6015,-7.5065,-7.3806,-7.2301,-7.1289,-7.0084,-6.8567,-6.8481,-6.8283,-6.7763,-6.7465,-6.6537,-6.5013,-6.3565,-6.2153,-6.0853,-6.0915,-6.1411,-6.2214,-6.2449,-6.2762,-6.3104,-6.2718,-6.2582,-6.2512,-6.162,-6.1148,-6.0867,-6.0097,-5.9685,-5.9456,-5.9421,-5.9488,-5.9571,-5.9571,-5.9571,-5.9571,-5.9571,-5.9723,-5.982,-5.9361,-5.945,-5.9656,-5.9432,-5.9467,-5.9383,-5.8518,-5.8173,-5.772,-5.6738,-5.5446,-5.4241,-5.3395,-5.2438,-5.142,-5.0382,-4.9868,-4.9074,-4.7424,-4.6972,-4.6329,-4.4852,0.0,-4.2571,0.0,0.0,-3.9564,-3.8627,-3.8351,-3.8191,0.0,0.0,0.0,-3.8109,-3.9333,-4.0653,-4.2106,-4.6244,-4.85,-4.8586,-4.9971,-5.0712,-5.0712,-5.101,-5.1395,-5.1923,-5.2577,-5.3381,-5.4281,-5.4058,-5.4239,-5.4576,-5.4017,-5.3794,-5.3794,-5.3794,-5.3794,-5.3794,-5.3794,-5.3794,-5.3794,-7.3963,-7.4287,-7.4623,-7.4623,-7.4644,-7.4664,-7.4664,-7.4685,-7.4705,-7.4705,-7.5056,-7.5274,-7.5274,-7.5654,-7.5917,-7.5947,-7.4894,-7.3695,-7.2395,-7.1199,-6.9934,-6.8641,-6.8518,-6.8481,-6.8481,-6.78,-6.7354,-6.7317,-6.4939,-6.3379,-6.2562,-6.2109,-6.2071,-6.2353,-6.2356,-6.2558,-6.2909,-6.2509,-6.2339,-6.2304,-6.1902,-6.1728,-6.1614,-6.0443,-5.9977,-5.9887,-5.9069,-5.898,-5.9234,-5.9159,-5.9159,-5.9159,-5.9159,-5.9159,-5.9159,-5.9159,-5.8947,-5.8719,-5.8698,-5.8908,-5.8972,-5.824,-5.8226,-5.806,-5.6771,-5.5476,-5.4276,-5.3441,-5.2345,-5.1291,-5.0412,-4.9328,-4.8194,-4.7041,-4.641,-4.5658,-4.451,-4.3843,-4.3089,-4.2156,-4.1316,-4.0424,-3.937,-4.0085,-4.088,-4.146,0.0,0.0,-4.3076,-4.1166,-4.1597,-4.4875,-4.7586,-4.9089,-4.9423,-5.024,-5.0663,-5.0739,-5.146,-5.1921,-5.2075,-5.3689,-5.4308,-5.4091,-5.4553,-5.4591,-5.4262,-5.3963,-5.3794,-5.3794,-5.3794,-5.3794,-5.3794,-5.3794,-5.3794,-5.3794,-7.354,-7.3641,-7.3703,-7.3703,-7.3977,-7.4154,-7.4154,-7.446,-7.4705,-7.4705,-7.4768,-7.4827,-7.4827,-7.4942,-7.513,-7.5451,-7.5533,-7.4889,-7.3306,-7.2296,-7.1051,-6.9459,-6.8816,-6.8481,-6.8481,-6.8296,-6.7924,-6.7317,-6.6091,-6.5088,-6.4233,-6.4101,-6.392,-6.3727,-6.3746,-6.3935,-6.4234,-6.3879,-6.3746,-6.3632,-6.2645,-6.2231,-6.2135,-6.123,-6.089,-6.0778,-5.9924,-5.969,-5.9624,-5.9028,-5.8805,-5.8805,-5.8805,-5.8805,-5.8805,-5.8805,-5.8927,-5.9045,-5.8781,-5.876,-5.8767,-5.8581,-5.7829,-5.6928,-5.6262,-5.5408,-5.4545,-5.3962,-5.2921,-5.1847,-5.1025,-4.9414,-4.7853,-4.6781,-4.596,-4.517,-4.4221,-4.3461,-4.2878,-4.2634,-4.2433,-4.1942,-4.1103,-4.2314,-4.2463,-4.0791,-4.1423,-4.1898,-4.1971,-4.2626,-4.3854,-4.5685,-4.7606,-4.8973,-4.9695,-4.9924,-5.0304,-5.0938,-5.1128,-5.1889,-5.3145,-5.3563,-5.4068,-5.4591,-5.4484,-5.4364,-5.4262,-5.3963,-5.3794,-5.3794,-5.3794,-5.3794,-5.3794,-5.3794,-5.3794,-5.3794,-7.3398,-7.3398,-7.3398,-7.3398,-7.3591,-7.3752,-7.3752,-7.3954,-7.4116,-7.4116,-7.4281,-7.4374,-7.4374,-7.4544,-7.4805,-7.4999,-7.5434,-7.5073,-7.3609,-7.3077,-7.1874,-6.9793,-6.9261,-6.8853,-6.8506,-6.8481,-6.8134,-6.7317,-6.6871,-6.6239,-6.5385,-6.5385,-6.515,-6.4715,-6.4545,-6.4486,-6.4445,-6.4087,-6.3937,-6.3878,-6.3208,-6.297,-6.2859,-6.2041,-6.1744,-6.1633,-6.0815,-6.0258,-5.9828,-5.9404,-5.8995,-5.8698,-5.8698,-5.8698,-5.8698,-5.8698,-5.8825,-5.8908,-5.876,-5.8698,-5.8698,-5.8698,-5.7994,-5.713,-5.6455,-5.5804,-5.5064,-5.3982,-5.3177,-5.2288,-5.108,-4.9227,-4.7634,-4.6657,-4.5472,-4.4544,-4.4061,-4.3615,-4.3503,-4.3912,-4.3949,-4.3912,-4.3838,-4.4618,-4.4581,-4.328,-4.3578,-4.3838,-4.3838,-4.5026,-4.5895,-4.6396,-4.8032,-4.9197,-4.9803,-5.0144,-5.0737,-5.1557,-5.195,-5.2632,-5.3503,-5.392,-5.4262,-5.456,-5.438,-5.4193,-5.4054,-5.3889,-5.3794,-5.3794,-5.3794,-5.3794,-5.3794,-5.3794,-5.3794,-5.3794,-7.3398,-7.3398,-7.3398,-7.3398,-7.3398,-7.3398,-7.3398,-7.3398,-7.3398,-7.3398,-7.3703,-7.3893,-7.3893,-7.4281,-7.454,-7.4602,-7.4904,-7.4657,-7.3641,-7.347,-7.2413,-7.0165,-6.9818,-6.9373,-6.8704,-6.8556,-6.8171,-6.7503,-6.7503,-6.7094,-6.6277,-6.6277,-6.6,-6.5511,-6.5009,-6.4606,-6.4275,-6.3795,-6.3602,-6.3602,-6.3602,-6.3602,-6.3527,-6.2859,-6.2599,-6.2487,-6.167,-6.0927,-6.0258,-6.0147,-5.9552,-5.8884,-5.8884,-5.8809,-5.8698,-5.8698,-5.8698,-5.8698,-5.8698,-5.8698,-5.8698,-5.8698,-5.8308,-5.7735,-5.6986,-5.6333,-5.547,-5.4095,-5.3408,-5.254,-5.1072,-4.909,-4.7441,-4.6624,-4.5101,-4.3986,-4.3986,-4.4098,-4.4469,-4.5212,-4.5398,-4.5732,-4.6438,-4.6513,-4.655,-4.6661,-4.655,-4.655,-4.6661,-4.733,-4.7499,-4.705,-4.8512,-4.9514,-4.9854,-5.0633,-5.145,-5.2281,-5.3014,-5.3429,-5.3581,-5.4314,-5.4495,-5.421,-5.421,-5.4054,-5.3794,-5.3794,-5.3794,-5.3794,-5.3794,-5.3794,-5.3794,-5.3794,-5.3794,-5.3794,-7.3398,-7.3398,-7.3398,-7.3398,-7.3398,-7.3398,-7.3398,-7.3398,-7.3398,-7.3398,-7.345,-7.3464,-7.3464,-7.354,-7.3752,-7.4101,-7.4154,-7.4139,-7.3936,-7.3282,-7.258,-7.1863,-7.0475,-6.9633,-6.9521,-6.8853,-6.8444,-6.8296,-6.8296,-6.7911,-6.7131,-6.7131,-6.6709,-6.5961,-6.5148,-6.4776,-6.4659,-6.3922,-6.3602,-6.3602,-6.3602,-6.3602,-6.3602,-6.3453,-6.3416,-6.3305,-6.2524,-6.2153,-6.193,-6.1224,-6.0444,-5.9717,-5.9717,-5.9255,-5.8698,-5.8698,-5.8698,-5.8698,-5.8698,-5.8698,-5.8698,-5.8698,-5.8145,-5.7516,-5.7404,-5.6235,-5.5137,-5.5197,-5.3846,-5.2453,-5.1731,-4.948,-4.7441,-4.6624,-4.5101,-4.3986,-4.3986,-4.4618,-4.5138,-4.5287,-4.5881,-4.6364,-4.6475,-4.6513,-4.6773,-4.7441,-4.6884,-4.681,-4.7478,-4.7627,-4.7644,-4.7599,-4.8492,-4.9328,-5.0067,-5.0925,-5.1727,-5.2547,-5.2659,-5.3124,-5.3739,-5.3888,-5.3944,-5.3889,-5.3889,-5.3851,-5.3794,-5.3794,-5.3794,-5.3794,-5.3794,-5.3794,-5.3794,-5.3794,-5.3794,-5.3794,-7.3398,-7.3398,-7.3398,-7.3398,-7.3398,-7.3398,-7.3398,-7.3398,-7.3398,-7.3398,-7.3398,-7.3398,-7.3398,-7.3398,-7.3476,-7.3653,-7.3678,-7.3678,-7.3678,-7.3532,-7.3086,-7.2235,-7.1441,-7.0623,-6.9707,-6.889,-6.8481,-6.8481,-6.8481,-6.8296,-6.7924,-6.7924,-6.754,-6.6722,-6.6351,-6.5645,-6.4768,-6.4396,-6.401,-6.3602,-6.3602,-6.3602,-6.3602,-6.3602,-6.3602,-6.3565,-6.3193,-6.2784,-6.2339,-6.1967,-6.1298,-6.0518,-6.0051,-5.9643,-5.9255,-5.8846,-5.8698,-5.8698,-5.8698,-5.8698,-5.8698,-5.8698,-5.8438,-5.8029,-5.7621,-5.6915,-5.6137,-5.5398,-5.4503,-5.3553,-5.2432,-5.0462,-4.889,-4.8519,-4.6327,-4.4989,-4.5881,-4.5584,-4.5621,-4.6475,-4.6921,-4.733,-4.7738,-4.7776,-4.7961,-4.8333,-4.7999,-4.7961,-4.8333,-4.8779,-4.9039,-4.9002,-4.9336,-5.0153,-5.1454,-5.1862,-5.2457,-5.3237,-5.3237,-5.346,-5.3794,-5.3794,-5.3794,-5.3794,-5.3794,-5.3794,-5.3794,-5.3794,-5.3794,-5.3794,-5.3794,-5.3794,-5.3794,-5.3794,-5.3794,-5.3794,-7.3398,-7.3398,-7.3398,-7.3398,-7.3398,-7.3398,-7.3398,-7.3398,-7.3398,-7.3398,-7.3398,-7.3398,-7.3398,-7.3398,-7.3398,-7.3398,-7.3398,-7.3398,-7.3398,-7.3703,-7.3452,-7.2506,-7.2321,-7.1403,-6.9744,-6.9076,-6.8691,-6.8481,-6.8481,-6.8481,-6.8481,-6.8481,-6.8171,-6.7577,-6.7391,-6.6611,-6.5362,-6.4953,-6.4433,-6.3839,-6.3653,-6.3602,-6.3602,-6.3602,-6.3602,-6.3602,-6.3602,-6.3193,-6.2673,-6.2673,-6.2153,-6.1373,-6.0704,-6.037,-6.0035,-5.9218,-5.8846,-5.8698,-5.8698,-5.8698,-5.8698,-5.8698,-5.8698,-5.8549,-5.7918,-5.7621,-5.7138,-5.5874,-5.5429,-5.4834,-5.32,-5.1676,-5.0488,-4.993,-4.759,-4.629,-4.7516,-4.681,-4.6661,-4.8073,-4.8444,-4.8816,-4.941,-4.9485,-4.9485,-4.9485,-4.9485,-4.9485,-4.9485,-5.0116,-5.0525,-5.0673,-5.0673,-5.1305,-5.2605,-5.2791,-5.32,-5.3794,-5.3794,-5.3794,-5.3794,-5.3794,-5.3794,-5.3794,-5.3794,-5.3794,-5.3794,-5.3794,-5.3794,-5.3794,-5.3794,-5.3794,-5.3794,-5.3794,-5.3794,-5.3794,-7.3398,-7.3398,-7.3398,-7.3398,-7.3398,-7.3398,-7.3398,-7.3398,-7.3398,-7.3398,-7.3398,-7.3398,-7.3398,-7.3398,-7.3398,-7.3398,-7.3398,-7.3398,-7.3398,-7.3424,-7.3387,-7.3324,-7.2618,-7.1403,-6.9744,-6.9633,-6.9224,-6.8481,-6.8481,-6.8481,-6.8481,-6.8481,-6.8444,-6.837,-6.7651,-6.7243,-6.702,-6.5436,-6.4768,-6.4656,-6.3899,-6.3602,-6.3602,-6.3602,-6.3602,-6.3602,-6.3602,-6.3565,-6.3527,-6.3527,-6.297,-6.2301,-6.2264,-6.1707,-6.0927,-6.0072,-5.9292,-5.8698,-5.8698,-5.8698,-5.8698,-5.8698,-5.8698,-5.8698,-5.8624,-5.8029,-5.7472,-5.736,-5.6729,-5.5689,-5.4017,-5.3014,-5.1676,-4.9373,-4.8147,-4.7553,-4.7664,-4.8259,-4.8964,-4.9819,-5.0636,-5.1156,-5.1193,-5.1231,-5.1231,-5.1231,-5.1231,-5.1231,-5.1231,-5.1268,-5.1639,-5.2382,-5.2419,-5.2494,-5.2605,-5.3348,-5.3757,-5.3794,-5.3794,-5.3794,-5.3794,-5.3794,-5.3794,-5.3794,-5.3794,-5.3794,-5.3794,-5.3794,-5.3794,-5.3794,-5.3794,-5.3794,-5.3794,-5.3794,-5.3794,-5.3794,-7.4115,-7.3733,-7.3398,-7.3398,-7.3398,-7.3398,-7.3398,-7.3398,-7.3398,-7.3398,-7.3398,-7.3398,-7.3398,-7.3398,-7.3398,-7.3398,-7.3398,-7.3398,-7.3398,-7.3398,-7.3398,-7.3398,-7.2655,-7.1886,-7.1255,-7.0252,-6.9558,-6.9224,-6.8741,-6.8481,-6.8481,-6.8481,-6.8481,-6.8481,-6.8208,-6.78,-6.728,-6.6648,-6.6054,-6.5534,-6.4656,-6.4322,-6.4285,-6.3788,-6.3602,-6.3602,-6.3602,-6.3602,-6.3602,-6.3602,-6.3416,-6.3082,-6.2562,-6.219,-6.167,-6.0274,-5.968,-5.9367,-5.8846,-5.8698,-5.8698,-5.8698,-5.8698,-5.8698,-5.8698,-5.8475,-5.8103,-5.7621,-5.7249,-5.6692,-5.5577,-5.424,-5.32,-5.2754,-5.0711,-4.9559,-5.0599,-5.0116,-4.9968,-5.0822,-5.1193,-5.1416,-5.1416,-5.1416,-5.1416,-5.1416,-5.1416,-5.1416,-5.1416,-5.1862,-5.2531,-5.3311,-5.3348,-5.3348,-5.3348,-5.3645,-5.3794,-5.3794,-5.3794,-5.3794,-5.3794,-5.3794,-5.3794,-5.3794,-5.3794,-5.3794,-5.3794,-5.3794,-5.3794,-5.3794,-5.3794,-5.3794,-5.3794,-5.3794,-5.3794,-5.3794,-7.4635,-7.4179,-7.3696,-7.3435,-7.3398,-7.3398,-7.3398,-7.3398,-7.3398,-7.3398,-7.3398,-7.3398,-7.3398,-7.3398,-7.3398,-7.3398,-7.3398,-7.3398,-7.3398,-7.3398,-7.3398,-7.3398,-7.2878,-7.2469,-7.2209,-7.1069,-7.0252,-6.9707,-6.915,-6.8741,-6.8481,-6.8481,-6.8481,-6.8481,-6.8481,-6.8184,-6.7688,-6.7428,-6.6982,-6.6425,-6.5571,-6.5213,-6.5102,-6.4285,-6.3988,-6.3936,-6.3713,-6.3602,-6.3602,-6.3602,-6.3602,-6.3527,-6.297,-6.2599,-6.219,-6.1038,-6.0333,-5.9754,-5.9255,-5.8884,-5.8698,-5.8698,-5.8698,-5.8698,-5.8698,-5.8698,-5.8549,-5.7992,-5.7881,-5.7621,-5.684,-5.5726,-5.4909,-5.4686,-5.2754,-5.1602,-5.2457,-5.1602,-5.1193,-5.2048,-5.2159,-5.2159,-5.2159,-5.2159,-5.2159,-5.2159,-5.2159,-5.2159,-5.2159,-5.2679,-5.3237,-5.3794,-5.3794,-5.3794,-5.3794,-5.3794,-5.3794,-5.3794,-5.3794,-5.3794,-5.3794,-5.3794,-5.3794,-5.3794,-5.3794,-5.3794,-5.3794,-5.3794,-5.3794,-5.3794,-5.3794,-5.3794,-5.3794,-5.3794,-5.3794,-5.3794,-7.4747,-7.4598,-7.4338,-7.3547,-7.3398,-7.3398,-7.3398,-7.3398,-7.3398,-7.3398,-7.3398,-7.3398,-7.3398,-7.3398,-7.3398,-7.3398,-7.3398,-7.3398,-7.3398,-7.3398,-7.3398,-7.3398,-7.3398,-7.3027,-7.2246,-7.2209,-7.1366,-6.9707,-6.9707,-6.9261,-6.8481,-6.8481,-6.8481,-6.8481,-6.8481,-6.8481,-6.8468,-6.7651,-6.7317,-6.7243,-6.6425,-6.6128,-6.6017,-6.5139,-6.4805,-6.4693,-6.3936,-6.3639,-6.3602,-6.3602,-6.3602,-6.3602,-6.3602,-6.3044,-6.2413,-6.2413,-6.1224,-5.9903,-5.9903,-5.9329,-5.8735,-5.8698,-5.8698,-5.8698,-5.8698,-5.8698,-5.8698,-5.8698,-5.8698,-5.8475,-5.7658,-5.7509,-5.6692,-5.424,-5.3831,-5.3534,-5.2717,-5.2605,-5.2902,-5.372,-5.3794,-5.3794,-5.3794,-5.3794,-5.3794,-5.3794,-5.3794,-5.3794,-5.3794,-5.3794,-5.3794,-5.3794,-5.3794,-5.3794,-5.3794,-5.3794,-5.3794,-5.3794,-5.3794,-5.3794,-5.3794,-5.3794,-5.3794,-5.3794,-5.3794,-5.3794,-5.3794,-5.3794,-5.3794,-5.3794,-5.3794,-5.3794,-5.3794,-5.3794,-5.3794,-5.3794,-7.549,-7.497,-7.4338,-7.3547,-7.3398,-7.3398,-7.3398,-7.3398,-7.3398,-7.3398,-7.3398,-7.3398,-7.3398,-7.3398,-7.3398,-7.3398,-7.3398,-7.3398,-7.3398,-7.3398,-7.3398,-7.3398,-7.3398,-7.3287,-7.3064,-7.2506,-7.1663,-7.0524,-6.9967,-6.9261,-6.8481,-6.8481,-6.8481,-6.8481,-6.8481,-6.8481,-6.8506,-6.8246,-6.8134,-6.8073,-6.728,-6.6945,-6.6871,-6.6054,-6.5719,-6.5682,-6.5459,-6.4976,-6.4433,-6.4433,-6.4062,-6.3602,-6.3602,-6.3453,-6.3156,-6.2562,-6.2041,-6.141,-6.0221,-5.9738,-5.9383,-5.8846,-5.8698,-5.8698,-5.8698,-5.8698,-5.8698,-5.8698,-5.8698,-5.8624,-5.8401,-5.7881,-5.7249,-5.6506,-5.5912,-5.528,-5.4426,-5.4277,-5.4166,-5.3831,-5.3794,-5.3794,-5.3794,-5.3794,-5.3794,-5.3794,-5.3794,-5.3794,-5.3794,-5.3794,-5.3794,-5.3794,-5.3794,-5.3794,-5.3794,-5.3794,-5.3794,-5.3794,-5.3794,-5.3794,-5.3794,-5.3794,-5.3794,-5.3794,-5.3794,-5.3794,-5.3794,-5.3794,-5.3794,-5.3794,-5.3794,-5.3794,-5.3794,-5.3794,-5.3794,-5.3794,-7.5453,-7.4933,-7.4338,-7.3547,-7.3398,-7.3398,-7.3398,-7.3398,-7.3398,-7.3398,-7.3398,-7.3398,-7.3398,-7.3398,-7.3398,-7.3398,-7.3398,-7.3398,-7.3398,-7.3398,-7.3398,-7.3398,-7.3398,-7.3398,-7.3398,-7.2915,-7.2258,-7.1403,-7.0561,-6.9744,-6.8964,-6.863,-6.8481,-6.8481,-6.8481,-6.8481,-6.8481,-6.8481,-6.8481,-6.8444,-6.7986,-6.78,-6.7688,-6.6871,-6.6574,-6.6537,-6.6202,-6.5756,-6.5274,-6.4916,-6.427,-6.3602,-6.3602,-6.3602,-6.3527,-6.3044,-6.2673,-6.219,-6.115,-6.0407,-5.9754,-5.9292,-5.8958,-5.8698,-5.8698,-5.8698,-5.8698,-5.8698,-5.8698,-5.8698,-5.8698,-5.8326,-5.7881,-5.7546,-5.71,-5.6469,-5.5652,-5.5503,-5.5206,-5.4388,-5.4277,-5.4166,-5.3831,-5.3794,-5.3794,-5.3794,-5.3794,-5.3794,-5.3794,-5.3794,-5.3794,-5.3794,-5.3794,-5.3794,-5.3794,-5.3794,-5.3794,-5.3794,-5.3794,-5.3794,-5.3794,-5.3794,-5.3794,-5.3794,-5.3794,-5.3794,-5.3794,-5.3794,-5.3794,-5.3794,-5.3794,-5.3794,-5.3794,-5.3794,-5.3794,-5.3794,-7.4896,-7.4524,-7.4264,-7.3547,-7.3398,-7.3398,-7.3398,-7.3398,-7.3398,-7.3398,-7.3398,-7.3398,-7.3398,-7.3398,-7.3398,-7.3398,-7.3398,-7.3398,-7.3398,-7.3398,-7.3398,-7.3398,-7.3398,-7.3398,-7.3398,-7.3398,-7.3027,-7.2209,-7.1403,-7.0561,-6.967,-6.8927,-6.858,-6.8481,-6.8481,-6.8481,-6.8481,-6.8481,-6.8481,-6.8481,-6.8481,-6.8481,-6.8431,-6.7688,-6.7428,-6.7317,-6.6574,-6.6277,-6.6054,-6.5102,-6.4285,-6.3713,-6.3616,-6.3602,-6.3602,-6.3602,-6.3082,-6.2487,-6.2413,-6.1298,-6.011,-5.9961,-5.9346,-5.8809,-5.8735,-5.8698,-5.8698,-5.8698,-5.8698,-5.8698,-5.8698,-5.8698,-5.8475,-5.7732,-5.7621,-5.7323,-5.6506,-5.6432,-5.6097,-5.5243,-5.5131,-5.4797,-5.398,-5.3831,-5.3794,-5.3794,-5.3794,-5.3794,-5.3794,-5.3794,-5.3794,-5.3794,-5.3794,-5.3794,-5.3794,-5.3794,-5.3794,-5.3794,-5.3794,-5.3794,-5.3794,-5.3794,-5.3794,-5.3794,-5.3794,-5.3794,-5.3794,-5.3794,-5.3794,-5.3794,-5.3794,-5.3794,-5.3794,-5.3794,-5.3775,-5.3775,-7.4673,-7.4078,-7.3621,-7.3435,-7.3398,-7.3398,-7.3398,-7.3398,-7.3398,-7.3398,-7.3398,-7.3398,-7.3398,-7.3398,-7.3398,-7.3398,-7.3398,-7.3398,-7.3398,-7.3398,-7.3398,-7.3398,-7.3398,-7.3398,-7.3398,-7.3398,-7.3027,-7.2209,-7.1998,-7.1143,-6.9707,-6.9521,-6.9076,-6.8481,-6.8481,-6.8481,-6.8481,-6.8481,-6.8481,-6.8481,-6.8481,-6.8481,-6.8506,-6.8296,-6.8246,-6.8221,-6.8036,-6.7577,-6.6834,-6.5287,-6.4656,-6.4433,-6.3802,-6.3602,-6.3602,-6.3602,-6.349,-6.3193,-6.2562,-6.2153,-6.1558,-6.0221,-5.9754,-5.9457,-5.8846,-5.8698,-5.8698,-5.8698,-5.8698,-5.8698,-5.8698,-5.8698,-5.8661,-5.8475,-5.8438,-5.8178,-5.736,-5.7249,-5.6952,-5.6134,-5.6023,-5.5689,-5.4834,-5.4166,-5.3794,-5.3794,-5.3794,-5.3794,-5.3794,-5.3794,-5.3794,-5.3794,-5.3794,-5.3794,-5.3794,-5.3794,-5.3794,-5.3794,-5.3794,-5.3794,-5.3794,-5.3794,-5.3794,-5.3794,-5.3794,-5.3794,-5.3794,-5.3794,-5.3794,-5.3794,-5.3794,-5.3794,-5.3794,-5.3794,-5.3774,-5.3696,-7.4104,-7.367,-7.3398,-7.3398,-7.3398,-7.3398,-7.3398,-7.3398,-7.3398,-7.3398,-7.3398,-7.3398,-7.3398,-7.3398,-7.3398,-7.3398,-7.3398,-7.3398,-7.3398,-7.3398,-7.3346,-7.3331,-7.3305,-7.3278,-7.3225,-7.3278,-7.3135,-7.2767,-7.2395,-7.1552,-7.0264,-6.9855,-6.9261,-6.8481,-6.8481,-6.8481,-6.8481,-6.8481,-6.8481,-6.8481,-6.8481,-6.8481,-6.8481,-6.8481,-6.8481,-6.8481,-6.8481,-6.7961,-6.7168,-6.629,-6.5436,-6.473,-6.4285,-6.3936,-6.3602,-6.3602,-6.3602,-6.3527,-6.3082,-6.271,-6.219,-6.1336,-6.0518,-5.9701,-5.8884,-5.8698,-5.8698,-5.8698,-5.8698,-5.8698,-5.8698,-5.8698,-5.8698,-5.8698,-5.8698,-5.8549,-5.8141,-5.8066,-5.7769,-5.6989,-5.6878,-5.6543,-5.5689,-5.5243,-5.4983,-5.4983,-5.4983,-5.4983,-5.4983,-5.4983,-5.4983,-5.4983,-5.4983,-5.4797,-5.4388,-5.4388,-5.4203,-5.3794,-5.3794,-5.3794,-5.3794,-5.3794,-5.3794,-5.3794,-5.3794,-5.3794,-5.3794,-5.3794,-5.3793,-5.3754,-5.3754,-5.3716,-5.3639,-5.3639,-5.3657,-5.3598,-7.3547,-7.3398,-7.3372,-7.3346,-7.3383,-7.3383,-7.3383,-7.3383,-7.3346,-7.3372,-7.3398,-7.3398,-7.3398,-7.3398,-7.3398,-7.3398,-7.3398,-7.3372,-7.3346,-7.3383,-7.3331,-7.3172,-7.3172,-7.3118,-7.3009,-7.3118,-7.3252,-7.3383,-7.2704,-7.1961,-7.1081,-7.0264,-6.9484,-6.8704,-6.8556,-6.8481,-6.8481,-6.8481,-6.8481,-6.8481,-6.8481,-6.8481,-6.8481,-6.8481,-6.8481,-6.8481,-6.8481,-6.8073,-6.7503,-6.7354,-6.6388,-6.5176,-6.4879,-6.4322,-6.3788,-6.3639,-6.3602,-6.3602,-6.3602,-6.3119,-6.2562,-6.245,-6.1373,-6.0072,-5.9144,-5.8809,-5.8698,-5.8698,-5.8698,-5.8698,-5.8698,-5.8698,-5.8698,-5.8698,-5.8698,-5.8698,-5.8698,-5.8698,-5.8475,-5.7769,-5.7583,-5.7249,-5.658,-5.6395,-5.632,-5.632,-5.632,-5.632,-5.632,-5.632,-5.632,-5.632,-5.632,-5.5949,-5.5243,-5.5243,-5.4834,-5.4017,-5.4017,-5.3943,-5.3794,-5.3794,-5.3794,-5.3794,-5.3794,-5.3794,-5.3794,-5.3812,-5.3754,-5.3696,-5.3694,-5.3598,-5.3538,-5.3461,-5.3461,-5.3461,-7.3435,-7.3398,-7.3346,-7.3252,-7.3225,-7.3225,-7.3225,-7.3225,-7.3278,-7.3372,-7.3398,-7.3398,-7.3398,-7.3398,-7.3398,-7.3398,-7.3398,-7.332,-7.3225,-7.3225,-7.3172,-7.3037,-7.3009,-7.3009,-7.2982,-7.3118,-7.3199,-7.3225,-7.3209,-7.2841,-7.2023,-7.1143,-7.0301,-6.9484,-6.8816,-6.8481,-6.8481,-6.8481,-6.8481,-6.8481,-6.8481,-6.8481,-6.8481,-6.8481,-6.8481,-6.8481,-6.8481,-6.8407,-6.8246,-6.754,-6.7168,-6.6722,-6.525,-6.473,-6.4508,-6.3802,-6.3602,-6.3602,-6.3602,-6.3527,-6.3267,-6.2562,-6.2227,-6.167,-6.011,-5.9218,-5.8698,-5.8698,-5.8698,-5.8698,-5.8698,-5.8698,-5.8698,-5.8698,-5.8698,-5.8698,-5.8698,-5.8698,-5.8661,-5.8549,-5.7918,-5.7472,-5.736,-5.6729,-5.632,-5.632,-5.632,-5.632,-5.632,-5.632,-5.632,-5.632,-5.632,-5.6246,-5.6134,-5.6134,-5.5689,-5.4834,-5.4834,-5.4463,-5.3794,-5.3794,-5.3794,-5.3794,-5.3794,-5.3794,-5.3775,-5.3735,-5.3735,-5.3793,-5.358,-5.3578,-5.3617,-5.34,-5.3339,-5.3339,-7.3305,-7.3225,-7.3172,-7.3091,-7.3091,-7.3091,-7.3091,-7.3145,-7.3225,-7.3278,-7.3346,-7.3398,-7.3398,-7.3398,-7.3346,-7.3305,-7.3305,-7.3225,-7.3091,-7.3091,-7.3009,-7.2835,-7.2807,-7.2816,-7.2695,-7.2835,-7.2918,-7.2918,-7.3241,-7.299,-7.2209,-7.1812,-7.0958,-6.967,-6.9335,-6.8927,-6.8481,-6.8481,-6.8481,-6.8481,-6.8481,-6.8481,-6.8481,-6.8481,-6.8481,-6.8481,-6.8481,-6.8481,-6.8468,-6.8097,-6.7688,-6.7168,-6.6425,-6.5547,-6.473,-6.4359,-6.3951,-6.3602,-6.3602,-6.3557,-6.3377,-6.3043,-6.2598,-6.2079,-6.1337,-6.0231,-5.9255,-5.8809,-5.8698,-5.8698,-5.8698,-5.8698,-5.8698,-5.8698,-5.8698,-5.8698,-5.8698,-5.8698,-5.8698,-5.8698,-5.8401,-5.8178,-5.8178,-5.7843,-5.7658,-5.7658,-5.7658,-5.7658,-5.7658,-5.7658,-5.7658,-5.7658,-5.7658,-5.7435,-5.6989,-5.6989,-5.6543,-5.5726,-5.5726,-5.5057,-5.3794,-5.3794,-5.3794,-5.3794,-5.3794,-5.3793,-5.3735,-5.3714,-5.3617,-5.3521,-5.342,-5.3416,-5.3433,-5.3293,-5.3251,-5.3272]},{"header":{"parameterUnit":"m.s-1","parameterCategory":1,"la1":30.6,"la2":28.766,"lo1":-90.7593,"lo2":-88.6598,"dy":0.0162,"dx":0.0183,"nx":116,"ny":114,"refTime":"2024-06-03T18:00:00:Z","depth":0,"parameterNumber":3,"parameterNumberName":"V-component_of_WINDS"},"data":[0.0,0.0,0.0,0.0,0.0,0.0,0.0,0.0,0.0,0.0,0.0,0.0,0.0,0.0,0.0,0.0,0.0,0.0,0.0,0.0,0.0,0.0,0.0,0.0,0.0,0.0,0.0,0.0,0.0,0.0,0.0,0.0,0.0,0.0,0.0,0.0,0.0,0.0,0.0,0.0,0.0,0.0,0.0,0.0,0.0,0.0,0.0,0.0,0.0,0.0,0.0,0.0,0.0,0.0,0.0,0.0,0.0,0.0,0.0,0.0,0.0,0.0,0.0,0.0,0.0,0.0,0.0,0.0,0.0,0.0,0.0,0.0,0.0,0.0,0.0,0.0,0.0,0.0,0.0,0.0,0.0,0.0,0.0,0.0,0.0,0.0,0.0,0.0,0.0,0.0,0.0,0.0,0.0,0.0,0.0,0.0,0.0,0.0,0.0,0.0,0.0,0.0,0.0,0.0,0.0,0.0,0.0,0.0,0.0,0.0,0.0,0.0,0.0,0.0,0.0,0.0,0.0,0.0,0.0,0.0,0.0,0.0,0.0,0.0,0.0,0.0,0.0,0.0,0.0,0.0,0.0,0.0,0.0,0.0,0.0,0.0,0.0,0.0,0.0,0.0,0.0,0.0,0.0,0.0,0.0,0.0,0.0,0.0,0.0,0.0,0.0,0.0,0.0,0.0,0.0,0.0,0.0,0.0,0.0,0.0,0.0,0.0,0.0,0.0,0.0,0.0,0.0,0.0,0.0,0.0,0.0,0.0,0.0,0.0,0.0,0.0,0.0,0.0,0.0,0.0,0.0,0.0,0.0,0.0,0.0,0.0,0.0,0.0,0.0,0.0,0.0,0.0,0.0,0.0,0.0,0.0,0.0,0.0,0.0,0.0,0.0,0.0,0.0,0.0,0.0,0.0,0.0,0.0,0.0,0.0,0.0,0.0,0.0,0.0,0.0,0.0,0.0,0.0,0.0,0.0,0.0,0.0,0.0,0.0,0.0,0.0,0.0,0.0,0.0,0.0,0.0,0.0,0.0,0.0,0.0,0.0,0.0,0.0,0.0,0.0,0.0,0.0,0.0,0.0,0.0,0.0,0.0,0.0,0.0,0.0,0.0,0.0,0.0,0.0,0.0,0.0,0.0,0.0,0.0,0.0,0.0,0.0,0.0,0.0,0.0,0.0,0.0,0.0,0.0,0.0,0.0,0.0,0.0,0.0,0.0,0.0,0.0,0.0,0.0,0.0,0.0,0.0,0.0,0.0,0.0,0.0,0.0,0.0,0.0,0.0,0.0,0.0,0.0,0.0,0.0,0.0,0.0,0.0,0.0,0.0,0.0,0.0,0.0,0.0,0.0,0.0,0.0,0.0,0.0,0.0,0.0,0.0,0.0,0.0,0.0,0.0,0.0,0.0,0.0,0.0,0.0,0.0,0.0,0.0,0.0,0.0,0.0,0.0,0.0,0.0,0.0,0.0,0.0,0.0,0.0,0.0,0.0,0.0,0.0,0.0,0.0,0.0,0.0,0.0,0.0,0.0,0.0,0.0,0.0,0.0,0.0,0.0,0.0,0.0,0.0,0.0,0.0,0.0,0.0,0.0,0.0,0.0,0.0,0.0,0.0,0.0,0.0,0.0,0.0,0.0,0.0,0.0,0.0,0.0,0.0,0.0,0.0,0.0,0.0,0.0,0.0,0.0,0.0,0.0,0.0,0.0,0.0,0.0,0.0,0.0,0.0,0.0,0.0,0.0,0.0,0.0,0.0,0.0,0.0,0.0,0.0,0.0,0.0,0.0,0.0,0.0,0.0,0.0,0.0,0.0,0.0,0.0,0.0,0.0,0.0,0.0,0.0,0.0,0.0,0.0,0.0,0.0,0.0,0.0,0.0,0.0,0.0,0.0,0.0,0.0,0.0,0.0,0.0,0.0,0.0,0.0,0.0,0.0,0.0,0.0,0.0,0.0,0.0,0.0,0.0,0.0,0.0,0.0,0.0,0.0,0.0,0.0,0.0,0.0,0.0,0.0,0.0,0.0,0.0,0.0,0.0,0.0,0.0,0.0,0.0,0.0,0.0,0.0,0.0,0.0,0.0,0.0,0.0,0.0,0.0,0.0,0.0,0.0,0.0,0.0,0.0,0.0,0.0,0.0,0.0,0.0,0.0,0.0,0.0,0.0,0.0,0.0,0.0,0.0,0.0,0.0,0.0,0.0,0.0,0.0,0.0,0.0,0.0,0.0,0.0,0.0,0.0,0.0,0.0,0.0,0.0,0.0,0.0,0.0,0.0,0.0,0.0,0.0,0.0,0.0,0.0,0.0,0.0,0.0,0.0,0.0,0.0,0.0,0.0,0.0,0.0,0.0,0.0,0.0,0.0,0.0,0.0,0.0,0.0,0.0,0.0,0.0,0.0,0.0,0.0,0.0,0.0,0.0,0.0,0.0,0.0,0.0,0.0,0.0,0.0,0.0,0.0,0.0,0.0,0.0,0.0,0.0,0.0,0.0,0.0,0.0,0.0,0.0,0.0,0.0,0.0,0.0,0.0,0.0,0.0,0.0,0.0,0.0,0.0,0.0,0.0,0.0,0.0,0.0,0.0,0.0,0.0,0.0,0.0,0.0,0.0,0.0,0.0,0.0,0.0,0.0,0.0,0.0,0.0,0.0,0.0,0.0,0.0,0.0,0.0,0.0,0.0,0.0,0.0,0.0,0.0,0.0,0.0,0.0,0.0,0.0,0.0,0.0,0.0,0.0,0.0,0.0,0.0,0.0,0.0,0.0,0.0,0.0,0.0,0.0,0.0,0.0,0.0,0.0,0.0,0.0,0.0,0.0,0.0,0.0,0.0,0.0,0.0,0.0,0.0,0.0,0.0,0.0,0.0,0.0,0.0,0.0,0.0,0.0,0.0,0.0,0.0,0.0,0.0,0.0,0.0,0.0,0.0,0.0,0.0,0.0,0.0,0.0,0.0,0.0,0.0,0.0,0.0,0.0,0.0,0.0,0.0,0.0,0.0,0.0,0.0,0.0,0.0,0.0,0.0,0.0,0.0,0.0,0.0,0.0,0.0,0.0,0.0,0.0,0.0,0.0,0.0,0.0,0.0,0.0,0.0,0.0,0.0,0.0,0.0,0.0,0.0,0.0,0.0,0.0,0.0,0.0,0.0,0.0,0.0,0.0,0.0,0.0,0.0,0.0,0.0,0.0,0.0,0.0,0.0,0.0,0.0,0.0,0.0,0.0,0.0,0.0,0.0,0.0,0.0,0.0,0.0,0.0,0.0,0.0,0.0,0.0,0.0,0.0,0.0,0.0,0.0,0.0,0.0,0.0,0.0,0.0,0.0,0.0,0.0,0.0,0.0,0.0,0.0,0.0,0.0,0.0,0.0,0.0,0.0,0.0,0.0,0.0,0.0,0.0,0.0,0.0,0.0,0.0,0.0,0.0,0.0,0.0,0.0,0.0,0.0,0.0,0.0,0.0,0.0,0.0,0.0,0.0,0.0,0.0,0.0,0.0,0.0,0.0,0.0,0.0,0.0,0.0,0.0,0.0,0.0,0.0,0.0,0.0,0.0,0.0,0.0,0.0,0.0,0.0,0.0,0.0,0.0,0.0,0.0,0.0,0.0,0.0,0.0,0.0,0.0,0.0,0.0,0.0,0.0,0.0,0.0,0.0,0.0,0.0,0.0,0.0,0.0,0.0,0.0,0.0,0.0,0.0,0.0,0.0,0.0,0.0,0.0,0.0,0.0,0.0,0.0,0.0,0.0,0.0,0.0,0.0,0.0,0.0,0.0,0.0,0.0,0.0,0.0,0.0,0.0,0.0,0.0,0.0,0.0,0.0,0.0,0.0,0.0,0.0,0.0,0.0,0.0,0.0,0.0,0.0,0.0,0.0,0.0,0.0,0.0,0.0,0.0,0.0,0.0,0.0,0.0,0.0,0.0,0.0,0.0,0.0,0.0,0.0,0.0,0.0,0.0,0.0,0.0,0.0,0.0,0.0,0.0,0.0,0.0,0.0,0.0,0.0,0.0,0.0,0.0,0.0,0.0,0.0,0.0,0.0,0.0,0.0,0.0,0.0,0.0,0.0,0.0,0.0,0.0,0.0,0.0,0.0,0.0,0.0,0.0,0.0,0.0,0.0,0.0,0.0,0.0,0.0,0.0,0.0,0.0,0.0,0.0,0.0,0.0,0.0,0.0,0.0,0.0,0.0,0.0,0.0,0.0,0.0,0.0,0.0,0.0,0.0,0.0,0.0,0.0,0.0,0.0,0.0,0.0,0.0,0.0,0.0,0.0,0.0,0.0,0.0,0.0,0.0,0.0,0.0,0.0,0.0,0.0,0.0,0.0,0.0,0.0,0.0,0.0,0.0,0.0,0.0,0.0,0.0,0.0,0.0,0.0,0.0,0.0,0.0,0.0,0.0,0.0,0.0,0.0,0.0,0.0,0.0,0.0,0.0,0.0,0.0,0.0,0.0,0.0,0.0,0.0,0.0,0.0,0.0,0.0,0.0,0.0,0.0,0.0,0.0,0.0,0.0,0.0,0.0,0.0,0.0,0.0,0.0,0.0,0.0,0.0,0.0,0.0,0.0,0.0,0.0,0.0,0.0,0.0,0.0,0.0,0.0,0.0,0.0,0.0,0.0,0.0,0.0,0.0,0.0,0.0,0.0,0.0,0.0,0.0,0.0,0.0,0.0,0.0,0.0,0.0,0.0,0.0,0.0,0.0,0.0,0.0,0.0,0.0,0.0,0.0,0.0,0.0,0.0,0.0,0.0,0.0,0.0,0.0,0.0,0.0,0.0,0.0,0.0,0.0,0.0,0.0,0.0,0.0,0.0,0.0,0.0,0.0,0.0,0.0,0.0,0.0,0.0,0.0,0.0,0.0,0.0,0.0,0.0,0.0,0.0,0.0,0.0,0.0,0.0,0.0,0.0,0.0,0.0,0.0,0.0,0.0,0.0,0.0,0.0,0.0,0.0,0.0,0.0,0.0,0.0,0.0,0.0,0.0,0.0,0.0,0.0,0.0,0.0,0.0,0.0,0.0,0.0,0.0,0.0,0.0,0.0,0.0,0.0,0.0,0.0,0.0,0.0,0.0,0.0,0.0,0.0,0.0,0.0,0.0,0.0,0.0,0.0,0.0,0.0,0.0,0.0,0.0,0.0,0.0,0.0,0.0,0.0,0.0,0.0,0.0,0.0,0.0,0.0,0.0,0.0,0.0,0.0,0.0,0.0,0.0,0.0,0.0,0.0,0.0,0.0,0.0,0.0,0.0,0.0,0.0,0.0,0.0,0.0,0.0,0.0,0.0,0.0,0.0,0.0,0.0,0.0,0.0,0.0,0.0,0.0,0.0,0.0,0.0,0.0,0.0,0.0,0.0,0.0,0.0,0.0,0.0,0.0,0.0,0.0,0.0,0.0,0.0,0.0,0.0,0.0,0.0,0.0,0.0,0.0,0.0,0.0,0.0,0.0,0.0,0.0,0.0,0.0,0.0,0.0,0.0,0.0,0.0,0.0,0.0,0.0,0.0,0.0,0.0,0.0,0.0,0.0,0.0,0.0,0.0,0.0,0.0,0.0,0.0,0.0,0.0,0.0,0.0,0.0,0.0,0.0,0.0,0.0,0.0,0.0,0.0,0.0,0.0,0.0,0.0,0.0,0.0,0.0,0.0,0.0,0.0,0.0,0.0,0.0,0.0,0.0,0.0,0.0,0.0,0.0,0.0,0.0,0.0,0.0,0.0,0.0,0.0,0.0,0.0,0.0,0.0,0.0,0.0,0.0,0.0,0.0,0.0,0.0,0.0,0.0,0.0,0.0,0.0,0.0,0.0,0.0,0.0,0.0,0.0,0.0,0.0,0.0,0.0,0.0,0.0,0.0,0.0,0.0,0.0,0.0,0.0,0.0,0.0,0.0,0.0,0.0,0.0,0.0,0.0,0.0,0.0,0.0,0.0,0.0,0.0,0.0,0.0,0.0,0.0,0.0,0.0,0.0,0.0,0.0,0.0,0.0,0.0,0.0,0.0,0.0,0.0,0.0,0.0,0.0,0.0,0.0,0.0,0.0,0.0,0.0,0.0,0.0,0.0,0.0,0.0,0.0,0.0,0.0,0.0,-0.0106,0.0,0.0,0.0,0.0,0.0,0.0,0.0,0.0,0.0,0.0,0.0,0.0,0.0,0.0,0.0,0.0,0.0,0.0,0.0,0.0,0.0,0.0,0.0,0.3748,0.3579,0.3555,0.3327,0.316,0.316,0.0,0.0,0.0,0.0,0.0,0.3951,0.4029,0.3992,0.3823,0.4007,0.353,0.249,0.2107,0.1243,0.0,0.0,0.0,0.0,0.0,0.0,0.0,0.0,0.0,0.0,0.0,0.0,0.0,0.0,0.0,0.0,0.0,0.0,0.0,0.0,0.0,0.0,0.0,0.0,0.0,0.0,0.0,0.0,0.0,0.0,0.0,0.0,0.0,0.0,0.0,0.0,0.0,0.0,0.0,0.0,0.0,0.0,0.0,0.0,0.0,0.0,0.0,0.0,0.0,0.0,0.0,0.0,0.0,0.0,0.0,0.0,0.0,0.0,0.0,0.0,0.0,0.0,0.0,0.0,0.0,0.0,0.0,0.0,0.0,0.0,0.0,0.0,-0.0161,0.0,0.0,0.0,0.0,0.0,0.0,0.0,0.0,0.0,0.0,0.0,0.0,0.0,0.0,0.0,0.0,0.0,0.0,0.0,0.0,0.0,0.3526,0.395,0.3717,0.3401,0.3109,0.2775,0.2603,0.2703,0.283,0.0,0.0,0.0,0.4166,0.411,0.4351,0.4358,0.4083,0.412,0.3447,0.2093,0.2269,0.1612,0.0263,0.0092,0.0,0.0,0.0,0.0,0.0,0.0,0.0,0.0,0.0,0.0,0.0,0.0,0.0,0.0,0.0,0.0,0.0,0.0,0.0,0.0,0.0,0.0,0.0,0.0,0.0,0.0,0.0,0.0,0.0,0.0,0.0,0.0,0.0,0.0,0.0,0.0,0.0,0.0,0.0,0.0,0.0,0.0,0.0,0.0,0.0,0.0,0.0,0.0,0.0,0.0,0.0,0.0,0.0,0.0,0.0,0.0,0.0,0.0,0.0,0.0,0.0,0.0,0.0,-0.0619,-0.0472,-0.0105,-0.0107,-0.0054,0.0,0.0,-0.0235,-0.0563,-0.0513,0.0,0.0,0.0,0.0,0.0,0.0,0.0,0.0,0.0,0.0,0.0,0.0,0.0,0.0,0.0,0.0,0.0,0.0,0.0,0.367,0.3957,0.3491,0.3145,0.3107,0.2473,0.2264,0.2677,0.2836,0.0,0.3216,0.3855,0.4021,0.3683,0.4159,0.4028,0.3275,0.2644,0.1989,0.1279,0.221,0.2196,0.1331,0.041,0.0,0.0,0.0,0.0,0.0,0.0,0.0,0.0,0.0,0.0,0.0,0.0,0.0,0.0,0.0,0.0,0.0,0.0,0.0,0.0,0.0,0.0,0.0,0.0,0.0,0.0,0.0,0.0,0.0,0.0,0.0,0.0,0.0,0.0,0.0,0.0,0.0,0.0,0.0,0.0,0.0,0.0,0.0,0.0,0.0,0.0,0.0,0.0,0.0,0.0,0.0,0.0,0.0,0.0,0.0,0.0,0.0,0.0,-0.1308,-0.1605,-0.1718,-0.1604,-0.1264,-0.1365,-0.1024,-0.0422,-0.0423,-0.0303,0.0,0.0,0.0,-0.0102,-0.0244,0.0,0.0,0.0,0.0,0.0,0.0,0.0,0.0,0.0,0.0,0.0,0.0,0.0,0.0,0.0,0.0,0.0,0.0,0.0,0.0,0.0,0.4048,0.3577,0.283,0.246,0.2105,0.1721,0.1754,0.216,0.3054,0.3411,0.3722,0.4039,0.4428,0.4301,0.3609,0.2884,0.2061,0.1256,0.173,0.1825,0.1579,0.1096,0.1186,0.1623,0.0492,0.0,0.0,0.0,0.0,0.0,0.0,0.0,0.0,0.0,0.0,0.0,0.0,0.0,0.0,0.0,0.0,0.0,0.0,0.0,0.0,0.0,0.0,0.0,0.0,0.0,0.0,0.0,0.0,0.0,0.0,0.0,0.0,0.0,0.0,0.0,0.0,0.0,0.0,0.0,0.0,0.0,0.0,0.0,0.0,0.0,0.0,0.0,0.0,0.0,0.0,0.0,0.0,0.0,-0.0827,-0.1351,-0.1677,-0.1831,-0.1917,-0.1777,-0.147,-0.1516,-0.1276,-0.0823,-0.083,-0.0765,-0.0633,-0.0633,-0.0614,-0.0579,-0.0381,-0.0508,-0.0898,0.0,0.0,0.0,0.0,-0.0961,-0.087,0.0,0.0,0.0,0.0,0.0,0.0,0.0,0.0,0.0,0.0,0.0,0.0,0.4505,0.4516,0.4109,0.3103,0.2809,0.2427,0.1711,0.1438,0.1791,0.2932,0.3049,0.3388,0.3971,0.4116,0.3897,0.327,0.25,0.1792,0.1036,0.1314,0.151,0.1628,0.1896,0.2383,0.2944,0.14,0.1155,0.1714,0.0,0.0,0.0,0.0,0.0,0.0,0.0,0.0,0.0,0.0,0.0,0.0,0.0,0.0,0.0,0.0,0.0,0.0,0.0,0.0,0.0,0.0,0.0,0.0,0.0,0.0,0.0,0.0,0.0,0.0,0.0,0.0,0.0,0.0,0.0,0.0,0.0,0.0,0.0,0.0,0.0,0.0,0.0,0.0,0.0,0.0,0.0,0.0,0.0,-0.0425,-0.0774,-0.0925,-0.1427,-0.1763,-0.1977,-0.2027,-0.1925,-0.1668,-0.1705,-0.1582,-0.1239,-0.1253,-0.1186,-0.1108,-0.1108,-0.11,-0.108,-0.0652,-0.0778,-0.1155,-0.1118,-0.1229,-0.1341,-0.1331,-0.1333,-0.1278,0.0,0.0,0.0,0.0,0.0,0.0,0.0,0.0,0.0,0.0,0.0,0.4314,0.4646,0.459,0.4456,0.441,0.371,0.3416,0.3737,0.2846,0.2427,0.26,0.2916,0.3022,0.2879,0.2654,0.2102,0.1243,0.0528,0.0099,0.0101,0.1107,0.161,0.1662,0.2663,0.3122,0.3178,0.2964,0.2835,0.2726,0.1723,0.0,0.0,0.0,0.0,0.0,0.0,0.0,0.0,0.0,0.0,0.0,0.0,0.0,0.0,0.0,0.0,0.0,0.0,0.0,0.0,0.0,0.0,0.0,0.0,0.0,0.0,0.0,0.0,0.0,0.0,0.0,0.0,0.0,0.0,0.0,0.0,0.0,0.0,0.0,0.0,0.0,0.0,0.0,0.0,0.0,0.0,0.0,0.0,0.0,-0.0365,-0.1004,-0.1083,-0.1423,-0.2099,-0.2132,-0.2147,-0.2147,-0.2151,-0.195,-0.1545,-0.1546,-0.1412,-0.1074,-0.1074,-0.1133,-0.1114,-0.1065,-0.1206,-0.1402,-0.1377,-0.1523,-0.1778,-0.178,-0.1614,-0.1446,0.0,0.0,0.0,0.0,0.0,0.2798,0.3054,0.3162,0.3404,0.388,0.4287,0.468,0.5112,0.5351,0.528,0.4815,0.4511,0.4033,0.3358,0.2854,0.2906,0.3609,0.3542,0.3525,0.3559,0.2238,0.148,0.1296,0.0444,0.0,0.0,0.111,0.1965,0.267,0.3726,0.4614,0.5156,0.3733,0.3429,0.3821,0.2804,0.2147,0.0,0.0,0.0,0.0,0.0,0.0,0.0,0.0,0.0,0.0,0.0,0.0,0.0,0.0,0.0,0.0,0.0,0.0,0.0,0.0,0.0,0.0,0.0,0.0,0.0,0.0,0.0,0.0,0.0,0.0,0.0,0.0,0.0,0.0,0.0,0.0,0.0,0.0,0.0,0.0,0.0,0.0,0.0,0.0,0.0,0.0,0.0,-0.019,-0.0581,-0.1053,-0.1323,-0.1662,-0.2138,-0.2216,-0.2223,-0.2223,-0.2223,-0.2154,-0.1952,-0.1952,-0.1952,-0.1818,-0.1818,-0.1813,-0.1803,-0.1775,-0.166,-0.1478,-0.1469,-0.1624,-0.1883,-0.1883,-0.1812,-0.1737,0.0,0.0,0.0,0.0,0.2696,0.2798,0.3054,0.3209,0.3484,0.4004,0.449,0.4958,0.5487,0.5908,0.6022,0.5612,0.5463,0.5053,0.4199,0.3638,0.3609,0.4207,0.3686,0.3217,0.2962,0.1784,0.1085,0.095,0.0304,0.0205,0.0617,0.1276,0.2187,0.3301,0.4343,0.5186,0.5772,0.4735,0.4564,0.4966,0.3879,0.3243,0.2805,0.0,0.0,0.0,0.0,0.0,0.0,0.0,0.0,0.0,0.0,0.0,0.0,0.0,0.0,0.0,0.0,0.0,0.0,0.0,0.0,0.0,0.0,0.0,0.0,0.0,0.0,0.0,0.0,0.0,0.0,0.0,0.0,0.0,0.0,0.0,0.0,0.0,0.0,0.0,0.0,0.0,0.0,0.0,0.0,0.0,0.0,-0.0198,-0.0533,-0.0875,-0.1144,-0.1481,-0.2019,-0.2019,-0.2087,-0.2223,-0.2223,-0.2223,-0.2223,-0.2223,-0.2223,-0.2223,-0.2223,-0.2223,-0.2223,-0.2223,-0.1986,-0.174,-0.1732,-0.183,-0.1975,-0.1975,-0.1956,-0.1929,0.0,0.0,0.0,0.2729,0.2696,0.2798,0.3054,0.3216,0.3524,0.412,0.4618,0.5155,0.5745,0.6207,0.66,0.6862,0.6615,0.6398,0.6392,0.5296,0.4509,0.4302,0.3293,0.2196,0.0958,0.1156,0.0883,0.0,0.0,0.0628,0.1806,0.1725,0.2279,0.3511,0.442,0.4839,0.4935,0.5937,0.6306,0.6009,0.4971,0.4545,0.4294,0.0,0.0,0.0,0.0,0.0,0.0,0.0,0.0,0.0,0.0,0.0,0.0,0.0,0.0,0.0,0.0,0.0,0.0,0.0,0.0,0.0,0.0,0.0,0.0,0.0,0.0,0.0,0.0,0.0,0.0,0.0,0.0,0.0,0.0,0.0,0.0,0.0,0.0,0.0,0.0,0.0,0.0,0.0,0.0,0.0,0.0,0.0,-0.0135,-0.0472,-0.0472,-0.0876,-0.155,-0.155,-0.1752,-0.2157,-0.2157,-0.2155,-0.2154,-0.2155,-0.2155,-0.2155,-0.2223,-0.2223,-0.2223,-0.2223,-0.2223,-0.2218,-0.2123,-0.2093,-0.213,-0.213,-0.2045,-0.1952,0.0,0.0,0.2812,0.2786,0.2729,0.2798,0.3054,0.3344,0.369,0.4133,0.483,0.5426,0.5878,0.6369,0.6715,0.6869,0.6748,0.6531,0.6262,0.5626,0.4879,0.3964,0.4117,0.33,0.1328,0.1447,0.1043,0.0,0.0,0.0628,0.1806,0.2537,0.3508,0.4597,0.5658,0.6063,0.5987,0.6287,0.6349,0.6263,0.5826,0.5196,0.4421,0.0,0.0,0.0,0.0,0.0,0.0,0.0,0.0,0.0,0.0,0.0,0.0,0.0,0.0,0.0,0.0,0.0,0.0,0.0,0.0,0.0,0.0,0.0,0.0,0.0,0.0,0.0,0.0,0.0,0.0,0.0,0.0,0.0,0.0,0.0,0.0,0.0,0.0,0.0,0.0,0.0,0.0,0.0,0.0,0.0,0.0,0.0,-0.0137,-0.0478,-0.0483,-0.0763,-0.1249,-0.1249,-0.1311,-0.1435,-0.1435,-0.1428,-0.1414,-0.1683,-0.175,-0.175,-0.2087,-0.2223,-0.2223,-0.2223,-0.2223,-0.2221,-0.2213,-0.2124,-0.2097,-0.2097,-0.1934,-0.1576,0.0,0.3151,0.2961,0.2779,0.2767,0.2856,0.3067,0.3432,0.3832,0.428,0.4969,0.5569,0.5946,0.6376,0.6641,0.6729,0.6654,0.6478,0.6152,0.5822,0.519,0.4172,0.4059,0.3225,0.1517,0.1096,0.0612,0.0,0.0,0.0856,0.2552,0.3124,0.4256,0.5803,0.6329,0.65,0.6387,0.5937,0.6037,0.6526,0.5943,0.5638,0.5385,0.4827,0.3944,0.3007,0.312,0.2336,0.1355,0.1927,0.0,0.0,0.0,0.0,0.0,0.0,0.0,0.0,0.0,0.0,0.0,0.0,0.0,0.0,0.0,0.0,0.0,0.0,0.0,0.0,0.0,0.0,0.0,0.0,0.0,0.0,0.0,0.0,0.0,0.0,0.0,0.0,0.0,0.0,0.0,0.0,0.0,0.0,0.0,0.0,-0.0069,-0.0277,-0.0279,-0.0491,-0.0842,-0.0842,-0.0908,-0.1109,-0.1102,-0.1095,-0.1086,-0.1282,-0.1414,-0.1414,-0.1818,-0.1952,-0.1952,-0.2154,-0.2223,-0.2223,0.0,0.0,0.0,0.0,-0.163,-0.1282,0.0,0.3577,0.3183,0.2828,0.2843,0.2939,0.3081,0.3487,0.3952,0.4409,0.4982,0.5515,0.5892,0.624,0.647,0.6491,0.6491,0.6349,0.6005,0.589,0.5466,0.4625,0.3645,0.2647,0.1622,0.0815,0.0314,0.0213,0.0325,0.1544,0.3804,0.3691,0.4766,0.6817,0.6698,0.6573,0.6358,0.5441,0.5687,0.6742,0.5782,0.5977,0.6723,0.5717,0.5244,0.5077,0.4362,0.362,0.3074,0.3355,0.0,0.0,0.0,0.0,0.0,0.0,0.0,0.0,0.0,0.0,0.0,0.0,0.0,0.0,0.0,0.0,0.0,0.0,0.0,0.0,0.0,0.0,0.0,0.0,0.0,0.0,0.0,0.0,0.0,0.0,0.0,0.0,0.0,0.0,0.0,0.0,0.0,0.0,0.0,0.0,0.0,0.0,0.0,-0.0141,-0.0423,-0.0423,-0.0634,-0.0984,-0.0971,-0.0964,-0.0962,-0.1016,-0.101,-0.1077,-0.1414,-0.1548,-0.1548,-0.1952,-0.2154,-0.2223,-0.2223,-0.2223,-0.2151,-0.1726,-0.1386,-0.1116,0.0,0.3536,0.3216,0.3183,0.3026,0.2939,0.3081,0.3405,0.3785,0.4206,0.4678,0.5176,0.563,0.5935,0.6166,0.6327,0.634,0.6258,0.6025,0.6068,0.5632,0.4542,0.4422,0.3488,0.1655,0.2353,0.2296,0.1436,0.2434,0.3633,0.5035,0.502,0.5735,0.6942,0.6823,0.6698,0.6578,0.643,0.6542,0.6792,0.6786,0.6921,0.7015,0.681,0.6058,0.5167,0.5652,0.4677,0.3295,0.4032,0.3549,0.2556,0.1809,0.0,0.0,0.0,0.0,0.0,0.0,0.0,0.0,0.0,0.0,0.0,0.0,0.0,0.0,0.0,0.0,0.0,0.0,0.0,0.0,0.0,0.0,0.0,0.0,0.0,0.0,0.0,0.0,0.0,0.0,0.0,0.0,0.0,0.0,0.0,0.0,0.0,0.0,0.0,0.0,0.0,-0.0072,-0.0072,-0.0144,-0.0214,-0.0211,0.0,-0.0206,-0.0474,-0.0606,-0.0606,-0.101,-0.1212,-0.1212,-0.1548,-0.1885,-0.2223,-0.2223,-0.2223,-0.2154,-0.1745,-0.1531,-0.1382,0.4431,0.3853,0.3413,0.3266,0.311,0.302,0.3087,0.3439,0.3819,0.4147,0.4544,0.4945,0.5318,0.5562,0.5698,0.5698,0.5833,0.5922,0.5868,0.6105,0.5981,0.5437,0.4965,0.4239,0.3224,0.3308,0.3158,0.2602,0.3273,0.4215,0.5425,0.5425,0.5959,0.6893,0.6828,0.6755,0.6681,0.6213,0.6487,0.7141,0.6786,0.6994,0.753,0.7383,0.685,0.6198,0.6624,0.5847,0.4703,0.5228,0.4658,0.3678,0.3211,0.2669,0.2012,0.0,0.0,0.0,0.0,0.0,0.0,0.0,0.0,0.0,0.0,0.0,0.0,0.0,0.0,0.0,0.0,0.0,0.0,0.0,0.0,0.0,0.0,0.0,0.0,0.0,0.0,0.0,0.0,0.0,0.0,0.0,0.0,0.0,0.0,0.0,0.0,0.0,0.0,0.0,0.0,0.0,0.0,0.0,0.0,0.0,0.0,-0.0205,-0.0271,-0.0269,-0.0673,-0.0943,-0.1144,-0.1481,-0.1616,-0.1683,-0.1683,-0.1885,-0.2154,-0.175,-0.1474,-0.1265,0.4828,0.4302,0.3763,0.3407,0.3253,0.3185,0.3141,0.35,0.386,0.4139,0.4409,0.4714,0.4982,0.5182,0.5237,0.511,0.5305,0.5523,0.5802,0.5975,0.6173,0.6382,0.5395,0.4784,0.4784,0.4105,0.3704,0.3769,0.4041,0.4716,0.5733,0.566,0.6058,0.6801,0.6832,0.6815,0.6776,0.5997,0.6437,0.7547,0.6731,0.7036,0.7988,0.7696,0.7441,0.7185,0.7111,0.6657,0.61,0.6246,0.5582,0.4683,0.4542,0.3921,0.3033,0.2003,0.1562,0.0,0.0,0.0,0.0,0.0,0.0,0.0,0.0,0.0,0.0,0.0,0.0,0.0,0.0,0.0,0.0,0.0,0.0,0.0,0.0,0.0,0.0,0.0,0.0,0.0,0.0,-0.0068,-0.0069,0.0,-0.0071,-0.0072,0.0,0.0,0.0,0.0,0.0,0.0,0.0,0.0,0.0,0.0,0.0,0.0,0.0,0.0,0.0,0.0,-0.0269,-0.0606,-0.101,-0.1279,-0.1279,-0.1077,-0.1077,-0.1481,-0.1952,-0.1616,-0.1346,-0.1075,0.0,0.4632,0.4364,0.391,0.3672,0.3481,0.3303,0.348,0.371,0.3984,0.4166,0.4382,0.4707,0.4877,0.4982,0.509,0.4877,0.5139,0.6147,0.5583,0.5701,0.6702,0.5482,0.4784,0.4784,0.4826,0.4862,0.499,0.5974,0.6572,0.6839,0.6679,0.6722,0.6796,0.69,0.6993,0.7009,0.7246,0.7447,0.7596,0.7739,0.7889,0.7988,0.7696,0.7441,0.7173,0.6862,0.6486,0.6089,0.61,0.5896,0.5434,0.474,0.4319,0.3964,0.3002,0.0,0.1389,0.1266,0.0648,0.0,0.0,0.0,0.0,0.0,0.0,0.0,0.0,0.0,0.0,0.0,0.0,0.0,0.0,0.0,0.0,0.0,0.0,0.0,0.0,0.0,0.0,0.0,-0.0341,-0.0414,0.0,-0.0355,-0.036,0.0,0.0,0.0,0.0,0.0,0.0,0.0,0.0,0.0,0.0,0.0,0.0,0.0,0.0,0.0,0.0,-0.0068,-0.0269,-0.0539,-0.0606,-0.0808,-0.1077,-0.1077,-0.1144,-0.1212,-0.1144,-0.1144,-0.1009,0.0,0.4979,0.4897,0.4745,0.4226,0.3814,0.3721,0.3652,0.3679,0.386,0.3941,0.4072,0.4375,0.4565,0.4674,0.4735,0.4554,0.4613,0.5029,0.5325,0.5562,0.5881,0.5907,0.5887,0.5737,0.5273,0.5343,0.6016,0.5917,0.624,0.6877,0.6828,0.6821,0.6906,0.6958,0.7151,0.7377,0.7522,0.7696,0.7846,0.7939,0.7988,0.7932,0.75,0.7174,0.7003,0.6703,0.6274,0.0,0.5882,0.5817,0.5641,0.5216,0.4796,0.4214,0.3125,0.2122,0.0,0.0744,0.031,0.0,0.0,0.0,0.0,0.0,0.0,0.0,0.0,0.0,0.0,0.0,0.0,0.0,0.0,0.0,0.0,0.0,0.0,0.0,0.0,0.0,0.0,0.0,-0.0136,-0.0207,0.0,-0.0142,-0.0144,0.0,0.0,0.0,0.0,0.0,0.0,0.0,0.0,0.0,0.0,0.0,0.0,0.0,0.0,0.0,0.0,-0.0203,-0.0269,-0.0202,-0.0404,-0.0471,-0.0471,-0.0471,-0.0471,-0.0539,-0.0943,-0.0943,-0.0741,0.0,0.5262,0.5347,0.5471,0.482,0.4236,0.409,0.3803,0.3651,0.3771,0.3826,0.3968,0.4247,0.4402,0.4491,0.4491,0.4313,0.4241,0.4313,0.4801,0.5064,0.4945,0.5586,0.5956,0.6087,0.5353,0.5504,0.6622,0.5888,0.5927,0.6752,0.6772,0.6866,0.6935,0.7088,0.7339,0.7596,0.7696,0.7839,0.7988,0.7988,0.7968,0.7816,0.7324,0.6897,0.6581,0.6305,0.5919,0.5572,0.5464,0.5443,0.5384,0.5126,0.4722,0.4113,0.3077,0.2102,0.1173,0.0238,0.0,0.0,0.0,0.0,0.0,0.0,0.0,0.0,0.0,0.0,0.0,0.0,0.0,0.0,0.0,0.0,0.0,0.0,0.0,0.0,0.0,0.0,0.0,0.0,-0.0068,-0.0138,0.0,-0.0071,-0.0144,0.0,0.0,0.0,0.0,0.0,0.0,0.0,0.0,0.0,0.0,0.0,0.0,0.0,0.0,0.0,0.0,-0.0271,-0.0202,0.0,-0.0269,-0.0202,0.0,0.0,0.0,-0.0067,-0.0606,-0.0606,-0.0337,0.0,0.0,0.5675,0.5923,0.5429,0.4822,0.4351,0.3906,0.3651,0.3771,0.3921,0.4124,0.445,0.4491,0.4491,0.4491,0.4157,0.4112,0.456,0.3993,0.3845,0.4313,0.3926,0.4203,0.524,0.4939,0.539,0.6622,0.6452,0.6457,0.6622,0.676,0.6803,0.6848,0.7353,0.7603,0.7596,0.7889,0.7988,0.7988,0.7988,0.7802,0.7469,0.7272,0.6684,0.5907,0.561,0.5409,0.517,0.4898,0.4822,0.4709,0.4062,0.3878,0.0,0.308,0.2173,0.1182,0.0,0.0,0.0,0.0,0.0,0.0,0.0,0.0,0.0,0.0,0.0,0.0,0.0,0.0,0.0,0.0,0.0,0.0,0.0,0.0,0.0,0.0,0.0,0.0,0.0,-0.0341,-0.0415,0.0,-0.0355,-0.0432,0.0,0.0,0.0,0.0,0.0,0.0,0.0,0.0,0.0,0.0,0.0,0.0,0.0,0.0,0.0,0.0,0.0,0.0,0.0,0.0,0.0,0.0,0.0,0.0,0.0,0.0,0.0,0.0,0.0,0.0,0.0,0.5878,0.5492,0.5048,0.457,0.3994,0.3651,0.3771,0.3991,0.0,0.0,0.0,0.0,0.0,0.4041,0.3887,0.4115,0.3891,0.379,0.3883,0.4033,0.4467,0.5192,0.4407,0.4796,0.6446,0.5701,0.5806,0.6754,0.6765,0.6998,0.7347,0.7497,0.7696,0.7889,0.7939,0.7988,0.7982,0.788,0.7813,0.7642,0.7216,0.6669,0.6028,0.0,0.5239,0.4961,0.4792,0.4792,0.4713,0.3907,0.0,0.0,0.1361,0.0734,0.0391,0.0101,0.0,0.0,0.0,0.0,0.0,0.0,0.0,0.0,0.0,0.0,0.0,0.0,0.0,0.0,0.0,0.0,0.0,0.0,0.0,0.0,0.0,0.0,0.0,0.0,0.0,0.0,0.0,-0.014,-0.0142,0.0,0.0,0.0,0.0,0.0,0.0,0.0,0.0,0.0,0.0,0.0,0.0,0.0,0.0,0.0,0.0,0.0,0.0,0.0,0.0,0.0,0.0,0.0,0.0,0.0,0.0,0.0,0.0,0.0,0.0,0.0,0.0,0.0,0.0,0.0,0.0,0.0,0.0,0.0,0.0,0.0,0.0,0.0,0.0,0.0,0.3983,0.3853,0.3844,0.3628,0.3134,0.3316,0.3814,0.4598,0.3878,0.4403,0.6379,0.5653,0.5843,0.6807,0.6905,0.715,0.7443,0.754,0.7687,0.7833,0.7833,0.7833,0.7813,0.7658,0.7496,0.731,0.683,0.6267,0.0,0.5367,0.5051,0.4761,0.464,0.4659,0.4569,0.3465,0.0,0.1388,0.0306,0.0,0.0,0.0,0.0,0.0,0.0,0.0,0.0,0.0,0.0,0.0,0.0,0.0,0.0,0.0,0.0,0.0,0.0,0.0,0.0,0.0,0.0,0.0,0.0,0.0,0.0,0.0,0.0,0.0,0.0,0.0,0.0,0.0,0.0,0.0,0.0,0.0,0.0,0.0,0.0,0.0,0.0,0.0,0.0,0.0,0.0,0.0,0.0,0.0,0.0,0.0,0.0,0.0,0.0,0.0,0.0,0.0,0.0,0.0,0.0,0.0,0.0,0.0,0.0,0.0,0.0,0.0,0.0,0.0,0.0,0.0,0.0,0.0,0.0,0.0,0.0,0.0,0.0,0.3793,0.3853,0.3393,0.2246,0.1924,0.2343,0.3628,0.3405,0.4277,0.629,0.629,0.646,0.6801,0.7029,0.7169,0.7169,0.7456,0.7556,0.7556,0.7556,0.7556,0.7529,0.7173,0.6884,0.6528,0.6125,0.5574,0.4996,0.4923,0.4766,0.4601,0.4461,0.0,0.0,0.0,0.0,0.0,0.0,0.0,0.0,0.0,0.0,0.0,0.0,0.0,0.0,0.0,0.0,0.0,0.0,0.0,0.0,0.0,0.0,0.0,0.0,0.0,0.0,0.0,0.0,0.0,0.0,0.0,0.0,0.0,0.0,0.0,0.0,0.0,0.0,0.0,0.0,0.0,0.0,0.0,0.0,0.0,0.0,0.0,0.0,0.0,0.0,0.0,0.0,0.0,0.0,0.0,0.0,0.0,0.0,0.0,0.0,0.0,0.0,0.0,0.0,0.0,0.0,0.0,0.0,0.0,0.0,0.0,0.0,0.0,0.0,0.0,0.0,0.0,0.0,0.0,0.0,0.0,0.0,0.0,0.0,0.4441,0.4023,0.3675,0.3449,0.3057,0.3246,0.4183,0.4258,0.4861,0.6008,0.6008,0.6129,0.6417,0.6503,0.6632,0.684,0.6883,0.6932,0.6932,0.6932,0.6932,0.6905,0.6607,0.6464,0.635,0.5966,0.5534,0.5068,0.5051,0.487,0.0,0.0,0.0,0.0,0.0,0.0,0.0,0.0,0.0,0.0,0.0,0.0,0.0,0.0,0.0,0.0,0.0,0.0,0.0,0.0,0.0,0.0,0.0,0.0,0.0,0.0,0.0,0.0,0.0,0.0,0.0,0.0,0.0,0.0,0.0,0.0,0.0,0.0,0.0,0.0,0.0,0.0,0.0,0.0,0.0,0.0,0.0,0.0,0.0,0.0,0.0,0.0,0.0,0.0,0.0,0.0,0.0,0.0,0.0,0.0,0.0,0.0,0.0,0.0,0.0,0.0,0.0,0.0,0.0,0.0,0.0,0.0,0.0,0.0,0.0,0.0,0.0,0.0,0.0,0.0,0.0,0.0,0.0,0.0,0.0,0.0,0.0,0.4271,0.3956,0.3788,0.3529,0.3599,0.4111,0.4347,0.4871,0.5695,0.5815,0.5911,0.6074,0.6074,0.6152,0.6308,0.6308,0.6308,0.6308,0.6308,0.6308,0.0,0.0,0.5904,0.5863,0.5454,0.5155,0.4938,0.0,0.0,0.0,0.0,0.0,0.2872,0.2241,0.1101,0.0,0.0,0.0,0.0,0.0,0.0,0.0,0.0,0.0,0.0,0.0,0.0,0.0,0.0,0.0,0.0,0.0,0.0,0.0,0.0,0.0,0.0,0.0,0.0,0.0,0.0,0.0,0.0,0.0,0.0,0.0,0.0,0.0,0.0,0.0,0.0,0.0,0.0,0.0,0.0,0.0,0.0,0.0,0.0,0.0,0.0,0.0,0.0,0.0,0.0,0.0,0.0,0.0,0.0,0.0,0.0,0.0,0.0,0.0,0.0,0.0,0.0,0.0,0.0,0.0,0.0,0.0,0.0,0.0,0.0,0.0,0.0,0.0,0.0,0.0,0.0,0.0,0.0,0.0,0.0,0.0,0.0,0.4266,0.3753,0.3727,0.3812,0.3903,0.4179,0.4618,0.5337,0.5555,0.5684,0.5684,0.5684,0.5684,0.5684,0.5684,0.5684,0.5684,0.5684,0.5684,0.5664,0.544,0.5337,0.5296,0.0,0.0,0.0,0.0,0.0,0.0,0.0,0.4344,0.3169,0.3171,0.17,0.0,0.0,0.0,0.0,0.0,0.0,0.0,0.0,0.0,0.0,0.0,0.0,0.0,0.0,0.0,0.0,0.0,0.0,0.0,0.0,0.0,0.0,0.0,0.0,0.0,0.0,0.0,0.0,0.0,0.0,0.0,0.0,0.0,0.0,0.0,0.0,0.0,0.0,0.0,0.0,0.0,0.0,0.0,0.0,0.0,0.0,0.0,0.0,0.0,0.0,0.0,0.0,0.0,0.0,0.0,0.0,0.0,0.0,0.0,0.0,0.0,0.0,0.0,0.0,0.0,0.0,0.0,0.0,0.0,0.0,0.0,0.0,0.4328,0.4301,0.0,0.0,0.0,0.0,0.0,0.0,0.0,0.0,0.0,0.4358,0.4457,0.4529,0.4552,0.4696,0.0,0.0,0.0,0.5042,0.5042,0.5042,0.5042,0.5042,0.5042,0.5042,0.5042,0.5042,0.5042,0.5067,0.502,0.4992,0.4986,0.4911,0.0,0.0,0.0,0.0,0.0,0.0,0.5003,0.3536,0.2687,0.1308,0.0,0.0,0.0,0.0,0.0,0.0,0.0,0.0,0.0,0.0,0.0,0.0,0.0,0.0,0.0,0.0,0.0,0.0,0.0,0.0,0.0,0.0,0.0,0.0,0.0,0.0,0.0,0.0,0.0,0.0,0.0,0.0,0.0,0.0,0.0,0.0,0.0,0.0,0.0,0.0,0.0,0.0,0.0,0.0,0.0,0.0,0.0,0.0,0.0,0.0,0.0,0.0,0.0,0.0,0.0,0.0,0.0,0.0,0.0,0.0,0.0,0.0,0.0,0.0,0.0,0.0,0.0,0.0,0.0,0.5597,0.5891,0.619,0.5653,0.5078,0.4649,0.4539,0.4491,0.0,0.0,0.0,0.0,0.0,0.0,0.0,0.4559,0.46,0.0,0.0,0.0,0.0,0.0,0.0,0.0,0.0,0.0,0.0,0.0,0.0,0.0,0.0,0.4728,0.0,0.0,0.0,0.0,0.0,0.0,0.0,0.0,0.0,0.0,0.0,0.5479,0.436,0.3262,0.1602,0.0,0.0,0.0,0.0,0.0,0.0,0.0,0.0,0.0,0.0,0.0,0.0,0.0,0.0,0.0,0.0573,0.0559,0.0,0.0,0.0,0.0,0.0,0.0,0.0,0.0,0.0,0.0,0.0,0.0,0.0,0.0,0.0,0.0,0.0,0.0,0.0,0.0,0.0,0.0,0.0,0.0,0.0,0.0,0.0,0.0,0.0,0.0,0.0,0.0,0.0,0.0,0.0,0.0,0.0,0.0,0.0,0.0,0.0,0.0,0.0,0.0,0.0135,0.0,0.0,0.0,0.0,0.0,0.0,0.0,0.6611,0.6962,0.7673,0.7058,0.6168,0.5166,0.479,0.4559,0.0,0.0,0.0,0.0,0.0,0.0,0.0,0.0,0.0,0.0,0.0,0.0,0.0,0.0,0.0,0.0,0.0,0.0,0.0,0.0,0.0,0.0,0.0,0.0,0.0,0.0,0.0,0.0,0.0,0.0,0.0,0.0,0.0,0.0,0.0,0.5518,0.4746,0.3962,0.2164,0.0337,0.0354,0.0184,0.0,0.0,0.0,0.0,0.0,0.0,0.0059,0.0213,0.0719,0.0,0.0,0.1213,0.1108,0.1097,0.0,0.0,0.0,0.0,0.0,0.0,0.0,0.0,0.0,0.0,0.0,0.0,0.0,0.0,0.0,0.0,0.0,0.0,0.0,0.0,0.0,0.0,0.0,0.0,0.0,0.0,0.0,0.0,0.0,0.0,0.0,0.0,0.0,0.0,0.0,0.0,0.0,0.0,0.0,0.0,0.0,0.0067,0.0336,0.0471,0.0673,0.0,0.0,0.0,0.0,0.0,0.0,0.0,0.7022,0.7722,0.7639,0.7623,0.7301,0.6358,0.5418,0.4762,0.0,0.0,0.0,0.0,0.0,0.0,0.0,0.0,0.0,0.0,0.0,0.0,0.0,0.0,0.0,0.0,0.0,0.0,0.0,0.0,0.0,0.0,0.0,0.0,0.0,0.0,0.0,0.0,0.0,0.0,0.0,0.0,0.0,0.0,0.0,0.0,0.3875,0.4002,0.2879,0.1432,0.1427,0.0,0.0,0.0,0.0,0.0,0.0,0.0,0.0231,0.1005,0.0,0.0,0.2036,0.1606,0.11,0.1116,0.0486,0.0,0.0,0.0,0.0,0.0,0.0,0.0,0.0,0.0,0.0,0.0,0.0,0.0,0.0,0.0,0.0,0.0,0.0,0.0,0.0,0.0,0.0,0.0,0.0,0.0,0.0,0.0,0.0,0.0,0.0,0.0,0.0,0.0,0.0,0.0,0.0,0.0,0.0,0.0,0.0,0.0135,0.1412,0.1882,0.2084,0.0,0.0,0.0,0.0,0.0,0.0,0.7316,0.7527,0.7969,0.8864,0.8611,0.8072,0.7325,0.6464,0.554,0.4588,0.0,0.0,0.0,0.0,0.0,0.0,0.0,0.0,0.0,0.0,0.0,0.0,0.0,0.0,0.0,0.0,0.0,0.0,0.0,0.0,0.0,0.0,0.0,0.0,0.0,0.0,0.0,0.0,0.0,0.0,0.0,0.0,0.0,0.0,0.0,0.0,0.407,0.3137,0.0,0.0,0.074,0.0,0.0,0.0,0.0,0.0,0.0,0.0227,0.1078,0.0,0.1928,0.2784,0.2634,0.2217,0.1766,0.1138,0.0696,0.0831,0.0358,0.019,0.0,0.0,0.0,0.0,0.0,0.0,0.0,0.0,0.0,0.0,0.0,0.0,0.0,0.0,0.0,0.0,0.0,0.0,0.0,0.0,0.0,0.0,0.0,0.0,0.0,0.0,0.0,0.0,0.0,0.0,0.0,0.0,0.0,0.0,0.0,0.0,0.0202,0.1614,0.2084,0.242,0.0,0.0,0.0,0.0,0.0,0.6929,0.7796,0.7762,0.8066,0.9367,0.9186,0.8742,0.8223,0.7302,0.6259,0.5083,0.4678,0.0,0.0,0.0,0.0,0.0,0.0,0.0,0.0,0.0,0.0,0.0,0.0,0.0,0.0,0.0,0.0,0.0,0.0,0.0,0.0,0.0,0.0,0.0,0.0,0.0,0.0,0.0,0.0,0.0,0.0,0.0,0.0,0.0,0.0,0.0,0.0,0.0,0.0,0.0,0.0756,0.0,0.0,0.0,0.0,0.0,0.0295,0.0778,0.0,0.0,0.2942,0.3639,0.3483,0.3067,0.2557,0.193,0.1511,0.1677,0.0984,0.0633,0.1297,0.0,0.0,0.0,0.0,0.0,0.0,0.0,0.0,0.0,0.0,0.0,0.0,0.0,0.0,0.0,0.0,0.0,0.0,0.0,0.0,0.0,0.0,0.0,0.0,0.0,0.0,0.0,0.0,0.0,0.0,0.0,0.0,0.0067,0.0471,0.0606,0.0875,0.2687,0.3358,0.3694,0.0,0.0,0.0,0.0,0.0,0.0,0.7106,0.7568,0.8108,0.8634,0.9163,0.9385,0.9131,0.7829,0.6733,0.6143,0.5119,0.0,0.0,0.0,0.0,0.0,0.0,0.0,0.0,0.0,0.5467,0.5589,0.5725,0.0,0.0,0.0,0.0,0.0,0.0,0.0,0.0,0.0,0.0,0.0,0.0,0.0,0.0,0.0,0.0,0.0,0.0,0.0,0.0,0.0,0.0,0.0,0.0,0.0,0.0,0.0,0.0817,0.0,0.0,0.0,0.0,0.0,0.0976,0.2072,0.0,0.3352,0.429,0.4604,0.3899,0.3237,0.3347,0.2799,0.235,0.2487,0.1803,0.1301,0.1279,0.0,0.0,0.0,0.0,0.0,0.0,0.0,0.0,0.0,0.0,0.0,0.0,0.0,0.0,0.0,0.0,0.0,0.0,0.0,0.0,0.0,0.0,0.0,0.0,0.0,0.0,0.0,0.0,0.0,0.0,0.0,0.0,0.0135,0.1546,0.2084,0.242,0.5302,0.6376,0.6577,0.0,0.0,0.0,0.0,0.0,0.0,0.0,0.7488,0.7616,0.8329,0.8735,0.8784,0.8334,0.7512,0.6729,0.6073,0.51,0.0,0.0,0.0,0.0,0.0,0.0,0.0,0.0,0.0,0.5637,0.5888,0.6044,0.6204,0.6254,0.0,0.0,0.0,0.0,0.0,0.0,0.0,0.0,0.0,0.0,0.0,0.0,0.0,0.0,0.0,0.0,0.0,0.0,0.0,0.0,0.0,0.0,0.0,0.0,0.1729,0.0,0.0,0.0362,0.0324,0.0609,0.1161,0.1705,0.2354,0.338,0.3805,0.413,0.4588,0.4383,0.3938,0.3503,0.3283,0.3322,0.3802,0.309,0.0,0.0,0.0,0.0,0.0,0.0,0.0,0.0,0.0,0.0,0.0,0.0,0.0,0.0,0.0,0.0,0.0,0.0,0.0,0.0,0.0,0.0,0.0,0.0,0.0,0.0,0.0,0.0,0.0,0.0,0.0,0.0,0.0,0.0,0.0135,0.1546,0.2084,0.242,0.5369,0.6376,0.6644,0.0,0.0,0.0,0.0,0.0,0.0,0.0,0.73,0.7307,0.7914,0.8232,0.83,0.8086,0.726,0.6561,0.617,0.5181,0.0,0.0,0.0,0.0,0.0,0.0,0.0,0.5216,0.5515,0.582,0.6118,0.6329,0.6505,0.6641,0.6491,0.6306,0.0,0.0,0.0,0.0,0.0,0.0,0.0,0.0,0.0,0.0,0.0,0.0,0.0,0.0,0.0,0.0,0.0,0.0,0.0,0.0,0.0,0.0,0.0,0.1645,0.0,0.0,0.0493,0.0861,0.1697,0.23,0.2909,0.3796,0.4231,0.4506,0.4623,0.4525,0.4319,0.397,0.3939,0.416,0.4671,0.4003,0.0,0.0,0.0,0.0,0.0,0.0,0.0,0.0,0.0,0.0,0.0,0.0,0.0,0.0,0.0,0.0,0.0,0.0,0.0,0.0,0.0,0.0288,0.0781,0.0777,0.1117,0.1578,0.1025,0.0814,0.074,0.0202,0.0,0.0,0.0,0.0,0.0202,0.215,0.2956,0.3291,0.6172,0.7245,0.7379,0.0,0.0,0.0,0.0,0.0,0.0,0.0,0.7166,0.7242,0.7488,0.7745,0.7983,0.8193,0.7016,0.6257,0.6347,0.0,0.0,0.0,0.0,0.0,0.0,0.0,0.0,0.5385,0.565,0.5949,0.63,0.6566,0.6803,0.6916,0.6817,0.6586,0.632,0.5969,0.0,0.0,0.0,0.0,0.0,0.0,0.0,0.0,0.0,0.0,0.0,0.0,0.0,0.0,0.0,0.0,0.0,0.0,0.0,0.0,0.0,0.0,0.0,0.0,0.0501,0.0,0.0,0.2777,0.3657,0.3899,0.4708,0.0,0.461,0.4393,0.4398,0.4673,0.4723,0.4854,0.5203,0.0,0.0,0.0,0.0,0.0,0.0,0.0,0.0,0.0,0.0,0.0,0.0,0.0,0.0,0.0,0.0,0.0,0.0,0.0,0.0,0.0,0.0,0.0709,0.2099,0.2072,0.2879,0.424,0.2905,0.2218,0.2017,0.074,0.0067,0.0,0.0,0.0,0.0269,0.3155,0.4294,0.4629,0.7512,0.859,0.859,0.0,0.0,0.0,0.0,0.0,0.0,0.0,0.0,0.0,0.0,0.7857,0.7784,0.7433,0.6689,0.6145,0.0,0.0,0.0,0.0,0.0,0.0,0.0,0.0,0.0,0.5392,0.565,0.5949,0.63,0.6675,0.7014,0.7265,0.7231,0.6993,0.6586,0.6327,0.5917,0.0,0.0,0.0,0.0,0.0,0.0,0.0,0.0,0.0,0.0,0.0,0.0,0.0,0.0,0.0,0.0,0.0,0.0,0.0,0.0,0.2397,0.2008,0.1627,0.0,0.102,0.2538,0.3096,0.3538,0.0,0.491,0.4983,0.4577,0.0,0.0,0.4887,0.5002,0.0,0.0,0.0,0.0,0.0,0.0,0.0,0.0,0.0,0.0,0.0,0.0,0.0,0.0,0.0,0.0,0.0,0.0,0.0,0.0,0.0,0.0,0.0,0.0,0.07,0.2069,0.2132,0.2864,0.4313,0.3964,0.3155,0.2084,0.1748,0.1009,0.0,0.0,0.0,0.0269,0.3155,0.4294,0.4629,0.7512,0.859,0.859,0.0,0.0,0.0,0.0,0.0,0.0,0.0,0.0,0.0,0.0,0.0,0.0,0.0,0.0,0.0,0.0,0.0,0.0,0.0,0.0,0.0,0.0,0.0,0.5203,0.5392,0.565,0.6017,0.6504,0.6844,0.721,0.757,0.7509,0.7238,0.6783,0.6274,0.587,0.0,0.0,0.0,0.0,0.0,0.0,0.0,0.0,0.0,0.0,0.512,0.4987,0.0,0.4934,0.5086,0.5196,0.0,0.0,0.0,0.0,0.3014,0.2501,0.2501,0.2035,0.1901,0.3542,0.3857,0.4008,0.493,0.0,0.0,0.0,0.0,0.0,0.0,0.0,0.0,0.0,0.0,0.0,0.0,0.0,0.0,0.0,0.0,0.0,0.0,0.0,0.0,0.0,0.0,0.0,0.0,0.0,0.0,0.0,0.0,0.0,0.0,0.0,0.1034,0.3125,0.3125,0.4192,0.6239,0.4897,0.3892,0.3023,0.1681,0.0673,0.0,0.0,0.0,0.0202,0.2418,0.3691,0.4562,0.6773,0.8051,0.859,0.0,0.0,0.0,0.0,0.0,0.0,0.0,0.0,0.0,0.0,0.0,0.0,0.0,0.0,0.0,0.0,0.0,0.0,0.0,0.0,0.0,0.0,0.5237,0.525,0.546,0.5671,0.6098,0.6702,0.695,0.7314,0.778,0.7699,0.74,0.6856,0.6213,0.58,0.0,0.0,0.0,0.0,0.0,0.0,0.0,0.0,0.0,0.0,0.0,0.0,0.0,0.5195,0.5262,0.5351,0.5464,0.0,0.0,0.0,0.0,0.0,0.3334,0.3104,0.3133,0.436,0.4529,0.4499,0.5101,0.0,0.0,0.0,0.0,0.0,0.0,0.0,0.0,0.0,0.0,0.0,0.0,0.0,0.0,0.0,0.0,0.0,0.0,0.0,0.0,0.0,0.0,0.0,0.0,0.0,0.0,0.0,0.0,0.0,0.0,0.0,0.1428,0.4294,0.4294,0.5834,0.8523,0.6101,0.483,0.4495,0.1814,0.0538,0.0336,0.0067,0.0,0.0135,0.1546,0.3023,0.4495,0.5904,0.7312,0.859,0.0,0.0,0.0,0.0,0.0,0.0,0.0,0.0,0.0,0.0,0.0,0.0,0.0,0.0,0.0,0.0,0.0,0.0,0.0,0.0,0.0,0.5392,0.5371,0.5487,0.5725,0.5779,0.6098,0.6702,0.695,0.7267,0.7638,0.7868,0.755,0.6869,0.6539,0.6146,0.5779,0.5928,0.0,0.0,0.0,0.0,0.0,0.0,0.0,0.0,0.0,0.0,0.0,0.5312,0.541,0.5448,0.5433,0.0,0.0,0.0,0.0,0.0,0.4121,0.433,0.4263,0.4227,0.4158,0.429,0.4888,0.0,0.0,0.0,0.0,0.0,0.0,0.0,0.0,0.0,0.0,0.0,0.0,0.0,0.0,0.0,0.0,0.0,0.0,0.0,0.0,0.0,0.0,0.0,0.0,0.0,0.0,0.0,0.0,0.0,0.0,0.0,0.1415,0.4294,0.4294,0.5834,0.859,0.8117,0.7245,0.5971,0.4361,0.2954,0.1681,0.0471,0.0,0.0135,0.1546,0.3023,0.4495,0.5904,0.7312,0.859,0.0,0.0,0.0,0.0,0.0,0.0,0.0,0.0,0.0,0.0,0.0,0.0,0.0,0.0,0.0,0.0,0.0,0.0,0.0,0.0,0.5467,0.5624,0.5596,0.5664,0.58,0.6037,0.6417,0.6896,0.7244,0.7543,0.7834,0.7597,0.724,0.679,0.6403,0.6118,0.5928,0.5959,0.0,0.0,0.0,0.0,0.0,0.0,0.0,0.0,0.0,0.0,0.0,0.0,0.5595,0.5659,0.5555,0.0,0.0,0.0,0.0,0.0,0.4734,0.4925,0.4978,0.4864,0.5018,0.5244,0.5438,0.5356,0.0,0.0,0.0,0.0,0.0,0.0,0.0,0.0,0.0,0.0,0.0,0.0,0.0,0.0,0.0,0.2306,0.2306,0.157,0.1165,0.1165,0.0409,0.0,0.0,0.0,0.0,0.0,0.0,0.0,0.0,0.0,0.1478,0.4294,0.4294,0.5834,0.8584,0.7784,0.7045,0.6309,0.4897,0.3892,0.3155,0.1748,0.1144,0.1144,0.1009,0.2351,0.4562,0.6773,0.8051,0.859,0.0,0.0,0.0,0.0,0.0,0.0,0.0,0.0,0.0,0.0,0.0,0.0,0.0,0.0,0.0,0.0,0.0,0.0,0.0,0.5378,0.5515,0.5739,0.582,0.5922,0.6064,0.6369,0.6763,0.7206,0.7482,0.7753,0.7975,0.7449,0.7045,0.6783,0.633,0.6146,0.6084,0.6084,0.6084,0.0,0.0,0.0,0.0,0.0,0.0,0.0,0.0,0.0,0.0,0.0,0.0,0.0,0.0,0.0,0.0,0.5501,0.5265,0.509,0.5124,0.517,0.5291,0.5473,0.5752,0.5969,0.6018,0.5844,0.5637,0.0,0.0,0.0,0.0,0.0,0.0,0.0,0.0,0.0,0.0,0.0,0.464,0.4356,0.4294,0.4294,0.4294,0.3289,0.262,0.262,0.1614,0.0874,0.0538,0.0471,0.0336,0.0,0.0,0.0,0.0,0.0,0.1277,0.3758,0.416,0.5633,0.8051,0.7245,0.6911,0.6844,0.5432,0.4763,0.4629,0.2821,0.2084,0.195,0.0538,0.1747,0.4629,0.7512,0.859,0.859,0.0,0.0,0.0,0.0,0.0,0.0,0.0,0.0,0.0,0.0,0.0,0.0,0.0,0.0,0.0,0.0,0.0,0.0,0.0,0.5284,0.5467,0.5596,0.5867,0.6236,0.6795,0.6742,0.6973,0.7563,0.759,0.7753,0.7982,0.7712,0.74,0.7051,0.679,0.6498,0.6286,0.6286,0.6286,0.6259,0.0,0.0,0.0,0.0,0.0,0.0,0.0,0.0,0.0,0.0,0.0,0.0,0.0,0.0,0.5764,0.5565,0.532,0.5125,0.5243,0.514,0.5099,0.5442,0.5513,0.5686,0.6225,0.6214,0.0,0.6611,0.0,0.0,0.0,0.0,0.0,0.0,0.0,0.0,0.0,0.0,0.5763,0.4428,0.4294,0.4294,0.4294,0.4227,0.416,0.416,0.4026,0.3423,0.2017,0.195,0.1345,0.0067,0.0,0.0,0.0,0.0,0.074,0.2286,0.3624,0.5098,0.6577,0.7851,0.8451,0.8384,0.6911,0.6243,0.6038,0.3224,0.2084,0.195,0.0538,0.1747,0.4629,0.7512,0.859,0.859,0.0,0.0,0.0,0.0,0.0,0.0,0.0,0.0,0.0,0.0,0.0,0.0,0.0,0.0,0.0,0.0,0.0,0.0,0.0,0.5277,0.5501,0.5711,0.5922,0.622,0.6634,0.6953,0.7319,0.7733,0.7828,0.7882,0.7889,0.7449,0.7159,0.695,0.66,0.6457,0.6422,0.6334,0.6354,0.6395,0.5962,0.0,0.0,0.0,0.0,0.0,0.0,0.0,0.0,0.0,0.5433,0.5583,0.5576,0.5718,0.5835,0.5477,0.524,0.5088,0.4961,0.5007,0.5175,0.5388,0.5605,0.0,0.0,0.6545,0.6736,0.7067,0.7095,0.0,0.0,0.0,0.0,0.0,0.0,0.0,0.0,0.7784,0.7579,0.704,0.6973,0.6973,0.6973,0.6172,0.5637,0.5637,0.4763,0.4026,0.349,0.349,0.3222,0.2685,0.1814,0.1277,0.1277,0.0471,0.0269,0.0807,0.2217,0.3691,0.5165,0.6577,0.7245,0.7245,0.7584,0.7784,0.7584,0.557,0.4766,0.4699,0.4163,0.4629,0.5837,0.7851,0.859,0.859,0.0,0.0,0.0,0.0,0.0,0.0,0.0,0.0,0.0,0.0,0.0,0.0,0.0,0.0,0.0,0.0,0.0,0.0,0.509,0.5277,0.5508,0.5725,0.5881,0.6118,0.6504,0.6973,0.7373,0.7672,0.7868,0.7889,0.7733,0.728,0.7071,0.7048,0.66,0.6518,0.6607,0.645,0.6422,0.6477,0.6037,0.5847,0.0,0.0,0.0,0.0,0.0,0.0,0.0,0.0,0.5238,0.544,0.5467,0.5644,0.5788,0.538,0.5258,0.5183,0.4895,0.5013,0.5284,0.5442,0.0,0.0,0.6518,0.6806,0.7095,0.7481,0.7502,0.0,0.0,0.0,0.0,0.0,0.0,0.0,0.8579,0.859,0.859,0.859,0.859,0.859,0.859,0.7717,0.7111,0.7111,0.6172,0.5432,0.4964,0.4964,0.4763,0.4294,0.3289,0.2821,0.2821,0.1345,0.0673,0.0673,0.1614,0.262,0.3691,0.557,0.6376,0.651,0.7984,0.859,0.8451,0.6978,0.6105,0.577,0.6243,0.6376,0.6577,0.8051,0.859,0.859,0.0,0.0,0.0,0.0,0.0,0.0,0.0,0.0,0.0,0.0,0.0,0.0,0.0,0.0,0.0,0.0,0.0,0.0,0.5096,0.5277,0.5467,0.5583,0.5725,0.601,0.6497,0.677,0.7068,0.7419,0.7665,0.7733,0.759,0.724,0.7217,0.7392,0.6898,0.6783,0.6862,0.66,0.6511,0.6484,0.6146,0.5935,0.0,0.0,0.0,0.0,0.0,0.0,0.0,0.0,0.5096,0.515,0.5488,0.5589,0.5554,0.5295,0.5383,0.5518,0.509,0.5192,0.5431,0.0,0.0,0.0,0.6883,0.6991,0.7198,0.7971,0.7872,0.7703,0.7703,0.0,0.0,0.8097,0.8356,0.8584,0.859,0.859,0.859,0.859,0.859,0.859,0.859,0.859,0.859,0.859,0.859,0.7984,0.651,0.6443,0.577,0.4361,0.4294,0.4294,0.4294,0.2888,0.2151,0.2151,0.2151,0.2084,0.2218,0.5101,0.6376,0.651,0.7984,0.859,0.8518,0.7045,0.557,0.4495,0.5904,0.6443,0.6577,0.8051,0.859,0.859,0.0,0.0,0.0,0.0,0.0,0.0,0.0,0.0,0.0,0.0,0.0,0.0,0.0,0.0,0.0,0.0,0.0,0.0,0.5096,0.5277,0.5419,0.546,0.5671,0.582,0.5854,0.6349,0.6858,0.7419,0.7563,0.7529,0.7227,0.7139,0.7011,0.6898,0.6871,0.677,0.66,0.6552,0.6511,0.6484,0.6146,0.5935,0.0,0.0,0.0,0.0,0.0,0.0,0.0,0.0,0.0,0.0,0.5177,0.5521,0.5795,0.538,0.5457,0.5577,0.5176,0.5328,0.0,0.0,0.0,0.0,0.0,0.7551,0.0,0.0,0.8187,0.8051,0.7964,0.0,0.0,0.816,0.8345,0.8497,0.8579,0.859,0.859,0.859,0.859,0.859,0.859,0.859,0.859,0.859,0.859,0.8384,0.7984,0.7917,0.7779,0.7312,0.6305,0.577,0.577,0.4361,0.3624,0.3624,0.3624,0.309,0.2218,0.5101,0.6376,0.651,0.7984,0.859,0.8584,0.8117,0.7712,0.7379,0.7784,0.7917,0.7984,0.8451,0.859,0.859,0.0,0.0,0.0,0.0,0.0,0.0,0.0,0.0,0.0,0.0,0.4728,0.4887,0.0,0.0,0.0,0.0,0.0,0.0,0.0,0.5344,0.5419,0.5481,0.5623,0.5759,0.589,0.6383,0.6742,0.6975,0.7204,0.721,0.6923,0.7045,0.7065,0.7061,0.7156,0.7061,0.6866,0.6702,0.662,0.6539,0.6302,0.6078,0.5881,0.0,0.0,0.0,0.0,0.0,0.0,0.0,0.0,0.0,0.4945,0.5218,0.552,0.5237,0.539,0.5587,0.5394,0.0,0.0,0.0,0.0,0.0,0.0,0.0,0.0,0.0,0.0,0.8231,0.8204,0.816,0.0,0.8285,0.841,0.8508,0.8579,0.859,0.859,0.859,0.859,0.859,0.859,0.859,0.859,0.859,0.859,0.859,0.859,0.859,0.859,0.859,0.7717,0.7245,0.7245,0.5837,0.5165,0.5165,0.5165,0.4696,0.3895,0.5637,0.6376,0.651,0.7984,0.859,0.859,0.859,0.859,0.859,0.859,0.859,0.859,0.859,0.859,0.859,0.0,0.0,0.0,0.0,0.0,0.0,0.0,0.0,0.0,0.0,0.4755,0.4908,0.0,0.0,0.0,0.0,0.0,0.0,0.0,0.5392,0.5467,0.5583,0.563,0.589,0.6327,0.6675,0.6668,0.63,0.6695,0.6831,0.6688,0.695,0.7247,0.7556,0.757,0.7468,0.7316,0.6987,0.677,0.6607,0.6464,0.624,0.5952,0.5939,0.0,0.0,0.0,0.0,0.0,0.0,0.0,0.0,0.4748,0.4816,0.4926,0.499,0.5231,0.5546,0.5648,0.0,0.0,0.0,0.0,0.0,0.0,0.0,0.0,0.0,0.0,0.8301,0.841,0.8339,0.8301,0.8416,0.8519,0.859,0.859,0.859,0.859,0.859,0.859,0.859,0.859,0.859,0.859,0.859,0.859,0.859,0.859,0.859,0.859,0.859,0.859,0.859,0.859,0.7245,0.6577,0.6577,0.6577,0.6577,0.6577,0.6577,0.6577,0.6644,0.8051,0.859,0.859,0.859,0.859,0.859,0.859,0.859,0.859,0.859,0.859,0.859,0.0,0.0,0.0,0.0,0.0,0.0,0.0,0.0,0.0,0.0,0.0,0.0,0.0,0.0,0.0,0.0,0.0,0.0,0.0,0.5392,0.5467,0.5583,0.5965,0.6306,0.66,0.6471,0.6395,0.63,0.6586,0.6668,0.6573,0.6903,0.7132,0.72,0.7366,0.718,0.6695,0.6518,0.6247,0.5989,0.5956,0.584,0.5671,0.5583,0.5481,0.0,0.0,0.0,0.0,0.0,0.0,0.0,0.4843,0.4935,0.5044,0.4951,0.5222,0.5566,0.0,0.5841,0.0,0.0,0.0,0.0,0.0,0.0,0.0,0.0,0.0,0.0,0.8546,0.853,0.8519,0.8546,0.8573,0.859,0.859,0.859,0.859,0.859,0.859,0.859,0.859,0.859,0.859,0.859,0.859,0.859,0.859,0.859,0.859,0.859,0.859,0.859,0.859,0.8251,0.8117,0.8117,0.8117,0.8117,0.8117,0.8117,0.8117,0.8117,0.8451,0.859,0.859,0.859,0.859,0.859,0.859,0.859,0.859,0.859,0.859,0.859,0.0,0.0,0.0,0.0,0.0,0.0,0.0,0.0,0.0,0.0,0.0,0.0,0.0,0.0,0.0,0.0,0.0,0.0,0.0,0.5392,0.5494,0.5684,0.6163,0.6369,0.6376,0.634,0.6224,0.6081,0.6268,0.6451,0.6593,0.7041,0.7326,0.7415,0.7475,0.719,0.6675,0.6497,0.6186,0.5908,0.5908,0.582,0.5677,0.5562,0.5412,0.523,0.4986,0.0,0.0,0.0,0.0,0.0,0.0,0.0,0.4884,0.4779,0.5002,0.5301,0.0,0.0,0.0,0.0,0.0,0.0,0.0,0.0,0.0,0.0,0.0,0.0,0.0,0.8552,0.859,0.859,0.859,0.859,0.859,0.859,0.859,0.859,0.859,0.859,0.859,0.859,0.859,0.859,0.859,0.859,0.859,0.859,0.859,0.859,0.859,0.859,0.859,0.859,0.859,0.859,0.859,0.859,0.859,0.859,0.859,0.859,0.859,0.859,0.859,0.859,0.859,0.859,0.859,0.859,0.859,0.859,0.859,0.859,0.0,0.0,0.0,0.0,0.0,0.0,0.0,0.0,0.0,0.0,0.0,0.0,0.0,0.0,0.0,0.0,0.0,0.0,0.0,0.5419,0.5569,0.5827,0.62,0.6302,0.6074,0.6159,0.6122,0.5881,0.5983,0.6276,0.6865,0.7183,0.7502,0.7801,0.7638,0.7312,0.6822,0.6539,0.6207,0.5878,0.5851,0.5764,0.5664,0.546,0.5258,0.498,0.4711,0.4709,0.4826,0.4761,0.0,0.0,0.0,0.0,0.4653,0.4553,0.4668,0.4897,0.0,0.0,0.0,0.0,0.0,0.0,0.0,0.0,0.0,0.0,0.0,0.0,0.0,0.8465,0.8524,0.8524,0.8546,0.8557,0.8557,0.8573,0.859,0.859,0.859,0.859,0.859,0.859,0.859,0.859,0.859,0.859,0.859,0.859,0.859,0.859,0.859,0.859,0.859,0.859,0.859,0.859,0.859,0.859,0.859,0.859,0.859,0.859,0.859,0.859,0.859,0.859,0.859,0.859,0.859,0.859,0.859,0.859,0.859,0.859,0.0,0.0,0.0,0.0,0.0,0.0,0.0,0.0,0.0,0.0,0.5351,0.5365,0.5365,0.5385,0.0,0.0,0.0,0.0,0.5392,0.0,0.0,0.5946,0.602,0.6193,0.641,0.6051,0.5976,0.6238,0.6084,0.6525,0.7475,0.7265,0.7355,0.7801,0.7522,0.7149,0.6702,0.6274,0.584,0.5474,0.5304,0.5204,0.5157,0.4789,0.4683,0.4711,0.4391,0.4386,0.4595,0.4816,0.4802,0.0,0.0,0.0,0.0,0.4301,0.4396,0.4563,0.0,0.0,0.0,0.0,0.0,0.0,0.0,0.0,0.0,0.0,0.0,0.0,0.0,0.8274,0.828,0.828,0.8372,0.8443,0.8443,0.8524,0.859,0.859,0.859,0.859,0.859,0.859,0.859,0.859,0.859,0.859,0.859,0.859,0.859,0.859,0.859,0.859,0.859,0.859,0.859,0.859,0.859,0.859,0.859,0.859,0.859,0.859,0.859,0.859,0.859,0.859,0.859,0.859,0.859,0.859,0.859,0.859,0.859,0.859,0.0,0.0,0.0,0.0,0.0,0.0,0.0,0.0,0.0,0.0,0.0,0.5392,0.5392,0.5392,0.0,0.0,0.0,0.0,0.5392,0.5542,0.0,0.5779,0.5861,0.5928,0.5976,0.5733,0.5699,0.5924,0.5732,0.6234,0.7339,0.7292,0.7645,0.8296,0.7828,0.7366,0.6862,0.6249,0.5772,0.5378,0.5189,0.5299,0.5528,0.4772,0.4807,0.5113,0.4266,0.4121,0.438,0.4595,0.4726,0.4826,0.4887,0.0,0.0,0.0,0.0,0.0,0.0,0.0,0.0,0.0,0.0,0.0,0.0,0.0,0.0,0.0,0.0,0.0,0.0,0.8187,0.8172,0.8172,0.828,0.8318,0.8318,0.8361,0.8388,0.8388,0.8388,0.8388,0.8388,0.8388,0.8388,0.8388,0.8388,0.8388,0.8388,0.8388,0.8388,0.8388,0.8388,0.8388,0.8388,0.8388,0.8388,0.8388,0.8388,0.8388,0.8388,0.8388,0.8465,0.859,0.859,0.859,0.859,0.859,0.859,0.859,0.859,0.859,0.859,0.859,0.859,0.859,0.0,0.0,0.0,0.0,0.0,0.0,0.0,0.0,0.0,0.0,0.0,0.0,0.5392,0.0,0.0,0.0,0.0,0.0,0.5392,0.0,0.0,0.0,0.565,0.5657,0.5589,0.5433,0.5399,0.5589,0.5508,0.6051,0.7213,0.7414,0.7984,0.8852,0.8248,0.7665,0.7058,0.6472,0.6003,0.5617,0.5467,0.5629,0.5932,0.5272,0.5336,0.5672,0.4595,0.4326,0.4524,0.4565,0.47,0.4857,0.0,0.0,0.0,0.0,0.0,0.0,0.0,0.0,0.0,0.0,0.0,0.0,0.0,0.0,0.0,0.0,0.0,0.0,0.0,0.8079,0.8144,0.8144,0.8171,0.8187,0.8187,0.8214,0.8172,0.8172,0.8172,0.8172,0.8172,0.8172,0.8172,0.8172,0.8172,0.8172,0.8172,0.8172,0.8172,0.8172,0.8172,0.8172,0.8172,0.8172,0.8172,0.8172,0.8172,0.8172,0.8172,0.8172,0.8329,0.8497,0.8497,0.8497,0.8497,0.8497,0.8519,0.8546,0.8546,0.8562,0.859,0.859,0.859,0.859,0.0,0.0,0.0,0.0,0.0,0.0,0.0,0.0,0.0,0.0,0.0,0.0,0.5392,0.5392,0.5392,0.5392,0.5392,0.0,0.0,0.0,0.0,0.0,0.0,0.0,0.5589,0.5298,0.5291,0.5589,0.5583,0.6261,0.7577,0.7719,0.8343,0.932,0.8716,0.7963,0.7085,0.691,0.662,0.6252,0.6245,0.6132,0.6033,0.6284,0.6409,0.6363,0.5587,0.5312,0.5291,0.4977,0.4815,0.4729,0.4857,0.4727,0.4465,0.0,0.0,0.0,0.0,0.0,0.0,0.0,0.0,0.0,0.0,0.0,0.0,0.0,0.0,0.0,0.0,0.0,0.7888,0.7888,0.8048,0.8125,0.8125,0.816,0.8172,0.8172,0.8172,0.8172,0.8172,0.8172,0.8172,0.8172,0.8172,0.8172,0.8172,0.8172,0.8172,0.8172,0.8172,0.8172,0.8172,0.8172,0.8172,0.8172,0.8172,0.8172,0.8172,0.8172,0.8178,0.8188,0.8188,0.8188,0.8188,0.8188,0.8323,0.8426,0.8426,0.8492,0.859,0.859,0.859,0.859,0.0,0.0,0.0,0.0,0.0,0.0,0.0,0.0,0.0,0.0,0.0,0.0,0.0,0.5392,0.5392,0.5392,0.5392,0.0,0.0,0.0,0.0,0.0,0.0,0.0,0.5474,0.5148,0.5063,0.5298,0.5203,0.5705,0.6791,0.7177,0.7638,0.8099,0.8269,0.8167,0.7821,0.7088,0.6688,0.6532,0.6477,0.6654,0.697,0.6615,0.6777,0.7099,0.6264,0.5912,0.0,0.5652,0.5456,0.5245,0.5083,0.489,0.467,0.432,0.42,0.0,0.0,0.0,0.0,0.0,0.0,0.0,0.0,0.0,0.0,0.0,0.0,0.0,0.0,0.0,0.7872,0.7872,0.7971,0.7999,0.7999,0.7975,0.8002,0.8002,0.8002,0.8002,0.8002,0.8002,0.8002,0.8002,0.8002,0.8002,0.8002,0.8002,0.8002,0.8002,0.8002,0.8002,0.8002,0.8002,0.8002,0.8002,0.8002,0.8002,0.8002,0.8002,0.8002,0.8002,0.8002,0.8089,0.8172,0.8172,0.8194,0.8301,0.8301,0.8323,0.8372,0.8448,0.8481,0.8492,0.0,0.0,0.0,0.0,0.0,0.0,0.0,0.0,0.5412,0.5467,0.0,0.0,0.0,0.0,0.5521,0.5474,0.5474,0.5446,0.5399,0.5392,0.0,0.0,0.0,0.0,0.5392,0.5169,0.5087,0.5096,0.5087,0.5454,0.6193,0.6688,0.7109,0.7461,0.7712,0.7929,0.8072,0.7373,0.7048,0.7,0.7,0.7272,0.7665,0.7523,0.7702,0.7969,0.7283,0.6889,0.0,0.0,0.0,0.5813,0.5413,0.5047,0.4699,0.4307,0.4295,0.0,0.4413,0.0,0.0,0.0,0.0,0.0,0.0,0.0,0.0,0.0,0.0,0.0,0.0,0.0,0.0,0.7807,0.7845,0.7872,0.7872,0.7872,0.7872,0.7872,0.7872,0.7872,0.7872,0.7872,0.7872,0.7872,0.7872,0.7872,0.7872,0.7872,0.7872,0.7872,0.7872,0.7872,0.7872,0.7872,0.7872,0.7872,0.7872,0.7872,0.7872,0.7872,0.7872,0.7872,0.7872,0.7964,0.8111,0.8111,0.8138,0.8176,0.8234,0.8325,0.837,0.8582,0.868,0.8691,0.0,0.0,0.0,0.0,0.0,0.0,0.0,0.0,0.546,0.5576,0.0,0.0,0.0,0.0,0.0,0.5623,0.5603,0.5569,0.5412,0.5399,0.0,0.0,0.0,0.0,0.5392,0.5392,0.5284,0.5096,0.5284,0.5583,0.5979,0.6315,0.6851,0.7543,0.7115,0.7244,0.778,0.7767,0.7706,0.7645,0.786,0.7907,0.797,0.8981,0.9198,0.8871,0.8621,0.8323,0.0,0.7186,0.0,0.6436,0.5786,0.5119,0.4484,0.4283,0.4358,0.0,0.0,0.0,0.0,0.0,0.0,0.0,0.0,0.0,0.0,0.0,0.0,0.0,0.0,0.0,0.0,0.0,0.7785,0.7861,0.7861,0.7861,0.7861,0.7867,0.7867,0.7867,0.7872,0.7872,0.7872,0.7872,0.7872,0.7872,0.7872,0.7933,0.7933,0.7872,0.7933,0.7933,0.7872,0.7872,0.7872,0.7872,0.7872,0.7872,0.7872,0.7872,0.7933,0.7933,0.7933,0.7933,0.7933,0.7933,0.8004,0.8171,0.842,0.862,0.873,0.9048,0.9176,0.9182,0.0,0.0,0.0,0.0,0.0,0.5677,0.5677,0.5677,0.5691,0.0,0.0,0.0,0.5806,0.6003,0.6156,0.6115,0.5969,0.58,0.5542,0.5453,0.5392,0.5392,0.5392,0.5392,0.5392,0.525,0.5143,0.5096,0.5143,0.5311,0.559,0.5962,0.6322,0.6675,0.6722,0.6851,0.6993,0.6783,0.0,0.8052,0.7699,0.8113,0.0,0.0,0.9273,0.0,0.0,0.9103,0.8777,0.0,0.7807,0.7109,0.6071,0.5379,0.4874,0.4636,0.483,0.5038,0.4539,0.0,0.0,0.0,0.0,0.0,0.0,0.0,0.0,0.0,0.0,0.0,0.0,0.0,0.0,0.0,0.7597,0.7616,0.7616,0.7616,0.7649,0.7736,0.7747,0.778,0.7861,0.7872,0.7872,0.0,0.7872,0.7872,0.7872,0.8122,0.8183,0.7933,0.8122,0.8122,0.7933,0.7872,0.7872,0.7872,0.7872,0.7872,0.7872,0.7872,0.8055,0.8244,0.8244,0.8427,0.861,0.8366,0.8451,0.8664,0.8787,0.8811,0.8853,0.9012,0.9048,0.9123,0.0,0.0,0.0,0.5917,0.5949,0.601,0.6071,0.6084,0.6105,0.0,0.0,0.0,0.6268,0.6539,0.6689,0.6504,0.6302,0.6064,0.5698,0.5576,0.546,0.5399,0.5453,0.5487,0.5487,0.5426,0.5352,0.5223,0.5223,0.5243,0.527,0.5596,0.58,0.5931,0.6102,0.6247,0.6396,0.5969,0.6607,0.0,0.7991,0.0,0.0,0.9422,0.9632,0.0,0.0,0.0,0.9388,0.9089,0.837,0.0,0.0,0.0,0.5521,0.5126,0.5324,0.5555,0.5073,0.5088,0.0,0.0,0.0,0.0,0.0,0.5177,0.0,0.0,0.0,0.0,0.0,0.0,0.0,0.0,0.0,0.7687,0.7846,0.7869,0.7897,0.7971,0.7982,0.8011,0.7954,0.7965,0.7905,0.7725,0.7725,0.7725,0.7725,0.7955,0.8049,0.7801,0.8033,0.8122,0.7933,0.7872,0.7872,0.7872,0.7872,0.7872,0.7872,0.7872,0.8055,0.8372,0.8372,0.8671,0.9037,0.8854,0.8854,0.8915,0.9037,0.9098,0.9105,0.9248,0.9341,0.9354,0.0,0.0,0.6731,0.6184,0.622,0.6402,0.6559,0.6586,0.6593,0.0,0.6647,0.6702,0.7041,0.7285,0.7258,0.6858,0.6641,0.6335,0.5881,0.5684,0.5556,0.5399,0.5542,0.5583,0.5562,0.5718,0.5657,0.5392,0.5412,0.5311,0.513,0.533,0.5385,0.5371,0.5385,0.5576,0.5865,0.5447,0.6091,0.7428,0.8384,0.8817,0.0,0.0,1.01,0.9958,1.0209,1.0127,0.9842,0.9517,0.8669,0.0,0.0,0.0,0.0,0.5699,0.5793,0.6027,0.5766,0.5641,0.0,0.0,0.0,0.0,0.5508,0.5218,0.5029,0.0,0.0,0.0,0.0,0.0,0.0,0.0,0.0,0.7919,0.8272,0.8344,0.8356,0.8375,0.8375,0.8264,0.8038,0.8038,0.7863,0.7577,0.7519,0.7519,0.7519,0.7622,0.7741,0.7682,0.784,0.7889,0.7834,0.7845,0.785,0.785,0.7867,0.7872,0.7872,0.7933,0.8122,0.8433,0.8488,0.8854,0.9335,0.9335,0.9214,0.9037,0.9275,0.9335,0.9396,0.97,0.9822,0.9822,0.0,0.6235,0.6447,0.6566,0.6593,0.6702,0.6923,0.6964,0.6977,0.7004,0.7136,0.7446,0.795,0.7841,0.7692,0.7604,0.7129,0.6647,0.6238,0.5806,0.5556,0.5399,0.5542,0.5535,0.544,0.5664,0.5657,0.5392,0.5521,0.5501,0.5351,0.5378,0.533,0.5182,0.5337,0.5338,0.5319,0.6084,0.0,0.7173,0.7543,0.8472,0.9666,0.9842,1.0175,1.0534,1.0473,1.0412,1.0283,0.9747,0.9171,0.8501,0.0,0.0,0.0,0.647,0.6491,0.6647,0.6383,0.6478,0.0,0.0,0.0,0.0,0.4997,0.4944,0.5027,0.0,0.0,0.0,0.0,0.0,0.0,0.0,0.0,0.0,0.7901,0.7998,0.8108,0.8223,0.8235,0.8278,0.8329,0.8102,0.7979,0.7921,0.7635,0.7519,0.7519,0.7774,0.7844,0.7557,0.7808,0.7878,0.7589,0.7687,0.7736,0.7736,0.7828,0.7872,0.7933,0.8183,0.8488,0.8793,0.9037,0.9335,0.97,0.97,0.97,0.964,0.97,0.97,0.97,0.9761,0.9822,0.9822,0.6201,0.6609,0.6976,0.6805,0.6939,0.7136,0.7428,0.7429,0.7529,0.7685,0.7902,0.8099,0.8306,0.8194,0.8085,0.7936,0.7448,0.6959,0.6512,0.6057,0.5711,0.5521,0.5549,0.5589,0.5617,0.5657,0.5657,0.5617,0.5542,0.5433,0.525,0.5358,0.5392,0.5359,0.5392,0.5562,0.582,0.0,0.6641,0.7319,0.8072,0.0,0.9856,1.0154,1.046,1.0711,1.0636,1.0555,1.0399,0.9808,0.9408,0.0,0.8275,0.7991,0.7807,0.0,0.719,0.7305,0.7,0.0,0.0,0.6531,0.0,0.0,0.0,0.5207,0.5095,0.5314,0.0,0.0,0.0,0.0,0.0,0.0,0.0,0.0,0.7667,0.8,0.825,0.832,0.8333,0.8249,0.8048,0.7941,0.7832,0.7613,0.7448,0.7339,0.7339,0.7566,0.7599,0.7426,0.7602,0.7694,0.7519,0.7578,0.7611,0.7611,0.7911,0.8027,0.8087,0.8459,0.8793,0.9098,0.9214,0.9518,0.9822,0.9822,0.9822,0.9822,0.9822,0.9822,0.9822,0.9822,0.9822,0.9822,0.6388,0.692,0.7321,0.6922,0.7156,0.7461,0.7733,0.7821,0.7977,0.8309,0.8587,0.8696,0.8547,0.8601,0.8567,0.8312,0.7828,0.7333,0.6939,0.641,0.601,0.5772,0.5705,0.5732,0.584,0.5732,0.5691,0.5718,0.5515,0.5284,0.5103,0.5257,0.5433,0.5542,0.5542,0.589,0.6497,0.0,0.0,0.7726,0.0,0.9449,0.968,1.0337,1.0588,1.0602,1.069,1.0643,1.0446,0.9883,0.9612,0.9381,0.8635,0.8479,0.0,0.0,0.0,0.0,0.0,0.0,0.0,0.0,0.0,0.6356,0.0,0.0,0.0,0.57,0.0,0.0,0.0,0.0,0.0,0.0,0.0,0.0,0.0,0.0,0.0,0.8343,0.8404,0.8236,0.7713,0.7604,0.744,0.7128,0.7078,0.7078,0.7172,0.7214,0.7279,0.7301,0.7399,0.7448,0.7448,0.747,0.7481,0.7544,0.796,0.8212,0.8295,0.8763,0.9067,0.9275,0.9396,0.9579,0.9822,0.9822,0.9822,0.9822,0.9822,0.9822,0.9822,0.9822,0.9822,0.9822,0.63,0.6494,0.6646,0.6695,0.7082,0.7428,0.7597,0.7848,0.8116,0.8601,0.8804,0.9049,0.9415,0.9354,0.932,0.9422,0.8533,0.7833,0.7699,0.6892,0.645,0.6416,0.6118,0.5952,0.5966,0.5952,0.5793,0.5446,0.5412,0.5284,0.5096,0.5117,0.5237,0.544,0.5786,0.6146,0.0,0.0,0.7597,0.0,0.9064,0.9042,0.0,0.9734,1.0065,1.0112,1.0575,1.0711,1.0622,0.0,0.9923,0.9781,0.0,0.8817,0.8818,0.8479,0.0,0.0,0.0,0.0,0.0,0.0,0.759,0.0,0.0,0.0,0.5924,0.5476,0.0,0.0,0.0,0.0,0.0,0.0,0.0,0.0,0.0,0.0,0.0,0.7841,0.8126,0.8186,0.7878,0.721,0.6832,0.687,0.6551,0.6607,0.698,0.7018,0.7073,0.7226,0.7243,0.7254,0.7254,0.7301,0.747,0.7755,0.7939,0.8237,0.8587,0.8897,0.9153,0.9335,0.964,0.9761,0.9822,0.9822,0.9822,0.9822,0.9822,0.9822,0.9822,0.9822,0.9822,0.9822,0.63,0.6416,0.6559,0.6675,0.7,0.7319,0.7563,0.8214,0.875,0.894,0.9252,0.9557,0.9775,0.9578,0.9476,0.9713,0.8959,0.8425,0.8099,0.7482,0.7007,0.6749,0.6451,0.6247,0.6166,0.5989,0.5766,0.5528,0.544,0.5284,0.5103,0.5311,0.5616,0.6054,0.6295,0.0,0.7555,0.0,0.776,0.0,0.0,0.0,0.0,0.9964,1.0439,1.0402,1.0656,1.0717,1.0649,1.0202,0.9992,0.0,0.0,0.0,0.0,0.0,0.0,0.0,0.0,0.0,0.0,0.0,0.0,0.0,0.6545,0.0,0.5989,0.0,0.0,0.0,0.0,0.0,0.0,0.0,0.6161,0.0,0.0,0.0,0.0,0.0,0.0,0.0,0.7265,0.6846,0.6571,0.6567,0.6393,0.6415,0.6752,0.691,0.7116,0.7325,0.7232,0.7376,0.7654,0.7544,0.7623,0.7903,0.8268,0.8475,0.8652,0.917,0.94,0.9466,0.9727,0.9822,0.9822,0.9822,0.9822,0.9822,0.9822,0.9822,0.9822,0.9822,0.9822,0.9822,0.6354,0.0,0.6545,0.662,0.6919,0.724,0.7719,0.8511,0.9098,0.9309,0.9591,0.9944,1.0199,0.9964,0.9883,1.0222,0.9572,0.9103,0.8832,0.8147,0.7692,0.7442,0.6953,0.6647,0.6668,0.6207,0.5874,0.565,0.5487,0.5358,0.5231,0.544,0.5883,0.6463,0.6702,0.736,0.8306,0.0,0.8194,0.8669,0.8798,0.8947,0.9198,1.0168,1.0616,1.0717,1.0717,1.0717,1.0656,1.0249,1.0039,0.991,0.968,0.9388,0.9123,0.0,0.0,0.0,0.8486,0.0,0.0,0.0,0.0,0.0,0.0,0.0,0.0,0.0,0.0,0.0,0.0,0.0,0.0,0.6054,0.0,0.6057,0.0,0.0,0.0,0.0,0.0,0.0,0.0,0.6321,0.6156,0.6263,0.6094,0.6149,0.6545,0.6768,0.7022,0.7414,0.7315,0.7543,0.7986,0.7826,0.7826,0.8159,0.8482,0.8721,0.888,0.9265,0.953,0.9612,0.972,0.9788,0.9822,0.9822,0.9822,0.9822,0.9822,0.9822,0.9822,0.9822,0.9822,0.9822,0.6477,0.6511,0.0,0.6518,0.6844,0.7348,0.814,0.8391,0.8764,0.9496,0.9727,1.01,1.0772,1.0705,1.0853,0.0,0.0,1.0005,1.006,0.8954,0.8438,0.8804,0.7698,0.7213,0.755,0.6831,0.6234,0.5793,0.5535,0.5467,0.5569,0.5467,0.5726,0.6334,0.6871,0.755,0.834,0.856,0.9266,1.0181,0.9897,1.0127,1.0609,0.0,1.0274,1.0717,1.0717,1.0717,1.0677,1.0371,1.027,1.0188,0.9747,0.9598,0.0,0.0,0.0,0.0,0.0,0.8913,0.0,0.7719,0.0,0.0,0.0,0.0,0.6822,0.0,0.0,0.0,0.0,0.695,0.6714,0.6361,0.6409,0.0,0.0,0.0,0.0,0.0,0.0,0.0,0.0,0.5564,0.5295,0.0,0.5485,0.5578,0.6349,0.6562,0.684,0.7402,0.7541,0.7715,0.7986,0.7986,0.8152,0.8484,0.8491,0.8729,0.9214,0.9221,0.9327,0.9612,0.9612,0.9693,0.9822,0.9822,0.9822,0.9822,0.9822,0.9822,0.9822,0.9822,0.9822,0.9822,0.0,0.0,0.0,0.0,0.0,0.7319,0.8269,0.8791,0.9745,1.1573,1.0955,1.1094,0.0,1.1936,1.1267,0.0,0.0,1.0656,1.0365,0.9686,0.932,0.9381,0.8608,0.8092,0.7847,0.7448,0.6898,0.6247,0.6088,0.602,0.6067,0.5874,0.6125,0.6722,0.7115,0.7821,0.0,0.0,0.0,0.0,0.0,1.0181,1.0704,0.0,1.0588,1.0717,1.0717,1.0717,1.0704,1.0609,1.0439,1.027,1.0209,0.9924,0.9605,0.9598,0.9496,0.9327,0.9076,0.9225,0.9191,0.8085,0.7855,0.7658,0.0,0.0,0.0,0.0,0.0,0.0,0.0,0.6977,0.681,0.6497,0.6274,0.5969,0.0,0.0,0.0,0.0,0.0,0.0,0.0,0.0,0.0,0.5415,0.5426,0.5654,0.6176,0.662,0.7113,0.7605,0.7678,0.8011,0.8602,0.8429,0.8484,0.8768,0.8768,0.885,0.9015,0.9166,0.9323,0.9462,0.9564,0.9693,0.9822,0.9822,0.9822,0.9822,0.9822,0.9822,0.9822,0.9822,0.9822,0.9822,0.6939,0.6932,0.6869,0.0,0.0,0.7604,0.8438,0.9164,1.0207,0.0,1.1917,0.0,1.3363,0.0,1.2273,0.0,1.1579,1.1212,1.0758,1.0358,0.0,0.9856,0.932,0.8866,0.8526,0.8119,0.7543,0.6832,0.6593,0.6471,0.645,0.6207,0.6403,0.6896,0.0,0.7896,0.8798,0.0,0.9469,0.0,0.0,1.0371,0.0,0.0,1.0717,1.0717,1.0717,1.0717,1.0717,1.0717,1.0595,1.0446,1.048,1.0229,0.991,0.9842,0.9727,0.9551,0.9296,0.934,0.9313,0.8418,0.8194,0.7991,0.7197,0.7217,0.7346,0.0,0.0,0.0,0.0,0.7373,0.7048,0.6695,0.6342,0.5867,0.0,0.4988,0.0,0.0,0.0,0.0,0.0,0.0,0.5156,0.521,0.5216,0.0,0.0,0.6568,0.7157,0.7697,0.7886,0.8295,0.8878,0.8712,0.8712,0.8885,0.8885,0.8885,0.8885,0.9035,0.9157,0.9306,0.9462,0.9612,0.9747,0.9802,0.9822,0.9822,0.9822,0.9822,0.9822,0.9822,0.9822,0.9822,0.7319,0.717,0.6997,0.7139,0.7624,0.815,0.0,0.0,1.0209,0.0,1.249,1.3349,1.2331,1.3412,1.3738,1.2416,1.202,1.1667,1.1302,1.0988,0.0,0.0,1.0026,0.9696,0.9545,0.8879,0.816,0.7473,0.7109,0.6871,0.6715,0.6463,0.6512,0.6889,0.7238,0.0,0.8533,0.9279,0.9951,1.0514,1.0663,1.0717,1.0717,1.0717,1.0717,1.0717,1.0717,1.0717,1.0717,1.0717,1.0717,1.0697,1.0548,1.05,1.0405,0.9978,0.9883,0.9862,0.9354,0.9357,0.9259,0.8676,0.8513,0.835,0.7773,0.7977,0.8208,0.0,0.0,0.0,0.0,0.7997,0.7468,0.6964,0.6539,0.5972,0.0,0.0,0.0,0.0,0.0,0.0,0.0,0.0,0.455,0.511,0.4963,0.0,0.0,0.6401,0.7012,0.7679,0.8094,0.8506,0.8878,0.8885,0.8885,0.8885,0.8885,0.8885,0.8885,0.8885,0.9015,0.9221,0.9313,0.9469,0.9618,0.9761,0.9822,0.9822,0.9822,0.9822,0.9822,0.9822,0.9822,0.9822,0.74,0.7672,0.797,0.8113,0.8085,0.8251,0.9089,0.9591,0.0,0.0,1.2559,1.2758,1.4075,1.3489,1.2768,1.2367,1.2216,0.0,0.0,0.0,0.0,1.2989,1.2319,1.1885,1.1703,0.9918,0.8777,0.8194,0.757,0.7177,0.6977,0.6722,0.6647,0.6776,0.0,0.0,0.8526,0.9171,0.991,1.0663,1.0704,1.0717,1.0717,1.0717,1.0717,1.0717,1.0717,1.0717,1.0717,1.0717,1.0717,1.0711,1.0677,1.0582,1.0466,1.0351,1.0188,0.9957,0.9863,0.9768,0.9618,0.9245,0.8981,0.8723,0.8343,0.8431,0.8513,0.8214,0.8479,0.8642,0.8228,0.7982,0.7658,0.6997,0.6363,0.0,0.0,0.0,0.0,0.0,0.0,0.0,0.0,0.0,0.4624,0.4684,0.4931,0.0,0.6014,0.6465,0.7068,0.784,0.8256,0.8615,0.8885,0.8885,0.8885,0.8885,0.8885,0.8885,0.8885,0.8885,0.9015,0.9221,0.9313,0.9469,0.9618,0.9761,0.9822,0.9822,0.9822,0.9822,0.9822,0.9822,0.9822,0.9822,0.7862,0.8343,0.0,0.8947,0.0,0.9089,0.9598,0.9924,1.0877,1.3102,1.3105,0.0,1.4338,1.3893,1.3231,1.2463,1.2379,0.0,1.1979,0.0,0.0,1.2748,1.2361,1.2071,1.1687,1.0353,0.0,0.8682,0.7997,0.7482,0.7092,0.677,0.0,0.0,0.0,0.7611,0.0,0.9178,0.9978,1.0622,1.0697,1.0717,0.0,1.0717,1.0717,1.0717,1.0717,1.0717,1.0717,1.0717,1.0717,1.0717,1.0717,1.0663,1.0575,1.0514,1.0371,1.0215,1.0024,0.9923,0.9863,0.9632,0.9449,0.9245,0.8947,0.894,0.894,0.8757,0.9183,0.9367,0.8666,0.8549,0.8131,0.0,0.0,0.0,0.0,0.0,0.0,0.0,0.0,0.0,0.0,0.0,0.4503,0.45,0.4888,0.0,0.0,0.6485,0.7114,0.7653,0.8233,0.8594,0.8838,0.8851,0.8885,0.8885,0.8885,0.8885,0.8885,0.8885,0.8981,0.9069,0.9286,0.9429,0.9523,0.9734,0.9822,0.9822,0.9822,0.9822,0.9822,0.9822,0.9822,0.9822,0.8547,0.0,0.0,0.0,0.0,0.0,1.0313,1.0647,1.143,1.2804,1.4008,1.4546,1.4058,1.4525,1.433,1.2958,1.2656,1.2408,1.2234,1.254,1.2575,1.2271,1.2134,1.1836,1.1385,1.0626,0.9829,0.0,0.0,0.0,0.7058,0.0,0.0,0.0,0.0,0.0,0.0,0.9306,1.0093,1.0534,1.067,1.0717,1.0717,1.0717,1.0717,1.0717,1.0717,1.0717,1.0717,1.0717,1.0717,1.0717,1.0717,1.0717,1.0697,1.0561,1.0507,1.0432,1.0092,1.0004,0.995,0.9863,0.9822,0.9754,0.9496,0.9442,0.9446,0.9446,1.0019,1.0373,0.9698,0.9411,0.8665,0.0,0.0,0.0,0.0,0.0,0.0,0.0,0.0,0.0,0.0,0.0,0.0,0.0,0.0,0.0,0.0,0.0,0.706,0.7414,0.8146,0.8554,0.871,0.8804,0.8885,0.8885,0.8885,0.8885,0.8885,0.8885,0.8885,0.8898,0.9252,0.9381,0.9401,0.97,0.9822,0.9822,0.9822,0.9822,0.9822,0.9822,0.9822,0.9822,0.9191,0.0,0.0,0.0,0.0,1.0847,1.1287,1.238,1.2998,1.2356,1.4935,1.6375,1.5086,1.4899,1.479,1.4483,1.3267,0.0,0.0,0.0,0.0,1.7579,1.6254,1.525,1.4814,1.1705,0.9768,0.0,0.0,0.755,0.6916,0.6756,0.0,0.0,0.0,0.0,0.9137,0.9618,0.0,1.0683,1.0711,1.0717,1.0717,1.0717,1.0717,1.0717,1.0717,1.0717,1.0717,1.0717,1.0717,1.0717,1.0717,1.0717,1.0717,1.069,1.0588,1.0453,1.0283,1.0148,0.995,0.9863,0.9822,0.9808,0.9754,0.9741,0.9905,1.0605,1.089,1.1083,1.1442,1.0306,0.8772,0.0,0.0,0.0,0.0,0.0,0.0,0.0,0.0,0.0,0.0,0.0,0.0,0.0,0.0,0.0,0.0,0.0,0.6784,0.7691,0.8248,0.8554,0.871,0.8804,0.8885,0.8885,0.8885,0.8885,0.8885,0.8885,0.8885,0.8898,0.9252,0.9381,0.9401,0.97,0.9822,0.9822,0.9822,0.9822,0.9822,0.9822,0.9822,0.9822,0.9983,0.0,0.0,0.0,0.0,1.1531,1.1911,1.3506,1.4279,1.3296,1.4926,1.6045,1.6066,1.6247,1.6386,1.6386,1.5607,1.5403,1.616,1.6804,1.7401,1.8033,1.7034,1.5947,1.4884,1.273,1.0948,0.9388,0.0,0.8254,0.6991,0.7308,0.0,0.0,0.0,0.8296,0.0,0.0,1.012,1.0609,1.069,1.0717,1.0717,1.0717,1.0717,1.0717,1.0717,1.0717,1.0717,1.0717,1.0717,1.0717,1.0717,1.0717,1.0717,1.0717,1.067,1.0575,1.0432,1.0283,1.0134,0.9916,0.9876,0.9822,0.9822,0.9822,1.0056,1.0993,1.1677,1.2226,1.2789,1.1046,0.9282,0.8375,0.0,0.0,0.0,0.0,0.0,0.0,0.0,0.0,0.0,0.0,0.0,0.0,0.0,0.0,0.5798,0.6152,0.6733,0.7556,0.8099,0.8445,0.8587,0.8825,0.8885,0.8885,0.8885,0.8885,0.8885,0.8885,0.8885,0.8898,0.9252,0.978,1.0431,1.1419,1.1804,1.1744,1.1088,1.1209,1.1744,1.1027,1.0785,1.0664,0.0,1.0778,0.0,0.0,1.1701,1.2101,1.2345,1.3855,1.4725,1.4053,1.5176,1.6223,1.6487,1.7346,1.766,1.7303,1.7079,1.7044,1.7379,1.7604,1.7862,1.8184,1.756,1.6525,1.5097,1.3873,1.2354,0.0,0.0,0.8949,0.7676,0.7804,0.7578,0.0,0.0,0.8594,0.9378,0.9707,1.0127,1.0555,1.067,1.0717,1.0717,1.0717,1.0717,1.0717,1.0717,1.0717,1.0717,1.0717,1.0717,1.0717,1.0717,1.0717,1.0717,1.0717,1.0717,1.0683,1.0534,1.0385,1.0243,1.0024,0.9869,0.9822,0.9822,0.9822,1.013,1.1401,1.2669,1.3502,1.334,1.1668,1.0036,0.9146,0.0,0.0,0.0,0.0,0.0,0.0,0.0,0.0,0.0,0.0,0.0,0.0,0.0,0.0,0.582,0.6213,0.6777,0.74,0.8019,0.8374,0.8438,0.8771,0.8885,0.8885,0.8885,0.8885,0.8885,0.8885,0.8885,0.8898,0.9252,1.0164,1.1462,1.2761,1.3426,1.3605,1.2526,1.2766,1.3545,1.2526,1.2113,1.1993,0.0,0.0,0.0,0.0,0.0,1.2657,1.2684,1.3152,1.3542,1.3355,1.7162,1.8848,1.6027,1.703,1.7271,1.5618,1.5437,1.5966,1.7321,1.8723,2.0142,2.1432,2.0088,1.8934,1.8201,1.5165,1.3578,0.0,0.0,0.9035,0.9401,0.7885,0.7433,0.7887,0.8425,0.9062,0.9768,0.9951,1.029,1.0704,1.0717,1.0717,1.0717,1.0717,1.0717,1.0717,1.0717,1.0717,1.0717,1.0717,1.0717,1.0717,1.0717,1.0717,1.0717,1.0717,1.0717,1.0683,1.0534,1.0385,1.0243,1.0024,0.9869,0.9822,0.9822,0.9822,1.0335,1.2338,1.4304,1.4927,1.2615,1.2073,1.1086,0.8362,0.7815,0.0,0.0,0.0,0.0,0.0,0.0,0.0,0.0,0.5346,0.0,0.0,0.5049,0.0,0.5932,0.6179,0.6723,0.755,0.8031,0.8327,0.834,0.8723,0.8885,0.8885,0.8885,0.8885,0.8885,0.8885,0.8885,0.8898,0.9252,1.0237,1.1643,1.1856,1.2586,1.3665,1.3545,1.3605,1.3665,1.3545,1.3485,1.3485,1.4437,1.3602,1.3034,1.2436,1.2494,1.2712,1.3078,1.3288,1.3376,1.3315,1.5918,1.727,1.5975,1.719,1.7845,1.7048,1.6747,1.7276,1.8881,1.9508,2.053,2.2102,2.1417,2.037,1.8975,1.7438,1.5874,0.0,0.0,1.2321,1.1503,1.135,1.083,0.99,0.9511,0.9591,0.9909,1.0215,1.0473,1.0717,1.0717,1.1181,1.1901,1.1049,1.1247,1.1835,1.0982,1.0717,1.0717,1.0717,1.0717,1.085,1.1703,1.1372,1.085,1.1703,1.1372,1.0704,1.0643,1.0521,1.0371,1.0222,1.0073,0.9869,0.9842,0.9822,1.0155,1.1512,1.2868,1.3503,1.2413,1.1556,1.062,0.9411,0.8507,0.0,0.0,0.0,0.0,0.0,0.0,0.0,0.0,0.0,0.0,0.0,0.0,0.0,0.5725,0.5989,0.6451,0.7177,0.7896,0.832,0.832,0.8716,0.8885,0.8885,0.8885,0.8885,0.8885,0.8885,0.9035,0.9268,1.0971,1.2171,1.3006,1.456,1.551,1.5924,1.5154,1.5332,1.5865,1.5095,1.4857,1.4976,1.5874,1.462,1.3695,1.2986,1.284,1.2908,1.3336,1.3403,1.3403,1.3403,1.4458,1.5275,1.5275,1.6627,1.7333,1.6797,1.7284,1.8145,1.9244,2.0103,2.1037,2.2259,2.209,0.0,2.0033,1.9173,1.7945,1.6449,1.5628,1.4779,1.3758,1.3505,1.2709,1.1364,1.0371,1.0039,1.0195,1.0453,1.0622,1.0717,1.1181,1.1901,1.275,1.2165,1.2553,1.3276,1.2289,1.1637,1.1306,1.1306,1.1306,1.1439,1.2033,1.1769,1.1505,1.2487,1.2355,1.1901,1.1901,1.1519,1.1099,1.094,1.0475,0.995,0.9856,0.9822,1.0035,1.0941,1.1763,1.2309,1.1982,1.1059,1.0302,1.0087,0.8991,0.822,0.0,0.7945,0.0,0.0,0.8159,0.7852,0.7949,0.752,0.0,0.0,0.0,0.0,0.6317,0.6221,0.657,0.7497,0.8014,0.832,0.832,0.8716,0.8885,0.8885,0.8885,0.8885,0.8885,0.8981,0.9144,0.9497,1.1718,1.3091,1.3844,1.6053,1.7185,1.742,1.6526,1.6703,1.7361,1.6467,1.6172,1.629,1.7318,1.4891,1.2861,1.3315,1.339,1.339,1.3397,1.3403,1.3403,1.3403,1.3403,1.3397,1.3397,1.4946,1.528,1.3424,1.6048,1.7751,1.7632,2.0569,2.2259,2.2334,2.2334,2.2138,2.1873,2.0014,1.9433,2.0255,0.0,1.542,1.6183,1.3159,1.1786,1.1872,1.076,1.0351,1.0493,1.0649,1.0717,1.085,1.2231,1.275,1.2947,1.4324,1.4847,1.4847,1.4847,1.3932,1.275,1.275,1.275,1.2553,1.1181,1.1637,1.275,1.2816,1.3801,1.4847,1.4847,1.3717,1.2563,1.2375,1.115,0.995,0.9856,0.9822,1.0035,1.0941,1.1763,1.2037,1.0945,1.0726,1.0493,0.9914,0.905,0.8676,0.0,0.835,0.0,0.0,0.795,0.7863,0.8772,0.8457,0.0,0.0,0.0,0.0,0.0,0.7071,0.7266,0.8938,0.852,0.832,0.832,0.8716,0.8885,0.8885,0.8885,0.8885,0.8892,0.9083,0.9296,0.9504,1.0875,1.2344,1.3784,1.5095,1.6349,1.7479,1.7479,1.7479,1.7479,1.7479,1.7479,1.7479,2.0199,1.9194,1.8139,1.7121,1.5933,1.5193,1.5193,1.4135,1.3403,1.3403,1.3403,1.3403,1.3403,1.3894,1.3948,1.3411,1.4157,1.5497,1.7594,1.856,2.006,2.2196,2.2334,2.2138,2.1873,2.1327,2.0816,2.0545,1.9261,1.8553,1.8442,1.6477,1.5174,1.4268,1.2954,1.191,1.1016,1.2082,1.2504,1.2632,1.3979,1.5054,1.5827,1.5156,1.5489,1.6203,1.5229,1.4586,1.4259,1.4259,1.4259,1.4128,1.3735,1.321,1.321,1.5089,1.4642,1.3669,1.4651,1.453,1.4114,1.397,1.2763,1.1588,1.1418,1.0482,0.9737,0.9881,1.0065,1.0325,1.0641,1.0726,1.0804,1.1104,1.0931,1.0706,1.0654,0.0,0.9928,0.0,1.0389,1.0171,1.0377,1.0247,0.0,0.0,0.0,0.0,0.7947,0.7966,0.7895,0.7721,0.8166,0.8418,0.8418,0.8764,0.8885,0.8885,0.8885,0.8988,0.9089,0.9187,0.935,0.9655,1.1862,1.3113,1.3844,1.5994,1.7126,1.7479,1.7479,1.7479,1.7479,1.7479,1.7479,1.7479,2.1383,2.0646,1.9836,1.8789,1.7728,1.6983,1.6983,1.6008,1.5365,1.5365,1.4788,1.4383,1.4383,1.3811,1.3403,1.3403,1.3828,1.5184,1.7608,1.8271,1.9601,2.2196,2.2334,2.2186,2.2017,2.1921,2.1619,2.1124,2.0653,2.0195,1.9772,1.8261,1.6815,1.544,1.4633,1.3412,1.2123,1.3617,1.4233,1.436,1.5721,1.6742,1.7453,1.6878,1.7185,1.7824,1.6828,1.6148,1.5684,1.5684,1.5684,1.5684,1.5684,1.5098,1.4707,1.6462,1.6138,1.5359,1.6203,1.6073,1.5634,1.5543,1.437,1.3061,1.2254,1.0778,0.9564,0.9415,0.966,0.9995,1.0594,1.0941,1.1442,1.2265,1.1984,1.1659,1.1756,0.0,1.1059,0.0,0.0,1.1532,1.1671,1.1771,1.1494,0.0,0.0,0.0,0.959,0.9352,0.9013,0.8567,0.8989,0.9044,0.8567,0.8811,0.8885,0.8885,0.8994,0.9062,0.9214,0.933,0.9713,1.0428,1.2604,1.3838,1.456,1.6644,1.7479,1.7479,1.7479,1.7479,1.7479,1.7479,1.7479,1.7479,2.1383,2.0079,1.8952,1.8952,1.887,1.8789,1.8789,1.8708,1.8626,1.8626,1.7156,1.6172,1.6172,1.4706,1.3728,1.3562,1.4727,1.6085,1.7715,1.9078,2.0549,2.222,2.2346,2.2334,2.2334,2.2029,2.1885,2.1873,2.11,2.0593,2.0327,1.8767,1.7214,1.5691,1.5836,1.5019,1.3659,1.5224,1.5904,1.604,1.7385,1.7992,1.8105,1.913,1.956,1.9458,1.9193,1.8314,1.7195,1.7173,1.7173,1.7173,1.7173,1.7173,1.7173,1.7173,1.8022,1.9008,1.9072,1.815,1.7119,1.6976,1.5874,1.4341,1.2651,1.1035,0.9815,0.9603,1.0353,1.1019,1.083,1.1558,1.2408,1.3378,1.2435,1.1914,1.271,1.1902,1.1395,1.1989,1.1945,1.207,1.2697,1.3025,1.3233,1.3471,0.0,0.0,1.2606,1.1175,1.0613,1.1033,1.0768,1.0099,0.8993,0.9085,0.9161,0.9175,0.9363,0.9447,0.9475,0.9769,1.0495,1.1744,1.3223,1.45,1.5688,1.695,1.7479,1.7479,1.7479,1.7479,1.7479,1.7479,1.7479,1.7479,2.3187,2.2866,2.2533,2.2533,2.1475,2.0565,2.0565,1.943,1.8626,1.8626,1.8209,1.7964,1.7964,1.7647,1.6828,1.5522,1.4511,1.5151,1.7938,1.8277,1.9621,2.2485,2.2443,2.2334,2.2334,2.2273,2.2152,2.1873,2.1474,2.1148,2.0871,2.0519,1.939,1.7673,1.7753,1.6907,1.5569,1.7116,1.7753,1.7871,1.9153,1.9696,1.974,1.9747,1.9784,1.9748,1.947,1.9179,1.8871,1.8682,1.8612,1.8612,1.8612,1.8612,1.8612,1.8612,1.8086,1.77,1.8816,1.888,1.86,1.8541,1.7267,1.5587,1.3963,1.3175,1.2405,1.1224,1.1793,1.2447,1.2191,1.2837,1.3665,1.4526,1.4271,1.3918,1.3943,1.3495,1.3263,1.3391,1.3379,1.3375,1.3306,1.3749,1.3797,1.3254,1.3459,1.3513,1.3284,1.3287,1.273,1.1496,1.1704,1.1701,1.153,1.1583,1.1671,1.1877,1.1921,1.2099,1.2392,1.2489,1.2731,1.3232,1.4599,1.5332,1.5688,1.695,1.7479,1.7479,1.7479,1.7479,1.7479,1.7479,1.7479,1.7479,2.376,2.376,2.376,2.376,2.3027,2.2372,2.2372,2.1556,2.099,2.099,2.0251,1.9755,1.9755,1.9105,1.8218,1.7229,1.5604,1.5615,1.8012,1.8051,1.9427,2.2593,2.2588,2.2455,2.2259,2.2334,2.2138,2.1873,2.1728,2.1523,2.1245,2.1245,2.0308,1.8633,1.9349,1.872,1.7268,1.8832,1.9471,1.9529,2.0233,2.046,2.0424,2.0158,2.0062,2.0026,1.976,1.9579,1.9512,1.9301,1.9169,1.9072,1.9072,1.9072,1.9072,1.9072,1.8547,1.815,1.888,1.9072,1.9072,1.9072,1.78,1.6314,1.5391,1.4497,1.3601,1.2587,1.3258,1.3888,1.3568,1.4116,1.4677,1.5047,1.4775,1.4473,1.4316,1.4171,1.4135,1.4268,1.428,1.4268,1.4244,1.4497,1.4485,1.4063,1.4159,1.4244,1.4244,1.463,1.4086,1.2486,1.287,1.2895,1.2417,1.2502,1.2709,1.2974,1.3013,1.3184,1.3402,1.3506,1.3907,1.4619,1.5273,1.5924,1.6526,1.7185,1.7479,1.7479,1.7479,1.7479,1.7479,1.7479,1.7479,1.7479,2.376,2.376,2.376,2.376,2.376,2.376,2.376,2.376,2.376,2.376,2.2533,2.1625,2.1625,2.0251,1.9277,1.9033,1.7638,1.7322,1.8532,1.8574,1.9827,2.2713,2.277,2.2624,2.2406,2.2358,2.215,2.1933,2.1933,2.18,2.1535,2.1535,2.0731,1.925,2.0497,2.0215,1.8887,2.0191,2.0665,2.0665,2.0665,2.0665,2.0641,2.0424,2.034,2.0303,2.0038,1.9796,1.9579,1.9543,1.935,1.9132,1.9132,1.9108,1.9072,1.9072,1.9072,1.9072,1.9072,1.9072,1.9072,1.9072,1.8105,1.7033,1.6812,1.5689,1.4539,1.3927,1.4686,1.5314,1.4765,1.5125,1.5415,1.5149,1.4654,1.4292,1.4292,1.4328,1.4449,1.469,1.4751,1.4859,1.5089,1.5113,1.5125,1.5161,1.5125,1.5125,1.5161,1.5378,1.4977,1.3769,1.4197,1.3964,1.3009,1.3272,1.3546,1.3764,1.3896,1.4004,1.4044,1.4173,1.4857,1.5865,1.5865,1.6526,1.7479,1.7479,1.7479,1.7479,1.7479,1.7479,1.7479,1.7479,1.7479,1.7479,2.376,2.376,2.376,2.376,2.376,2.376,2.376,2.376,2.376,2.376,2.36,2.3428,2.3428,2.3187,2.2372,2.0899,2.0565,2.0473,2.0765,2.0495,2.1241,2.3176,2.2899,2.2709,2.2673,2.2455,2.2321,2.2273,2.2273,2.2066,2.1812,2.1812,2.1595,2.1114,2.1089,2.0969,2.0697,2.0692,2.0665,2.0665,2.0665,2.0665,2.0665,2.0617,2.0605,2.0569,2.0315,2.0195,2.0122,1.9893,1.9639,1.9475,1.9475,1.9253,1.9072,1.9072,1.9072,1.9072,1.9072,1.9072,1.9072,1.9072,1.8752,1.8411,1.8375,1.7798,1.6989,1.5828,1.627,1.6413,1.5017,1.5186,1.5415,1.5149,1.4654,1.4292,1.4292,1.4497,1.4666,1.4714,1.4908,1.5065,1.5101,1.5113,1.5197,1.5415,1.5234,1.5209,1.5427,1.5475,1.5423,1.5179,1.5464,1.5671,1.5666,1.5934,1.6247,1.6505,1.654,1.6623,1.688,1.6926,1.7009,1.7185,1.7185,1.7303,1.7479,1.7479,1.7479,1.7479,1.7479,1.7479,1.7479,1.7479,1.7479,1.7479,2.376,2.376,2.376,2.376,2.376,2.376,2.376,2.376,2.376,2.376,2.376,2.376,2.376,2.376,2.352,2.2694,2.2614,2.2614,2.2614,2.1607,2.1736,2.3296,2.3212,2.2947,2.2733,2.2467,2.2334,2.2334,2.2334,2.2273,2.2152,2.2152,2.1945,2.1679,2.1559,2.1329,2.1122,2.1001,2.0798,2.0665,2.0665,2.0665,2.0665,2.0665,2.0665,2.0653,2.0533,2.04,2.0255,2.0134,1.9917,1.9664,1.9584,1.9451,1.9253,1.912,1.9072,1.9072,1.9072,1.9072,1.9072,1.9072,1.8988,1.8855,1.8722,1.8493,1.8105,1.7202,1.7316,1.7207,1.6218,1.5971,1.5885,1.5765,1.5052,1.4618,1.4908,1.4811,1.4823,1.5101,1.5246,1.5378,1.5511,1.5523,1.5584,1.5704,1.5596,1.5584,1.5704,1.5849,1.5934,1.5922,1.603,1.6296,1.6718,1.6851,1.7044,1.7298,1.7298,1.737,1.7479,1.7479,1.7479,1.7479,1.7479,1.7479,1.7479,1.7479,1.7479,1.7479,1.7479,1.7479,1.7479,1.7479,1.7479,1.7479,2.376,2.376,2.376,2.376,2.376,2.376,2.376,2.376,2.376,2.376,2.376,2.376,2.376,2.376,2.376,2.376,2.376,2.376,2.376,2.2533,2.2282,2.3471,2.3411,2.32,2.2745,2.2527,2.2319,2.2334,2.2334,2.2334,2.2334,2.2334,2.215,2.1957,2.1897,2.1643,2.1316,2.1183,2.1013,2.082,2.0759,2.0665,2.0665,2.0665,2.0665,2.0665,2.0665,2.0533,2.0364,2.0364,2.0195,1.9941,1.9724,1.9615,1.9507,1.9241,1.912,1.9072,1.9072,1.9072,1.9072,1.9072,1.9072,1.9024,1.8819,1.8722,1.8565,1.8155,1.801,1.7817,1.7286,1.6791,1.6404,1.6223,1.5463,1.504,1.5439,1.5209,1.5161,1.562,1.5741,1.5861,1.6054,1.6079,1.6079,1.6079,1.6079,1.6079,1.6079,1.6284,1.6416,1.6465,1.6465,1.667,1.7092,1.7153,1.7286,1.7479,1.7479,1.7479,1.7479,1.7479,1.7479,1.7479,1.7479,1.7479,1.7479,1.7479,1.7479,1.7479,1.7479,1.7479,1.7479,1.7479,1.7479,1.7479,2.376,2.376,2.376,2.376,2.376,2.376,2.376,2.376,2.376,2.376,2.376,2.376,2.376,2.376,2.376,2.376,2.376,2.376,2.376,2.368,2.3668,2.3736,2.3507,2.32,2.2745,2.2709,2.2576,2.2334,2.2334,2.2334,2.2334,2.2334,2.2321,2.2297,2.1981,2.1848,2.1776,2.134,2.1122,2.1086,2.0762,2.0665,2.0665,2.0665,2.0665,2.0665,2.0665,2.0653,2.0641,2.0641,2.046,2.0243,2.0231,2.005,1.9796,1.9519,1.9265,1.9072,1.9072,1.9072,1.9072,1.9072,1.9072,1.9072,1.9048,1.8855,1.8674,1.8638,1.8432,1.8094,1.7551,1.7225,1.6791,1.6042,1.5644,1.5451,1.5487,1.568,1.591,1.6187,1.6453,1.6622,1.6634,1.6646,1.6646,1.6646,1.6646,1.6646,1.6646,1.6658,1.6779,1.702,1.7032,1.7056,1.7092,1.7334,1.7467,1.7479,1.7479,1.7479,1.7479,1.7479,1.7479,1.7479,1.7479,1.7479,1.7479,1.7479,1.7479,1.7479,1.7479,1.7479,1.7479,1.7479,1.7479,1.7479,2.4082,2.3868,2.376,2.376,2.376,2.376,2.376,2.376,2.376,2.376,2.376,2.376,2.376,2.376,2.376,2.376,2.376,2.376,2.376,2.376,2.376,2.376,2.3519,2.3357,2.3152,2.2826,2.2685,2.2576,2.2418,2.2334,2.2334,2.2334,2.2334,2.2334,2.2162,2.2029,2.186,2.1655,2.1462,2.1293,2.1086,2.0977,2.0965,2.0726,2.0665,2.0665,2.0665,2.0665,2.0665,2.0665,2.0605,2.0496,2.0327,2.0207,2.0038,1.9657,1.9463,1.9289,1.912,1.9072,1.9072,1.9072,1.9072,1.9072,1.9072,1.9,1.8879,1.8722,1.8601,1.842,1.8058,1.7624,1.7286,1.7141,1.6477,1.6103,1.6441,1.6284,1.6235,1.6513,1.6634,1.6706,1.6706,1.6706,1.6706,1.6706,1.6706,1.6706,1.6706,1.6851,1.7068,1.7322,1.7334,1.7334,1.7334,1.743,1.7479,1.7479,1.7479,1.7479,1.7479,1.7479,1.7479,1.7479,1.7479,1.7479,1.7479,1.7479,1.7479,1.7479,1.7479,1.7479,1.7479,1.7479,1.7479,1.7479,2.4251,2.4013,2.3856,2.3772,2.376,2.376,2.376,2.376,2.376,2.376,2.376,2.376,2.376,2.376,2.376,2.376,2.376,2.376,2.376,2.376,2.376,2.376,2.3592,2.3459,2.3375,2.3092,2.2826,2.2733,2.2552,2.2418,2.2334,2.2334,2.2334,2.2334,2.2334,2.2237,2.1993,2.1909,2.1764,2.1583,2.1305,2.1268,2.1231,2.0965,2.0868,2.0774,2.0702,2.0665,2.0665,2.0665,2.0665,2.0641,2.046,2.034,2.0207,1.9833,1.9603,1.9487,1.9253,1.9132,1.9072,1.9072,1.9072,1.9072,1.9072,1.9072,1.9024,1.8843,1.8807,1.8722,1.8469,1.8106,1.7841,1.7768,1.7141,1.6767,1.7044,1.6767,1.6634,1.6911,1.6948,1.6948,1.6948,1.6948,1.6948,1.6948,1.6948,1.6948,1.6948,1.7117,1.7298,1.7479,1.7479,1.7479,1.7479,1.7479,1.7479,1.7479,1.7479,1.7479,1.7479,1.7479,1.7479,1.7479,1.7479,1.7479,1.7479,1.7479,1.7479,1.7479,1.7479,1.7479,1.7479,1.7479,1.7479,1.7479,2.4287,2.4238,2.4154,2.3808,2.376,2.376,2.376,2.376,2.376,2.376,2.376,2.376,2.376,2.376,2.376,2.376,2.376,2.376,2.376,2.376,2.376,2.376,2.376,2.364,2.3387,2.3375,2.3188,2.2733,2.2733,2.2588,2.2334,2.2334,2.2334,2.2334,2.2334,2.2334,2.2247,2.1981,2.1873,2.1848,2.1583,2.1486,2.145,2.1244,2.1135,2.1098,2.0774,2.0678,2.0665,2.0665,2.0665,2.0665,2.0665,2.0484,2.0279,2.0279,1.9893,1.9536,1.9536,1.9277,1.9084,1.9072,1.9072,1.9072,1.9072,1.9072,1.9072,1.9072,1.9072,1.9,1.8734,1.8686,1.842,1.7624,1.7491,1.7394,1.7129,1.7092,1.7189,1.7455,1.7479,1.7479,1.7479,1.7479,1.7479,1.7479,1.7479,1.7479,1.7479,1.7479,1.7479,1.7479,1.7479,1.7479,1.7479,1.7479,1.7479,1.7479,1.7479,1.7479,1.7479,1.7479,1.7479,1.7479,1.7479,1.7479,1.7479,1.7479,1.7479,1.7479,1.7479,1.7479,1.7479,1.7479,1.7479,1.7479,2.4528,2.4359,2.4154,2.3808,2.376,2.376,2.376,2.376,2.376,2.376,2.376,2.376,2.376,2.376,2.376,2.376,2.376,2.376,2.376,2.376,2.376,2.376,2.376,2.3724,2.3652,2.3471,2.3285,2.3,2.2818,2.2588,2.2334,2.2334,2.2334,2.2334,2.2334,2.2334,2.2259,2.2174,2.2138,2.22,2.186,2.1752,2.1728,2.1462,2.1354,2.1341,2.1269,2.1112,2.1013,2.1013,2.0892,2.0665,2.0665,2.0617,2.0521,2.0327,2.0158,1.9953,1.9567,1.941,1.9366,1.912,1.9072,1.9072,1.9072,1.9072,1.9072,1.9072,1.9072,1.9048,1.8976,1.8807,1.8601,1.836,1.8167,1.7962,1.7684,1.7636,1.7599,1.7491,1.7479,1.7479,1.7479,1.7479,1.7479,1.7479,1.7479,1.7479,1.7479,1.7479,1.7479,1.7479,1.7479,1.7479,1.7479,1.7479,1.7479,1.7479,1.7479,1.7479,1.7479,1.7479,1.7479,1.7479,1.7479,1.7479,1.7479,1.7479,1.7479,1.7479,1.7479,1.7479,1.7479,1.7479,1.7479,1.7479,2.4516,2.4347,2.4154,2.3808,2.376,2.376,2.376,2.376,2.376,2.376,2.376,2.376,2.376,2.376,2.376,2.376,2.376,2.376,2.376,2.376,2.376,2.376,2.376,2.376,2.376,2.3604,2.3478,2.32,2.3012,2.2745,2.2491,2.2382,2.2334,2.2334,2.2334,2.2334,2.2334,2.2334,2.2334,2.2321,2.209,2.2029,2.1993,2.1728,2.1631,2.1619,2.151,2.1366,2.1209,2.1171,2.0883,2.0665,2.0665,2.0665,2.0641,2.0484,2.0364,2.0207,1.9869,1.9627,1.9487,1.9265,1.9157,1.9072,1.9072,1.9072,1.9072,1.9072,1.9072,1.9072,1.9072,1.8951,1.8807,1.8698,1.8553,1.8348,1.8082,1.8034,1.7937,1.7672,1.7636,1.7599,1.7491,1.7479,1.7479,1.7479,1.7479,1.7479,1.7479,1.7479,1.7479,1.7479,1.7479,1.7479,1.7479,1.7479,1.7479,1.7479,1.7479,1.7479,1.7479,1.7479,1.7479,1.7479,1.7479,1.7479,1.7479,1.7479,1.7479,1.7479,1.7479,1.7479,1.7479,1.7479,1.7479,1.7479,2.4335,2.4214,2.413,2.3808,2.376,2.376,2.376,2.376,2.376,2.376,2.376,2.376,2.376,2.376,2.376,2.376,2.376,2.376,2.376,2.376,2.376,2.376,2.376,2.376,2.376,2.376,2.364,2.3375,2.32,2.3012,2.2721,2.2479,2.2283,2.2334,2.2334,2.2334,2.2334,2.2334,2.2334,2.2334,2.2334,2.2334,2.2235,2.1993,2.1909,2.1873,2.1631,2.1535,2.1462,2.1231,2.0965,2.0702,2.0747,2.0665,2.0665,2.0665,2.0496,2.0303,2.0279,1.9917,1.9531,1.9483,1.9354,1.9108,1.9084,1.9072,1.9072,1.9072,1.9072,1.9072,1.9072,1.9072,1.9,1.8758,1.8722,1.8625,1.836,1.8336,1.8227,1.795,1.7913,1.7805,1.7539,1.7491,1.7479,1.7479,1.7479,1.7479,1.7479,1.7479,1.7479,1.7479,1.7479,1.7479,1.7479,1.7479,1.7479,1.7479,1.7479,1.7479,1.7479,1.7479,1.7479,1.7479,1.7479,1.7479,1.7479,1.7479,1.7479,1.7479,1.7479,1.7479,1.7479,1.7479,1.7537,1.7537,2.4263,2.4069,2.3832,2.3772,2.376,2.376,2.376,2.376,2.376,2.376,2.376,2.376,2.376,2.376,2.376,2.376,2.376,2.376,2.376,2.376,2.376,2.376,2.376,2.376,2.376,2.376,2.364,2.3375,2.3393,2.3116,2.2733,2.2673,2.2527,2.2334,2.2334,2.2334,2.2334,2.2334,2.2334,2.2334,2.2334,2.2334,2.2259,2.2273,2.2174,2.2249,2.2188,2.1957,2.1716,2.1292,2.1086,2.1013,2.0807,2.0665,2.0665,2.0665,2.0629,2.0533,2.0327,2.0195,2.0002,1.9567,1.9487,1.939,1.912,1.9072,1.9072,1.9072,1.9072,1.9072,1.9072,1.9072,1.906,1.9,1.8988,1.8903,1.8638,1.8601,1.8505,1.8239,1.8203,1.8094,1.7817,1.7599,1.7479,1.7479,1.7479,1.7479,1.7479,1.7479,1.7479,1.7479,1.7479,1.7479,1.7479,1.7479,1.7479,1.7479,1.7479,1.7479,1.7479,1.7479,1.7479,1.7479,1.7479,1.7479,1.7479,1.7479,1.7479,1.7479,1.7479,1.7479,1.7479,1.7479,1.7667,1.7901,2.3989,2.3937,2.376,2.376,2.376,2.376,2.376,2.376,2.376,2.376,2.376,2.376,2.376,2.376,2.376,2.376,2.376,2.376,2.376,2.376,2.392,2.4092,2.4172,2.4252,2.4412,2.4252,2.3939,2.3556,2.3435,2.3249,2.2915,2.2782,2.2588,2.2334,2.2334,2.2334,2.2334,2.2334,2.2334,2.2334,2.2334,2.2334,2.2334,2.2334,2.2334,2.2334,2.2334,2.2164,2.1824,2.1619,2.134,2.111,2.0965,2.0774,2.0665,2.0665,2.0665,2.0641,2.0496,2.0376,2.0207,1.9929,1.9664,1.9398,1.9132,1.9072,1.9072,1.9072,1.9072,1.9072,1.9072,1.9072,1.9072,1.9072,1.9072,1.9024,1.8891,1.8867,1.877,1.8517,1.8481,1.8372,1.8094,1.795,1.7865,1.7865,1.7865,1.7865,1.7865,1.7865,1.7865,1.7865,1.7865,1.7805,1.7672,1.7672,1.7612,1.7479,1.7479,1.7479,1.7479,1.7479,1.7479,1.7479,1.7479,1.7479,1.7479,1.7479,1.7608,1.7726,1.7726,1.7843,1.7948,1.7948,1.8018,1.8194,2.3808,2.376,2.384,2.392,2.3932,2.3932,2.3932,2.3932,2.392,2.384,2.376,2.376,2.376,2.376,2.376,2.376,2.376,2.384,2.392,2.3932,2.4092,2.4572,2.4572,2.4731,2.505,2.4731,2.4332,2.3932,2.3623,2.3381,2.3181,2.2915,2.2661,2.2406,2.2358,2.2334,2.2334,2.2334,2.2334,2.2334,2.2334,2.2334,2.2334,2.2334,2.2334,2.2334,2.2334,2.22,2.1933,2.1885,2.1571,2.1256,2.1159,2.0977,2.0726,2.0678,2.0665,2.0665,2.0665,2.0509,2.0327,2.0291,1.9941,1.9519,1.9217,1.9108,1.9072,1.9072,1.9072,1.9072,1.9072,1.9072,1.9072,1.9072,1.9072,1.9072,1.9072,1.9072,1.9,1.877,1.871,1.8601,1.8384,1.8324,1.83,1.83,1.83,1.83,1.83,1.83,1.83,1.83,1.83,1.8179,1.795,1.795,1.7817,1.7551,1.7551,1.7527,1.7479,1.7479,1.7479,1.7479,1.7479,1.7479,1.7479,1.755,1.7726,1.7901,1.8031,1.8194,1.8369,1.8473,1.8473,1.8473,2.3772,2.376,2.392,2.4332,2.4412,2.4412,2.4412,2.4412,2.4252,2.384,2.376,2.376,2.376,2.376,2.376,2.376,2.376,2.4,2.4412,2.4412,2.4572,2.497,2.505,2.505,2.513,2.4731,2.4492,2.4412,2.3964,2.358,2.3315,2.3116,2.2927,2.2661,2.2443,2.2334,2.2334,2.2334,2.2334,2.2334,2.2334,2.2334,2.2334,2.2334,2.2334,2.2334,2.2334,2.2309,2.2174,2.1945,2.1824,2.1679,2.128,2.111,2.1038,2.0807,2.0665,2.0665,2.0665,2.0641,2.0557,2.0327,2.0219,2.0038,1.9531,1.9241,1.9072,1.9072,1.9072,1.9072,1.9072,1.9072,1.9072,1.9072,1.9072,1.9072,1.9072,1.9072,1.906,1.9024,1.8819,1.8674,1.8638,1.8432,1.83,1.83,1.83,1.83,1.83,1.83,1.83,1.83,1.83,1.8275,1.8239,1.8239,1.8094,1.7817,1.7817,1.7696,1.7479,1.7479,1.7479,1.7479,1.7479,1.7479,1.7537,1.7784,1.7784,1.7608,1.8123,1.8252,1.8135,1.8648,1.8823,1.8823,2.4172,2.4412,2.4572,2.4811,2.4811,2.4811,2.4811,2.4652,2.4412,2.4252,2.392,2.376,2.376,2.376,2.392,2.4172,2.4172,2.4412,2.4811,2.4811,2.505,2.5435,2.5514,2.5607,2.5832,2.5435,2.5197,2.5197,2.424,2.3628,2.3375,2.3333,2.3056,2.2721,2.2612,2.2479,2.2334,2.2334,2.2334,2.2334,2.2334,2.2334,2.2334,2.2334,2.2334,2.2334,2.2334,2.2334,2.2247,2.2126,2.1993,2.1824,2.1583,2.1377,2.111,2.0989,2.0856,2.0665,2.0665,2.0804,2.0975,2.0865,2.0717,2.0546,2.03,1.9788,1.9253,1.9108,1.9072,1.9072,1.9072,1.9072,1.9072,1.9072,1.9072,1.9072,1.9072,1.9072,1.9072,1.9072,1.8976,1.8903,1.8903,1.8794,1.8734,1.8734,1.8734,1.8734,1.8734,1.8734,1.8734,1.8734,1.8734,1.8662,1.8517,1.8517,1.8372,1.8106,1.8106,1.7889,1.7479,1.7479,1.7479,1.7479,1.7479,1.7608,1.7784,1.7972,1.8135,1.8298,1.859,1.8719,1.879,1.9068,1.9185,1.9127]}]]